                ,  2.047,  2.194,  2.342,  2.490,  2.638,  2.785,  2.933,  3.081,  3.229,  3.376,  3.524,  3.672,  3.819,  3.967,  4.115,  4.263,  4.410,  4.558,  4.706,  4.853,  5.001,  5.149,  5.297,  5.444,  5.592,  5.740,  5.888,  6.035,  6.183,  6.331,  6.478,  6.626,  6.774,  6.922,  7.069,  7.217,  7.365,  7.512,  7.660,  7.808,  7.956,  8.103,  8.251,  8.399,  8.547,  8.694,  8.842,  8.990,  9.137,  9.285,  9.433,  9.581,  9.728,  9.876, 10.024, 10.171, 10.319, 10.467, 10.615, 10.762, 10.910, 11.058, 11.205, 11.353, 11.501, 11.649, 11.796, 11.944, 12.092, 12.240, 12.387, 12.535, 12.683, 12.830, 12.978, 13.126, 13.274, 13.421, 13.569, 13.717, 13.864, 14.012, 14.160, 14.308, 14.455, 14.603, 14.751, 14.899, 15.046, 15.194, 15.342, 15.489, 15.637, 15.785, 15.933, 16.080, 16.228, 16.376, 16.523, 16.671, 16.819, 16.967, 17.114, 17.262, 17.410, 17.557, 17.705, 17.853, 18.001, 18.148, 18.296, 18.444, 18.592, 18.739, 18.887, 19.035, 19.182, 19.330, 19.478, 19.626
2005/12/12 00:00,    4.9,    4.8,    7.4,    6.5,    7.0,    6.7,    6.5,    6.2,    6.8,    7.7,  999.0,    6.9,    6.3,    6.6,    4.9,    3.7,    3.2,    3.5,    3.4,    1.1,   -0.2,    0.5,    2.1,    3.5,    3.5,    5.2,    7.6,    7.9,    7.8,   10.2,   10.2,    8.8,    8.3,    8.0,    7.8,    7.6,    7.2,    7.2,    6.6,    6.4,    6.7,    6.3,    6.4,    6.2,    6.3,    5.9,    5.4,    5.1,    5.1,    4.5,    4.1,    4.0,    3.1,    1.7,    1.6,    0.8,    1.8,    2.0,    4.5,    5.9,    6.6,    3.1,    0.7,    0.1,  999.0,   -0.2,    0.2,  999.0,  999.0,    2.6,  999.0,  999.0,    0.6,  999.0,    1.9,  999.0,  999.0,  999.0,  999.0,  999.0,  999.0,  999.0,  999.0,  999.0,  999.0,  999.0,  999.0,  999.0,  999.0,  999.0,  999.0,  999.0,  999.0,  999.0,  999.0,  999.0,  999.0,  999.0,  999.0,    0.8,   -0.9,   -2.6,   -4.9,   -3.2,   -2.3,  999.0,  999.0,  999.0,  999.0,  999.0,   -2.6,   -1.9,  999.0,  999.0,  999.0,  999.0,  999.0,  999.0,  999.0,  999.0
2005/12/12 00:10,    5.2,  999.0,    7.4,    6.8,    6.6,    6.7,    7.0,    6.4,    7.5,    8.0,    7.8,    7.1,    6.6,    7.0,    4.8,    3.9,    3.0,    3.0,    2.1,    0.4,   -0.6,   -0.4,    0.3,    3.1,    3.4,    5.0,    7.9,    9.0,    8.5,   10.1,   10.3,    9.2,    8.6,    7.9,    7.8,    7.7,    7.4,    7.2,    6.3,    6.0,    6.1,    5.4,    5.6,    6.0,    6.0,    5.9,    5.5,    5.0,    4.9,    4.4,    3.9,    3.4,    2.3,    1.5,    1.4,    1.2,    2.0,    2.6,    4.9,    6.2,  999.0,    3.9,    0.7,    0.1,    0.3,   -0.0,   -0.2,    0.2,  999.0,    2.6,  999.0,  999.0,  999.0,  999.0,  999.0,  999.0,  999.0,  999.0,  999.0,  999.0,  999.0,  999.0,  999.0,  999.0,  999.0,  999.0,  999.0,  999.0,  999.0,  999.0,  999.0,  999.0,  999.0,  999.0,  999.0,  999.0,  999.0,  999.0,  999.0,    0.9,   -0.9,   -2.9,   -4.4,   -3.4,   -2.3,  999.0,  999.0,  999.0,  999.0,  999.0,   -2.5,   -1.8,  999.0,  999.0,  999.0,  999.0,  999.0,  999.0,  999.0,  999.0
2005/12/12 00:20,    5.8,    4.5,    6.2,    6.8,    6.4,    7.3,    7.4,    7.0,    7.6,    7.7,    7.9,    7.2,    6.9,    7.2,    5.2,    4.8,    5.4,    4.5,    2.3,    1.1,    0.2,   -0.2,    0.1,    0.6,    2.1,    4.3,    6.6,    7.4,    8.0,    9.5,    9.3,    9.0,    9.3,    8.2,    8.0,    7.7,    7.2,    6.9,    5.9,    5.6,    5.6,    4.9,    4.7,    5.3,    5.6,    5.6,    5.3,    4.7,    4.5,    4.2,    3.8,    3.1,    2.2,    1.7,    1.3,    1.1,    2.7,    4.2,    5.4,    5.9,    6.6,  999.0,   -0.1,    0.1,    0.3,    0.1,   -0.1,    0.4,    4.0,    2.6,  999.0,  999.0,  999.0,  999.0,    0.9,  999.0,  999.0,  999.0,  999.0,  999.0,  999.0,  999.0,  999.0,  999.0,  999.0,  999.0,  999.0,  999.0,  999.0,  999.0,  999.0,  999.0,  999.0,  999.0,  999.0,  999.0,  999.0,    1.5,  999.0,    0.2,   -1.2,   -3.3,   -3.4,   -2.9,   -1.5,  999.0,  999.0,  999.0,  999.0,  999.0,  999.0,   -1.6,  999.0,  999.0,  999.0,  999.0,  999.0,  999.0,  999.0,  999.0
2005/12/12 00:30,    5.7,    4.3,    4.8,    6.9,    6.6,    7.8,    7.8,    7.8,    7.8,    7.2,    7.1,    7.0,    6.1,    6.0,    5.8,    5.0,    4.7,    4.7,    4.3,    3.5,    2.0,    1.0,    0.8,    0.7,    1.6,    3.7,    5.3,    6.1,    7.0,    7.4,    8.0,    8.6,    9.1,    8.6,    7.8,    7.6,    7.0,    6.4,    5.9,    5.3,    5.4,    4.6,    4.4,    5.0,    5.3,    5.5,    5.1,    4.7,    4.4,    4.1,    3.8,    3.1,    2.0,    2.1,    1.5,    1.3,    3.7,    5.2,    5.8,    6.1,    6.5,  999.0,    0.3,   -0.0,   -0.4,   -0.1,   -0.1,  999.0,  999.0,  999.0,  999.0,  999.0,   -0.4,  999.0,  999.0,  999.0,  999.0,  999.0,  999.0,  999.0,  999.0,  999.0,  999.0,  999.0,  999.0,  999.0,  999.0,  999.0,  999.0,  999.0,  999.0,  999.0,  999.0,  999.0,  999.0,  999.0,  999.0,  999.0,  999.0,   -0.9,   -1.7,   -3.5,   -3.1,   -2.3,   -0.5,  999.0,  999.0,  999.0,  999.0,  999.0,  999.0,   -2.1,  999.0,  999.0,  999.0,  999.0,  999.0,  999.0,  999.0,  999.0
2005/12/12 00:40,    5.6,    4.3,    4.0,    6.5,    5.9,    8.1,    7.5,    7.4,    6.9,    5.7,    5.1,    6.1,    5.1,    5.1,    5.5,    4.9,    4.4,    4.0,    4.2,    3.6,    2.4,    2.2,    2.2,    1.6,    1.5,    3.4,    5.2,    5.7,    5.9,    7.0,    7.5,    8.5,    8.6,  999.0,    7.8,    7.0,    6.5,    5.9,    5.8,    5.3,    5.1,    4.5,    4.3,    5.1,    5.3,    5.6,    5.2,    4.7,    4.3,    4.0,    3.7,    3.1,    2.4,    2.1,    1.4,  999.0,    4.2,    5.6,    6.1,    5.8,  999.0,  999.0,    0.7,    0.1,   -0.1,   -0.1,   -0.0,  999.0,    0.3,  999.0,  999.0,  999.0,  999.0,  999.0,   -0.0,  999.0,  999.0,  999.0,  999.0,  999.0,  999.0,  999.0,  999.0,  999.0,  999.0,  999.0,  999.0,  999.0,  999.0,  999.0,  999.0,  999.0,  999.0,  999.0,  999.0,  999.0,    6.9,  999.0,   -2.2,   -1.1,   -2.4,   -3.6,   -3.4,   -2.4,   -0.3,  999.0,  999.0,  999.0,  999.0,  999.0,  999.0,  999.0,  999.0,  999.0,  999.0,  999.0,  999.0,  999.0,  999.0,  999.0
2005/12/12 00:50,    5.7,  999.0,    3.3,    4.5,    5.1,    4.4,    5.9,    6.1,    4.1,    3.6,    3.7,    4.1,    4.6,    5.2,    4.6,    3.9,    3.9,    3.8,    3.2,    2.7,    2.0,    1.0,    2.0,    2.3,    2.2,    3.5,    5.1,    5.6,    6.1,    6.5,    6.5,    7.4,    7.3,    6.7,    6.8,    6.1,    5.7,    5.3,    5.2,    4.9,    4.8,    4.3,    4.6,    5.4,    5.5,    5.7,    5.8,    4.8,    4.0,    3.7,    3.3,    2.9,    2.3,    2.0,    1.9,    2.2,    4.5,    6.0,    6.3,    5.9,  999.0,  999.0,    0.2,    0.2,   -0.1,   -0.1,    0.0,  999.0,    0.5,   -1.5,  999.0,  999.0,  999.0,  999.0,    0.5,  999.0,    1.1,  999.0,  999.0,  999.0,  999.0,  999.0,  999.0,  999.0,  999.0,  999.0,  999.0,  999.0,  999.0,  999.0,  999.0,  999.0,  999.0,  999.0,  999.0,  999.0,  999.0,  999.0,  999.0,   -2.0,   -3.2,   -4.1,   -4.0,   -2.3,   -0.5,  999.0,  999.0,  999.0,  999.0,  999.0,  999.0,  999.0,  999.0,  999.0,  999.0,  999.0,  999.0,  999.0,  999.0,  999.0
2005/12/12 01:00,  999.0,  999.0,    3.2,    3.2,    3.4,    1.9,    3.1,    3.2,    2.6,    2.6,    3.2,    4.1,    4.5,    5.7,    4.8,    3.9,    4.1,    3.8,    3.1,    2.4,    1.6,    0.3,    0.9,    1.4,    2.3,    3.5,    5.3,    6.3,    7.1,    6.4,    6.5,    7.1,    7.2,    6.4,    6.4,    5.9,    5.2,    4.5,    4.9,    4.7,    4.4,    4.2,    4.6,    5.0,    5.5,    5.5,    5.9,    4.7,  999.0,    3.1,    3.1,    2.7,    2.2,    1.7,    1.7,    3.4,    4.8,    6.2,    6.3,    4.5,  999.0,  999.0,    0.3,    0.2,  999.0,   -0.2,   -0.0,  999.0,  999.0,   -0.2,  999.0,  999.0,  999.0,    2.1,    2.0,  999.0,  999.0,  999.0,  999.0,  999.0,  999.0,  999.0,  999.0,  999.0,  999.0,  999.0,  999.0,  999.0,  999.0,  999.0,  999.0,  999.0,  999.0,  999.0,  999.0,  999.0,  999.0,  999.0,  999.0,   -2.0,   -3.8,   -4.1,   -3.8,   -2.2,   -0.7,  999.0,  999.0,  999.0,  999.0,  999.0,  999.0,  999.0,  999.0,  999.0,  999.0,  999.0,  999.0,  999.0,  999.0,  999.0
2005/12/12 01:10,  999.0,  999.0,    3.3,    3.1,    2.6,    1.8,    2.6,    2.4,    2.4,    3.1,    3.6,    4.3,    5.0,    6.1,    5.0,    4.6,    4.7,    3.7,    3.0,    2.7,    2.1,    1.1,    1.0,    0.9,    2.4,    3.9,    5.6,    6.7,    7.8,    6.9,    6.5,    7.0,    6.9,    6.0,    6.0,    5.6,    4.6,    4.0,    4.0,    4.1,    4.0,    4.0,    4.2,    4.1,    4.4,    5.1,    5.4,    4.3,    3.1,    3.0,    2.9,    2.6,    2.1,    1.4,    1.3,    3.4,    4.9,    5.9,    6.3,    5.6,  999.0,  999.0,    0.2,    0.2,   -0.2,   -0.2,   -0.0,    0.2,  999.0,   -0.1,   -0.0,    0.3,  999.0,  999.0,  999.0,    1.9,  999.0,  999.0,  999.0,  999.0,  999.0,  999.0,  999.0,    0.9,  999.0,  999.0,  999.0,  999.0,  999.0,  999.0,  999.0,  999.0,  999.0,  999.0,  999.0,  999.0,  999.0,  999.0,  999.0,   -1.8,   -4.1,   -4.3,   -3.8,   -2.5,   -0.7,  999.0,  999.0,    2.2,  999.0,  999.0,  999.0,  999.0,  999.0,  999.0,  999.0,  999.0,  999.0,  999.0,  999.0,  999.0
2005/12/12 01:20,  999.0,  999.0,    3.5,    2.4,    2.6,    1.5,    1.8,    2.0,    2.8,    3.9,    4.5,    5.6,    6.1,    6.7,    5.1,    5.4,    5.4,    4.1,    3.7,    4.3,    3.6,    2.6,    1.5,    1.0,    2.4,    4.1,    5.3,    6.9,    7.8,    7.2,    5.9,    6.1,    5.9,    4.6,    4.0,    3.2,    2.7,    3.1,    3.2,    3.4,    3.3,    3.8,    3.8,    3.9,    3.9,    4.8,    5.1,    4.0,    3.1,    3.0,    3.2,    2.9,    2.1,    1.1,    1.2,    3.3,    5.1,    5.8,    6.1,    6.6,  999.0,  999.0,    0.1,    0.0,   -0.3,    0.2,    0.0,    1.0,  999.0,  999.0,    0.2,  999.0,  999.0,  999.0,    1.5,    2.4,  999.0,  999.0,  999.0,  999.0,  999.0,  999.0,  999.0,  999.0,  999.0,  999.0,  999.0,  999.0,  999.0,  999.0,  999.0,  999.0,  999.0,  999.0,  999.0,  999.0,  999.0,  999.0,  999.0,   -0.5,   -3.3,   -4.1,   -3.5,   -3.1,   -0.9,  999.0,  999.0,  999.0,  999.0,  999.0,  999.0,  999.0,  999.0,  999.0,  999.0,  999.0,  999.0,  999.0,  999.0,  999.0
2005/12/12 01:30,    4.1,    4.0,    3.1,    2.6,    2.3,    1.8,    2.2,    1.8,    2.8,    3.8,    4.8,    5.8,    6.3,    5.8,    5.0,    4.8,    4.7,    4.1,    4.2,    5.0,    4.1,    3.1,    1.5,    1.1,    3.1,    3.9,    5.2,    6.4,    7.7,    6.4,    5.4,    5.3,    4.7,    3.9,    3.3,    2.8,    2.3,    2.5,    2.9,    3.1,    3.1,    3.7,    3.7,    3.8,    3.9,    4.8,    5.3,    4.3,    3.4,    3.4,    3.3,    3.0,    2.1,    0.9,    1.3,    3.5,    5.0,    5.7,    5.9,    6.3,    4.8,  999.0,   -0.1,   -0.3,   -0.2,    0.4,    0.1,    0.9,  999.0,  999.0,  999.0,  999.0,  999.0,  999.0,  999.0,  999.0,    2.1,  999.0,  999.0,  999.0,  999.0,  999.0,  999.0,  999.0,  999.0,  999.0,  999.0,  999.0,  999.0,  999.0,  999.0,  999.0,  999.0,  999.0,  999.0,  999.0,  999.0,  999.0,  999.0,   -0.1,   -2.5,   -3.7,   -3.5,   -3.1,   -1.4,  999.0,  999.0,  999.0,  999.0,  999.0,  999.0,  999.0,  999.0,  999.0,  999.0,  999.0,  999.0,  999.0,  999.0,  999.0
2005/12/12 01:40,    3.4,    3.4,    2.4,    2.7,    3.0,    2.0,    2.6,    1.9,    2.9,    3.4,    4.5,    5.2,    5.8,    5.0,    4.1,    4.3,    2.3,    3.0,    3.1,    4.2,    4.7,    3.8,    2.2,    1.0,    1.6,    2.5,    3.8,    4.0,    6.3,    5.7,    4.9,    4.5,    4.2,    3.3,    3.2,    2.6,    2.1,    2.1,    2.5,    2.9,    3.1,    3.9,    4.1,    4.3,    4.4,    5.1,    5.5,    5.2,    4.1,    3.7,    3.3,    3.0,    1.8,    0.7,    1.0,    3.3,    4.6,    5.5,    5.8,    5.4,    4.6,    5.5,    0.1,   -0.0,   -0.1,    0.3,    0.3,    0.5,   -0.1,  999.0,    3.9,  999.0,  999.0,  999.0,  999.0,  999.0,  999.0,  999.0,  999.0,  999.0,  999.0,  999.0,  999.0,  999.0,  999.0,  999.0,  999.0,  999.0,  999.0,  999.0,  999.0,  999.0,  999.0,  999.0,  999.0,  999.0,  999.0,  999.0,  999.0,    0.1,   -1.0,   -2.9,   -3.1,   -3.1,   -1.9,  999.0,  999.0,  999.0,  999.0,  999.0,  999.0,  999.0,  999.0,  999.0,  999.0,  999.0,  999.0,  999.0,  999.0,  999.0
2005/12/12 01:50,    2.6,    2.2,    2.1,    3.2,    3.1,    2.3,    2.8,    2.4,    2.5,    2.1,    3.7,    4.2,    4.8,    5.0,    4.0,    4.5,    2.5,    2.2,    2.3,    2.1,    2.8,    2.6,    2.3,    1.2,    1.9,    1.7,    2.5,    3.3,    4.9,  999.0,    7.3,    6.9,    6.8,    6.2,    5.7,  999.0,  999.0,    5.2,    4.9,    5.1,    5.3,    4.9,    5.0,    5.1,    5.1,    5.1,    5.6,    5.6,    4.7,    3.7,    2.9,    1.8,    0.9,    0.6,    0.8,    3.1,    4.2,    5.0,    5.7,    5.4,    4.6,  999.0,    0.2,    0.0,  999.0,    0.2,    0.1,    0.1,   -0.2,  999.0,    3.5,  999.0,  999.0,  999.0,  999.0,  999.0,  999.0,  999.0,  999.0,  999.0,  999.0,  999.0,  999.0,  999.0,  999.0,  999.0,  999.0,  999.0,  999.0,  999.0,  999.0,  999.0,  999.0,  999.0,  999.0,  999.0,  999.0,  999.0,  999.0,    0.6,   -0.8,   -2.7,   -3.1,   -3.7,   -2.5,  999.0,  999.0,  999.0,  999.0,  999.0,  999.0,  999.0,  999.0,  999.0,  999.0,  999.0,  999.0,  999.0,  999.0,  999.0
2005/12/12 02:00,    3.3,    2.9,    1.8,    2.7,    3.0,    2.5,    2.5,    2.8,    2.5,    2.8,    3.4,    3.7,    5.2,    5.4,    4.7,    4.4,    2.4,    1.4,    1.7,    1.9,    2.8,    3.1,    2.6,    2.1,    2.0,    1.8,    2.6,    2.9,    4.1,    6.0,    6.4,    6.7,    6.4,    6.0,    5.8,    6.1,    5.2,    5.3,    4.7,    4.9,    5.1,    5.1,    5.6,    6.0,    5.9,    5.1,    5.2,    5.4,    4.7,    2.8,    2.2,    1.1,    0.7,    0.6,    1.2,    3.1,    4.4,    5.1,    5.9,    5.2,    4.2,    4.0,    0.0,    0.1,   -0.3,   -0.0,   -0.0,   -0.1,    1.4,    3.2,    3.4,    3.7,    2.3,    0.6,    0.8,  999.0,  999.0,    1.0,  999.0,  999.0,  999.0,  999.0,  999.0,  999.0,  999.0,  999.0,  999.0,  999.0,  999.0,  999.0,  999.0,  999.0,  999.0,  999.0,  999.0,  999.0,  999.0,  999.0,  999.0,   -0.0,   -1.1,   -3.1,   -3.5,   -3.9,   -2.4,  999.0,    1.0,   -0.1,  999.0,  999.0,  999.0,  999.0,  999.0,  999.0,  999.0,  999.0,  999.0,  999.0,  999.0,  999.0
2005/12/12 02:10,    3.1,    3.2,  999.0,    1.9,    2.2,    2.1,    2.5,    2.6,    2.2,    2.4,    3.1,    2.9,    4.9,    4.7,    3.7,    2.7,    2.4,    0.8,    1.5,    2.2,    3.0,    3.6,    2.9,    2.7,    2.3,    1.6,    1.4,    2.5,    3.4,  999.0,    4.2,    4.8,    4.1,  999.0,  999.0,    1.9,    2.6,    2.8,    2.8,    3.2,    3.2,    3.8,    5.1,    5.7,    6.3,    5.6,    5.2,    5.3,    4.4,    2.4,    1.5,    1.2,    0.7,    0.8,    2.2,    3.6,    5.0,    5.4,    6.5,    4.7,    4.2,  999.0,    0.1,    0.5,   -0.7,   -0.0,    0.0,  999.0,    3.8,    5.3,    4.0,    3.3,    2.5,  999.0,    0.3,  999.0,  999.0,    0.8,  999.0,  999.0,  999.0,  999.0,  999.0,  999.0,  999.0,  999.0,  999.0,  999.0,  999.0,  999.0,  999.0,  999.0,  999.0,  999.0,  999.0,  999.0,  999.0,  999.0,  999.0,    0.4,   -1.1,   -3.1,   -3.4,   -4.1,  999.0,  999.0,  999.0,  999.0,  999.0,  999.0,  999.0,  999.0,   -0.5,  999.0,  999.0,  999.0,  999.0,  999.0,  999.0,  999.0
2005/12/12 02:20,    3.1,    3.0,    2.0,    2.0,    2.4,    2.1,    2.7,    2.6,    2.8,    2.7,    3.4,    2.8,    3.7,    3.3,    2.9,    1.9,    1.4,    0.6,    0.9,    1.6,    3.0,    3.0,    2.6,    2.8,    2.2,    1.4,    0.8,    2.0,    2.5,    3.7,    3.6,    3.7,    2.9,  999.0,    2.4,    1.9,    2.3,    2.8,    2.7,    3.0,    3.2,    3.9,    4.8,    5.5,    6.4,    6.2,    5.8,    5.2,    4.1,    1.9,    1.4,    1.2,    0.8,    1.0,    2.7,    3.8,    5.1,    5.6,  999.0,    5.0,  999.0,  999.0,    0.0,   -0.2,   -0.2,   -0.2,    0.1,  999.0,    5.6,    5.0,    5.1,    2.9,    3.0,  999.0,   -0.2,  999.0,    0.0,  999.0,  999.0,  999.0,  999.0,  999.0,  999.0,  999.0,  999.0,  999.0,  999.0,  999.0,  999.0,  999.0,  999.0,  999.0,  999.0,  999.0,  999.0,  999.0,  999.0,  999.0,  999.0,   -1.1,   -0.9,   -3.0,   -3.2,   -4.2,  999.0,    1.0,  999.0,  999.0,  999.0,  999.0,  999.0,  999.0,  999.0,  999.0,  999.0,  999.0,  999.0,  999.0,  999.0,  999.0
2005/12/12 02:30,    2.9,    2.6,    2.1,    2.8,    4.5,    4.6,    3.8,    3.0,    3.6,    3.5,    4.2,    3.0,    2.9,    2.6,    2.4,    1.6,    1.1,   -0.4,   -0.1,    0.7,    1.7,    1.9,    2.2,    2.1,    1.9,    0.9,    0.7,    1.3,    1.7,    3.0,    3.4,    3.8,    3.2,    2.5,    2.6,    2.4,    2.8,    3.0,    2.8,    2.9,    3.3,    3.7,    4.4,    5.1,    6.0,    6.5,    5.9,    5.1,    3.7,    1.3,    1.4,    1.2,    0.9,    1.7,    3.2,    3.9,    5.0,    5.7,    7.0,    5.0,  999.0,  999.0,   -0.1,   -0.0,    0.1,    0.7,    0.7,    6.6,    5.4,    4.5,    3.9,    2.5,    2.5,    1.7,  999.0,  999.0,    0.4,    0.9,  999.0,  999.0,  999.0,  999.0,  999.0,  999.0,  999.0,  999.0,  999.0,  999.0,  999.0,  999.0,  999.0,  999.0,   -0.2,  999.0,  999.0,  999.0,  999.0,  999.0,  999.0,   -1.6,   -1.3,   -2.9,   -3.3,   -4.2,  999.0,  999.0,  999.0,  999.0,  999.0,  999.0,  999.0,  999.0,  999.0,  999.0,  999.0,  999.0,  999.0,  999.0,  999.0,  999.0
2005/12/12 02:40,    1.4,    2.2,    2.1,    3.4,    4.4,    4.6,    4.2,    3.2,    3.2,    3.4,    3.9,    3.4,    2.8,    2.7,  999.0,    1.6,    1.6,    0.3,   -0.2,    0.8,    0.8,    1.5,    1.8,    1.4,    1.4,    0.8,    0.7,    1.5,    2.5,    2.8,    3.4,    4.3,    4.5,    4.7,    4.4,    4.4,    4.7,    4.4,    3.6,    3.5,    4.1,    4.1,    4.2,    4.6,    5.8,    6.2,    5.8,    5.1,    2.9,    0.8,    1.1,    1.1,    0.8,    2.6,    4.2,    4.5,    5.4,    6.0,    6.9,    8.3,  999.0,  999.0,   -0.1,   -0.0,    0.2,  999.0,    3.5,    5.6,    4.8,    3.9,    3.7,    2.5,    1.4,    2.2,    1.7,  999.0,  999.0,  999.0,  999.0,  999.0,  999.0,  999.0,    1.9,  999.0,  999.0,  999.0,  999.0,    0.3,  999.0,  999.0,  999.0,  999.0,  999.0,  999.0,  999.0,  999.0,  999.0,  999.0,  999.0,   -2.0,   -2.3,   -2.9,   -4.1,   -3.7,  999.0,  999.0,  999.0,  999.0,  999.0,  999.0,   -0.2,  999.0,  999.0,  999.0,  999.0,  999.0,  999.0,  999.0,  999.0,  999.0
2005/12/12 02:50,   -0.1,    2.5,    2.9,    3.1,    3.8,    4.6,    4.4,    2.9,    2.6,    2.6,    3.8,    3.9,    3.6,    3.1,    2.6,    2.6,    2.1,    0.6,   -0.3,    0.5,    0.1,    1.1,    1.4,    1.7,    1.2,    1.4,    1.8,    2.4,    2.8,    3.2,    3.6,    4.3,    5.0,    5.1,    5.3,    5.3,    5.1,    4.8,    4.6,    4.1,    4.5,    4.6,    4.4,    4.3,    4.5,    5.1,    4.9,    4.3,    1.7,    0.5,    1.0,    0.8,    1.6,    3.5,    4.9,    5.1,    5.4,    5.7,    6.5,    7.7,  999.0,    4.6,    5.0,    4.8,    4.8,    4.2,    4.5,    5.8,    4.2,    3.5,    3.4,    1.9,  999.0,  999.0,    1.8,  999.0,    1.5,  999.0,    1.4,  999.0,  999.0,  999.0,    2.3,  999.0,  999.0,  999.0,  999.0,  999.0,  999.0,  999.0,  999.0,  999.0,  999.0,  999.0,  999.0,  999.0,  999.0,  999.0,  999.0,   -2.0,   -2.7,   -3.2,   -4.6,   -4.1,    1.4,  999.0,  999.0,  999.0,  999.0,  999.0,  999.0,  999.0,  999.0,  999.0,  999.0,  999.0,  999.0,  999.0,  999.0,  999.0
2005/12/12 03:00,   -0.5,    2.5,    3.2,    2.9,    3.6,    5.1,    4.7,    3.6,    2.3,    2.5,    3.7,    4.2,    4.6,    4.6,    4.2,    2.8,    1.9,    0.5,   -0.7,   -0.3,   -0.2,    0.4,    1.3,    1.2,    1.3,    1.7,    2.1,    2.2,    2.8,    3.1,    3.2,    4.0,    4.5,    5.2,    5.6,    5.6,    5.0,    5.0,    4.8,    4.5,    4.7,    4.7,    4.1,    4.0,    4.3,    4.3,    3.6,    3.3,    0.9,    0.5,    1.2,    0.7,    2.8,    4.0,    5.0,    5.2,    5.2,    5.5,    5.9,    7.2,    8.6,    4.7,    6.3,    6.0,    7.1,    5.4,    4.8,    5.6,    3.6,    3.2,    3.2,    1.7,  999.0,  999.0,  999.0,  999.0,  999.0,  999.0,  999.0,  999.0,  999.0,  999.0,    2.8,  999.0,    3.6,  999.0,  999.0,  999.0,  999.0,  999.0,  999.0,  999.0,  999.0,  999.0,  999.0,  999.0,  999.0,  999.0,  999.0,   -1.3,   -2.0,   -3.6,   -4.4,   -4.0,  999.0,  999.0,  999.0,  999.0,  999.0,  999.0,  999.0,  999.0,  999.0,  999.0,  999.0,  999.0,  999.0,  999.0,  999.0,  999.0
2005/12/12 03:10,    0.8,    3.0,    3.2,    3.5,    4.0,    5.2,    5.0,    3.9,    2.1,    2.3,    3.7,    4.6,    4.9,    5.4,    5.3,    3.8,    1.6,    0.7,   -0.4,   -1.0,    0.1,    0.2,    0.9,    0.7,    1.1,    1.5,    1.9,    2.2,    2.5,    3.1,    3.4,    3.8,    3.9,    4.5,    5.5,    5.6,    4.9,    5.0,    4.4,    4.5,  999.0,    4.7,    4.2,    4.3,    4.4,    4.4,    3.1,    2.9,    1.3,    0.7,    0.7,    0.8,    2.9,    3.9,    4.7,    4.6,    5.1,    5.4,    5.6,    7.0,    8.5,  999.0,    6.7,    5.6,    6.2,    4.2,    4.6,    5.4,    3.7,    3.3,    2.7,    1.5,  999.0,  999.0,  999.0,  999.0,  999.0,  999.0,  999.0,  999.0,  999.0,  999.0,    2.8,  999.0,  999.0,  999.0,  999.0,    2.9,  999.0,  999.0,  999.0,  999.0,  999.0,  999.0,  999.0,  999.0,  999.0,  999.0,  999.0,   -0.9,   -2.1,   -3.9,   -4.6,   -3.9,  999.0,  999.0,  999.0,  999.0,  999.0,  999.0,  999.0,  999.0,  999.0,  999.0,  999.0,  999.0,  999.0,  999.0,  999.0,  999.0
2005/12/12 03:20,    8.5,    3.6,    4.0,    5.2,    5.4,    5.7,    5.3,    4.5,    3.0,    2.4,    3.6,    4.5,    4.9,    5.7,    5.4,    5.0,    3.9,    2.3,    0.1,   -0.0,    0.7,    0.5,    0.6,    0.6,    1.2,    1.5,    1.7,    2.1,    2.8,    3.1,    3.6,    3.7,    3.5,    4.4,    4.8,    5.0,    4.5,    4.2,    4.2,    4.3,    4.6,    4.1,    4.2,    4.2,    4.4,    4.6,    3.5,    2.6,    1.6,    1.0,    1.0,    0.9,    2.9,    4.0,    4.6,    4.3,    4.9,    5.1,    5.2,    6.2,    8.1,  999.0,    5.0,    4.9,    5.3,    4.0,    4.4,    5.0,    3.2,    3.2,    2.0,    1.8,    0.9,    0.6,  999.0,    0.6,  999.0,  999.0,  999.0,  999.0,  999.0,    1.9,  999.0,  999.0,  999.0,  999.0,  999.0,    4.2,  999.0,  999.0,  999.0,  999.0,  999.0,  999.0,  999.0,  999.0,  999.0,  999.0,  999.0,   -1.3,   -2.9,   -4.1,   -4.4,   -3.6,  999.0,  999.0,  999.0,  999.0,  999.0,  999.0,  999.0,  999.0,  999.0,  999.0,  999.0,  999.0,  999.0,  999.0,  999.0,  999.0
2005/12/12 03:30,  999.0,    3.8,    4.9,    6.0,    6.2,    6.2,    5.8,    5.5,    4.1,    3.4,    3.4,    4.6,    4.9,    5.2,    5.2,    4.8,    4.3,    2.8,    1.4,    0.7,    0.6,    0.6,    0.7,    0.7,    1.1,    1.6,    2.2,    2.5,    3.2,    3.1,    3.0,    3.4,    3.3,    3.6,    4.4,    4.4,    4.2,    3.7,    4.0,    4.0,    4.0,    3.8,    3.9,    3.5,    4.1,    4.5,    3.6,    2.2,    1.2,    1.0,    0.8,    1.2,    3.1,    3.6,    4.5,    4.1,    4.6,    5.0,    4.8,    5.5,    7.4,    7.4,    4.6,    4.8,    4.1,    2.0,    3.4,    3.8,    2.9,    3.2,    1.3,  999.0,    1.4,  999.0,  999.0,  999.0,  999.0,  999.0,  999.0,  999.0,  999.0,    2.4,  999.0,  999.0,  999.0,  999.0,  999.0,  999.0,  999.0,  999.0,  999.0,  999.0,  999.0,  999.0,  999.0,  999.0,  999.0,  999.0,  999.0,   -1.9,   -3.3,   -4.0,   -4.5,   -4.4,  999.0,  999.0,  999.0,  999.0,  999.0,  999.0,  999.0,  999.0,  999.0,  999.0,  999.0,  999.0,  999.0,  999.0,  999.0,  999.0
2005/12/12 03:40,    6.1,    4.9,    6.2,    6.8,    7.7,    7.1,    5.9,    5.3,    4.3,    3.4,    3.4,    4.5,    4.9,    4.6,    4.6,    4.3,    3.9,    3.0,    2.9,    1.3,    1.4,    0.9,    1.0,    0.6,    1.0,    2.2,    2.6,    3.3,    3.4,    3.4,    3.3,    3.3,    3.2,    3.0,    4.1,    4.5,    4.2,    4.1,    3.9,    3.5,    3.3,    3.6,    3.6,    3.2,    4.0,    4.4,    2.9,    2.1,    1.1,    0.7,    0.6,    1.4,    3.1,    3.9,    4.2,    4.0,    4.3,    4.8,    4.8,    5.2,    6.5,    6.9,    4.2,    4.9,    3.9,    2.8,    2.7,    2.5,    2.2,  999.0,    0.8,  999.0,    1.9,  999.0,  999.0,  999.0,  999.0,  999.0,  999.0,  999.0,    1.6,    2.8,  999.0,  999.0,  999.0,  999.0,  999.0,  999.0,  999.0,    2.7,  999.0,  999.0,  999.0,  999.0,  999.0,  999.0,  999.0,  999.0,  999.0,   -1.3,   -3.3,   -4.1,   -4.5,   -4.4,  999.0,  999.0,  999.0,  999.0,  999.0,  999.0,  999.0,  999.0,    2.0,  999.0,  999.0,  999.0,  999.0,  999.0,  999.0,  999.0
2005/12/12 03:50,    7.0,  999.0,    7.2,    7.0,    8.7,    8.0,    5.3,    4.8,    3.4,    3.3,    3.4,    4.1,    4.7,    4.7,    4.1,    3.8,    3.7,    2.9,    2.1,    2.1,    2.0,    1.6,    1.1,    0.9,    1.1,    2.6,    2.9,    3.4,    3.7,    3.3,    2.6,    2.8,    2.9,    3.1,    3.8,    4.6,    4.8,    4.7,    3.7,    3.2,    3.3,    3.4,    3.1,    3.1,    3.2,    3.3,    2.6,    1.5,    1.1,    0.7,    0.8,    1.7,    3.1,    3.7,    3.9,    4.1,    4.2,    4.5,    4.2,    4.6,  999.0,  999.0,    5.0,    4.3,    4.0,    2.7,    2.5,    2.3,    1.1,  999.0,  999.0,  999.0,  999.0,  999.0,  999.0,  999.0,  999.0,  999.0,  999.0,  999.0,  999.0,    3.3,  999.0,  999.0,  999.0,  999.0,  999.0,  999.0,  999.0,  999.0,  999.0,  999.0,  999.0,  999.0,  999.0,  999.0,  999.0,  999.0,  999.0,   -1.3,   -3.2,   -3.8,   -4.0,  999.0,  999.0,  999.0,  999.0,  999.0,  999.0,    2.4,  999.0,    4.0,    2.5,  999.0,  999.0,  999.0,  999.0,  999.0,  999.0,  999.0
2005/12/12 04:00,    6.4,    6.4,    7.1,    6.9,    7.0,    6.5,    4.5,    4.5,    2.7,    3.0,    3.6,    3.7,    4.2,    4.5,    3.9,    3.7,    3.9,    2.7,    0.6,    0.4,    2.1,    1.7,    1.7,    1.3,    2.1,    2.6,    3.1,    3.4,    3.8,    3.5,    2.9,    2.7,    2.8,    3.4,    4.1,    4.8,    4.9,    4.8,    4.0,    3.4,    3.2,    2.9,    2.3,    3.0,    2.9,    3.2,    2.4,    2.1,    1.8,    1.3,    1.6,    2.4,    3.2,    3.5,    4.0,    4.1,    4.1,    4.0,    4.5,    5.3,    5.1,  999.0,  999.0,    3.8,    3.7,    2.2,    2.2,    2.1,    0.9,    1.1,  999.0,  999.0,  999.0,  999.0,  999.0,  999.0,  999.0,  999.0,  999.0,  999.0,  999.0,    4.1,  999.0,  999.0,  999.0,  999.0,  999.0,  999.0,  999.0,  999.0,  999.0,  999.0,  999.0,  999.0,  999.0,  999.0,  999.0,  999.0,  999.0,   -1.5,   -3.8,   -3.2,   -3.3,  999.0,  999.0,  999.0,  999.0,  999.0,  999.0,  999.0,  999.0,  999.0,    2.0,  999.0,  999.0,  999.0,  999.0,  999.0,  999.0,  999.0
2005/12/12 04:10,    6.0,    6.1,    6.3,    6.9,    6.7,    5.6,    4.0,    4.3,    3.3,    2.6,    2.9,    3.0,    3.2,    3.4,    3.4,    3.5,    3.8,    3.3,  999.0,    2.8,    3.6,    3.1,    2.3,    2.2,    2.3,    1.9,    2.8,    3.3,    3.7,    3.4,    2.5,    2.7,    2.8,    3.7,    4.2,    4.5,    4.7,    4.6,    4.0,    3.3,    3.2,    2.6,    2.4,    2.7,    2.4,    3.0,    2.3,    2.1,    2.3,    2.0,    2.3,    3.5,    4.2,    4.4,    4.7,    4.4,    4.3,    4.0,    4.2,    5.1,    3.6,    5.4,  999.0,    3.9,    2.7,    2.0,    1.4,    1.7,    0.9,  999.0,  999.0,  999.0,  999.0,  999.0,  999.0,  999.0,  999.0,  999.0,  999.0,  999.0,  999.0,    1.4,  999.0,  999.0,  999.0,  999.0,  999.0,  999.0,  999.0,  999.0,  999.0,  999.0,  999.0,  999.0,  999.0,  999.0,  999.0,  999.0,    0.6,   -1.2,   -3.8,   -2.7,   -2.4,  999.0,  999.0,  999.0,  999.0,  999.0,  999.0,  999.0,  999.0,  999.0,  999.0,  999.0,  999.0,  999.0,  999.0,  999.0,  999.0,  999.0
2005/12/12 04:20,    5.0,  999.0,    5.4,    6.3,    5.8,    4.3,    3.8,    4.1,    3.9,    2.1,    2.6,    2.7,    2.8,    2.7,    3.1,    3.0,    3.0,    3.3,  999.0,    4.6,    4.0,    3.5,    2.9,    2.9,    2.6,    2.4,    2.4,    2.6,    3.1,    3.1,    2.7,    2.9,    2.8,    4.0,    4.4,    4.5,    4.2,    3.9,    3.8,    3.3,    3.4,    2.1,    2.2,    2.1,    2.3,    3.1,    2.4,    2.5,    2.6,    2.5,    3.3,    4.1,    4.9,    5.7,    5.1,    5.1,    4.8,    4.3,    5.1,    5.0,    3.6,    5.4,    2.7,    3.4,    2.7,    1.9,    1.0,    1.5,    0.9,  999.0,    1.5,  999.0,  999.0,  999.0,  999.0,  999.0,  999.0,  999.0,  999.0,  999.0,  999.0,  999.0,  999.0,  999.0,  999.0,  999.0,  999.0,  999.0,  999.0,    0.6,  999.0,  999.0,  999.0,  999.0,  999.0,  999.0,  999.0,  999.0,    0.6,   -0.8,   -3.7,   -2.8,   -1.7,  999.0,  999.0,  999.0,  999.0,  999.0,  999.0,  999.0,  999.0,  999.0,  999.0,  999.0,  999.0,  999.0,  999.0,  999.0,  999.0,  999.0
2005/12/12 04:30,    4.4,    5.3,    5.2,    6.0,    4.9,    3.8,    3.7,    3.9,    3.6,    1.6,    2.0,    2.2,    2.6,    2.2,    2.2,    2.4,    2.7,    2.8,    3.7,    3.7,    4.1,    4.1,    3.3,    2.8,    2.8,    3.0,    2.9,    2.9,    3.0,    3.3,    3.8,    3.6,    3.5,    4.3,    4.5,    4.2,    3.6,    3.0,    3.6,    3.2,    3.1,    2.4,    2.2,    2.0,    2.4,    3.1,    2.9,    2.9,    2.9,    3.4,    4.8,    5.3,    6.1,    6.4,    5.9,    5.8,    5.8,    4.9,    4.9,    5.1,    4.4,    4.6,    2.6,    3.0,    3.0,    1.6,    1.3,    1.5,    0.5,    0.8,    1.8,  999.0,  999.0,  999.0,    2.4,  999.0,  999.0,  999.0,  999.0,  999.0,  999.0,  999.0,  999.0,  999.0,  999.0,  999.0,  999.0,  999.0,  999.0,  999.0,  999.0,  999.0,  999.0,  999.0,  999.0,  999.0,  999.0,  999.0,    0.5,   -0.8,   -3.3,   -2.5,   -1.6,  999.0,  999.0,  999.0,  999.0,  999.0,  999.0,  999.0,  999.0,  999.0,    1.7,  999.0,  999.0,  999.0,  999.0,  999.0,  999.0,  999.0
2005/12/12 04:40,    4.0,    5.1,    5.3,    5.8,    4.6,    3.6,    3.8,    3.6,    3.4,    1.7,    1.5,    2.1,    1.8,    1.8,    1.7,    1.1,    1.8,    2.6,    3.7,    3.8,    4.1,    4.2,    3.3,    3.0,    3.1,    3.6,    4.0,    3.3,    3.7,    3.6,    4.3,    4.1,    3.6,    4.0,    4.2,    3.7,    2.9,    2.8,    3.3,    3.1,    2.9,    2.0,    2.4,    2.6,    2.5,    3.2,    3.1,    3.4,    3.6,    4.4,    5.3,    5.8,    6.6,    6.7,    6.5,    6.4,    6.3,    5.7,    4.8,    5.2,    5.6,    5.1,    2.5,    2.3,    2.9,    2.0,    1.6,    1.4,    0.6,    0.7,  999.0,  999.0,  999.0,  999.0,  999.0,  999.0,  999.0,  999.0,  999.0,  999.0,  999.0,  999.0,  999.0,  999.0,  999.0,  999.0,  999.0,  999.0,  999.0,  999.0,  999.0,  999.0,  999.0,  999.0,  999.0,  999.0,  999.0,  999.0,  999.0,   -1.1,   -3.1,   -2.6,   -2.1,  999.0,  999.0,  999.0,  999.0,  999.0,  999.0,  999.0,  999.0,  999.0,  999.0,  999.0,  999.0,  999.0,  999.0,  999.0,  999.0,  999.0
2005/12/12 04:50,    3.7,    4.9,    5.4,    6.2,    5.6,    3.9,    3.8,    3.4,    3.2,    2.0,    1.6,    2.0,    1.5,    0.9,    1.1,    1.1,    1.1,    2.3,    3.3,    3.8,    4.1,    4.2,    3.5,    3.1,    3.3,    3.6,    3.7,    3.0,    3.4,    3.1,    4.1,    3.9,    3.0,    2.8,    2.9,    3.4,    2.3,    2.5,    2.9,    3.2,    2.6,    2.1,    2.5,    3.0,    3.0,    3.5,    3.7,    4.1,    4.6,    4.7,    5.4,    5.9,    6.6,    6.5,    6.6,    6.6,    6.4,    5.6,    4.7,    5.1,    6.2,    5.5,    2.8,    2.0,    2.5,    1.6,    2.0,    1.5,    0.0,  999.0,  999.0,  999.0,  999.0,  999.0,  999.0,  999.0,  999.0,  999.0,    1.8,  999.0,  999.0,  999.0,  999.0,  999.0,  999.0,  999.0,  999.0,   -0.9,  999.0,  999.0,  999.0,  999.0,  999.0,  999.0,  999.0,  999.0,  999.0,  999.0,  999.0,   -0.6,   -2.6,   -2.4,   -2.0,    0.7,  999.0,  999.0,  999.0,  999.0,  999.0,   -0.1,  999.0,  999.0,  999.0,  999.0,  999.0,  999.0,  999.0,  999.0,  999.0,  999.0
2005/12/12 05:00,    4.1,    4.8,    5.5,    6.4,    6.1,    4.3,    3.9,    3.3,    2.9,    2.5,    2.1,    1.6,    1.5,    0.8,    1.0,    1.0,    1.0,    2.1,    3.0,    3.8,    4.7,    4.2,    3.4,    3.3,    3.1,    3.3,    2.6,    1.6,    2.1,    2.4,    2.8,    2.7,    2.1,    1.9,    1.3,    2.3,    2.3,    2.0,    2.4,    3.0,    2.4,    2.2,    2.6,    3.4,    3.8,    4.6,    4.5,    4.8,    5.2,    5.2,    5.5,    6.3,    6.6,    6.8,    7.1,    7.0,    7.0,    5.6,    5.0,    5.2,    7.1,  999.0,  999.0,  999.0,    2.6,    2.8,    1.6,    0.8,    0.4,    1.4,  999.0,    3.4,  999.0,  999.0,  999.0,  999.0,  999.0,  999.0,  999.0,    0.9,  999.0,  999.0,  999.0,    1.4,   -1.2,  999.0,  999.0,  999.0,  999.0,  999.0,  999.0,  999.0,  999.0,  999.0,  999.0,  999.0,  999.0,  999.0,  999.0,   -0.4,   -2.3,   -2.3,   -1.3,    0.4,  999.0,  999.0,  999.0,  999.0,  999.0,  999.0,  999.0,  999.0,  999.0,  999.0,  999.0,  999.0,  999.0,  999.0,  999.0,  999.0
2005/12/12 05:10,    4.3,    4.5,    5.7,    6.0,    6.0,    4.9,    4.2,    3.1,    2.5,    2.6,    2.1,    1.2,    1.3,    0.8,    0.5,    0.7,    1.1,    1.9,    2.7,    3.8,    5.2,    4.1,    3.5,    3.4,    3.3,    3.1,    2.4,    1.4,    1.4,    1.6,    2.3,    2.1,    1.8,    1.9,    1.5,    2.1,    2.5,    1.9,    2.2,    2.8,    2.8,    2.6,    2.9,    3.5,    4.0,    4.8,    4.4,    4.8,    5.2,    5.1,    5.5,    6.4,    6.7,    7.2,    7.3,    7.2,    7.2,    5.1,    4.8,    5.5,  999.0,  999.0,  999.0,  999.0,    2.6,    3.1,    1.6,    0.9,    0.5,  999.0,    2.0,  999.0,  999.0,  999.0,  999.0,  999.0,  999.0,  999.0,    1.6,  999.0,  999.0,  999.0,  999.0,  999.0,   -0.7,  999.0,  999.0,  999.0,  999.0,  999.0,  999.0,  999.0,  999.0,  999.0,  999.0,  999.0,  999.0,  999.0,  999.0,    0.2,   -2.5,   -2.2,   -0.6,    1.3,  999.0,  999.0,  999.0,  999.0,  999.0,  999.0,  999.0,   -0.2,  999.0,  999.0,  999.0,  999.0,  999.0,  999.0,  999.0,  999.0
2005/12/12 05:20,    5.3,    4.7,    5.5,    5.4,    5.6,    5.2,    4.6,    4.0,    3.0,    3.4,    2.9,    1.1,    0.7,    0.4,   -0.1,    0.5,    0.9,    1.9,    2.5,    3.5,    5.1,    4.8,    3.7,    3.8,    4.0,    3.4,    2.7,    1.7,    1.8,    2.1,    2.1,    2.2,    2.5,    2.7,    2.8,    2.7,    3.0,    2.6,    3.0,    3.6,    3.6,    3.5,    3.4,    3.5,    3.9,    4.4,    4.0,    3.9,    4.3,    4.7,    5.1,    5.9,    6.1,    6.5,    6.7,    6.6,    6.5,    5.3,    4.8,    5.8,    7.4,    7.0,    4.1,    2.8,    2.9,    2.9,    1.8,    1.0,    0.6,    1.4,  999.0,    2.0,  999.0,  999.0,    2.3,  999.0,    0.6,  999.0,  999.0,  999.0,  999.0,  999.0,  999.0,    1.3,  999.0,  999.0,  999.0,  999.0,  999.0,  999.0,  999.0,  999.0,  999.0,  999.0,  999.0,  999.0,  999.0,  999.0,   -0.0,    0.9,   -2.1,   -2.1,   -0.3,    1.6,  999.0,  999.0,  999.0,  999.0,  999.0,  999.0,  999.0,  999.0,  999.0,  999.0,  999.0,  999.0,  999.0,  999.0,  999.0,  999.0
2005/12/12 05:30,    4.9,    4.4,    5.0,    5.0,    5.1,    4.9,    4.8,    4.5,    3.5,    3.9,    3.4,    1.8,    0.3,    0.3,   -0.1,    0.3,    0.9,    1.9,    2.6,    3.2,    4.2,    6.1,    5.6,    4.5,    5.0,    4.3,    3.0,    2.2,    2.2,    2.6,    2.8,    3.0,    3.3,    3.3,    3.8,    3.8,    3.7,    3.5,    3.5,    4.2,    4.3,    3.6,    3.6,    3.2,    2.9,    3.3,    2.9,    3.2,    3.6,    4.1,    4.6,    5.5,    5.7,    6.2,    6.2,    6.1,    6.1,    5.6,    5.2,    6.1,    7.0,    5.0,    3.9,    3.0,    3.2,    2.4,    1.6,    1.1,  999.0,    1.4,    1.7,  999.0,  999.0,    2.2,  999.0,  999.0,    0.4,  999.0,  999.0,  999.0,  999.0,  999.0,  999.0,  999.0,  999.0,  999.0,  999.0,  999.0,  999.0,  999.0,  999.0,  999.0,  999.0,  999.0,  999.0,  999.0,  999.0,  999.0,   -0.5,    1.1,   -1.9,   -2.1,   -0.1,    2.5,  999.0,  999.0,  999.0,  999.0,  999.0,  999.0,  999.0,  999.0,  999.0,  999.0,  999.0,  999.0,  999.0,  999.0,  999.0,  999.0
2005/12/12 05:40,    4.9,    4.2,    4.5,    4.2,    4.0,    4.6,    4.6,    4.0,    3.5,    3.6,    3.2,    2.0,    0.0,    0.2,   -0.0,    0.2,    1.1,    2.1,    2.9,    3.6,    3.9,    6.3,    6.1,    4.9,    5.0,    4.8,    3.9,    2.6,    2.3,    2.8,    3.2,    3.6,    3.5,    3.7,    4.3,    4.2,    4.2,    4.2,    4.2,    4.7,    4.7,    3.7,    3.5,    2.9,    2.7,    2.7,    2.6,    3.0,    3.5,    3.9,    4.4,    5.4,    5.7,    6.1,    6.1,    6.4,    6.7,    6.7,    6.5,    6.2,    7.0,    6.4,    3.8,    3.5,    3.5,    2.4,    1.2,    1.1,    0.9,    0.8,  999.0,  999.0,  999.0,  999.0,  999.0,  999.0,   -0.0,  999.0,  999.0,  999.0,  999.0,  999.0,  999.0,  999.0,  999.0,  999.0,  999.0,  999.0,  999.0,  999.0,  999.0,  999.0,  999.0,    3.4,  999.0,  999.0,  999.0,  999.0,  999.0,    0.2,   -1.6,   -2.0,   -0.1,    2.7,  999.0,    3.6,  999.0,  999.0,  999.0,  999.0,  999.0,  999.0,  999.0,  999.0,  999.0,  999.0,  999.0,  999.0,  999.0,  999.0
2005/12/12 05:50,  999.0,    3.5,    3.0,    2.7,    2.7,    3.6,    4.0,    3.4,    3.1,    2.9,    3.1,    2.7,   -0.2,    0.1,   -0.0,    0.1,    1.1,    2.0,    3.1,    3.5,    3.8,    5.9,    6.5,    5.2,    4.7,    4.8,    4.1,    3.4,    2.2,    3.1,    3.4,    3.8,    3.7,    3.9,    4.0,    4.0,    4.4,    4.8,    5.1,    5.1,    5.5,    3.5,    3.5,    2.9,  999.0,    2.7,    2.3,    3.1,    3.6,    4.2,    4.7,    5.7,    5.9,    6.1,    6.3,    6.6,    7.2,    7.6,    7.4,    7.0,    7.0,    7.2,    3.6,    3.3,    2.9,    2.3,    1.3,    1.5,    0.7,    0.6,  999.0,  999.0,  999.0,  999.0,  999.0,  999.0,  999.0,  999.0,  999.0,  999.0,  999.0,  999.0,  999.0,  999.0,  999.0,  999.0,  999.0,  999.0,  999.0,  999.0,  999.0,  999.0,  999.0,  999.0,  999.0,  999.0,  999.0,  999.0,    0.9,   -0.6,   -1.4,   -1.8,   -0.3,    2.1,  999.0,    3.5,  999.0,  999.0,  999.0,  999.0,  999.0,  999.0,  999.0,  999.0,  999.0,  999.0,  999.0,  999.0,  999.0,  999.0
2005/12/12 06:00,    4.2,    2.9,    2.4,    1.8,    1.9,    2.7,    3.7,    2.9,    2.3,    2.3,    2.8,    2.5,   -0.3,   -0.2,   -0.3,  999.0,    1.3,    1.8,    2.9,    3.3,    3.8,    5.3,    6.7,    5.3,    5.2,    4.7,    4.1,    3.7,    2.4,    3.2,    3.3,    3.6,    3.7,    3.5,    3.4,    3.8,    4.2,    5.0,    5.2,    5.3,    5.9,    3.4,    3.5,    3.2,    2.8,    2.6,    2.3,    3.1,    3.7,    4.4,    4.9,    5.7,    6.0,    6.2,    6.5,    6.8,    7.3,    7.6,    7.5,    7.5,    7.3,    6.9,    3.3,    3.3,    3.1,    1.9,    1.4,    1.6,    0.9,  999.0,    0.2,  999.0,  999.0,  999.0,  999.0,  999.0,  999.0,  999.0,    0.2,  999.0,  999.0,  999.0,  999.0,  999.0,  999.0,  999.0,  999.0,    6.1,  999.0,  999.0,  999.0,  999.0,  999.0,  999.0,  999.0,  999.0,  999.0,  999.0,    0.2,   -0.8,   -1.9,   -1.6,   -0.8,    1.3,  999.0,    4.3,  999.0,  999.0,  999.0,  999.0,  999.0,  999.0,  999.0,  999.0,  999.0,  999.0,  999.0,  999.0,  999.0,  999.0
2005/12/12 06:10,    2.8,    2.5,    1.7,    1.7,    2.2,    2.6,    3.7,    3.0,    2.5,    2.6,    2.4,    1.6,   -0.3,   -0.1,   -0.1,    0.5,    1.5,    1.3,    2.6,    3.3,    3.8,    5.0,    6.9,    5.8,    5.2,    4.5,    3.5,    3.2,    2.8,    3.2,    3.2,    3.6,    3.4,    3.2,    3.3,    3.5,    3.9,    4.7,    5.1,    5.3,    6.0,    3.2,    3.3,    3.2,    2.9,    2.5,    2.1,    2.9,    3.7,    4.3,    5.2,    5.8,    6.1,    6.5,    6.9,    7.2,    7.5,    7.9,    7.7,    7.9,    7.7,    6.9,    3.6,    3.2,    3.1,    1.5,    1.5,    2.0,    0.3,    1.0,   -0.3,    0.7,  999.0,  999.0,  999.0,   -0.2,  999.0,    0.5,  999.0,  999.0,  999.0,  999.0,  999.0,  999.0,  999.0,  999.0,  999.0,  999.0,  999.0,  999.0,  999.0,  999.0,  999.0,  999.0,  999.0,  999.0,  999.0,  999.0,   -0.2,   -1.1,   -1.9,   -1.6,   -1.3,    1.0,  999.0,    4.4,  999.0,  999.0,  999.0,  999.0,  999.0,  999.0,  999.0,  999.0,  999.0,  999.0,  999.0,  999.0,  999.0,  999.0
2005/12/12 06:20,    2.5,  999.0,    2.0,    2.1,    2.1,    2.2,    3.0,    3.4,    2.4,    3.0,    2.4,    0.6,   -0.5,    0.3,    0.3,    1.1,    1.8,    1.4,    2.1,    3.6,    4.5,    6.0,    7.5,    6.1,    5.4,    4.0,    2.9,    2.7,    3.0,    3.2,    3.7,    4.0,    3.9,    3.8,    3.6,    3.6,    4.1,    4.4,    5.0,    5.1,    5.6,    2.7,  999.0,    3.1,    2.6,    1.8,    1.7,    2.7,    3.6,    4.5,    5.2,    5.8,    6.2,    6.5,    6.9,    7.4,    7.6,    7.8,    7.8,    8.1,    7.8,    7.2,    3.9,    2.9,    3.3,    1.0,    1.6,    1.7,    1.3,    1.5,    1.0,  999.0,  999.0,  999.0,  999.0,   -0.4,   -0.9,  999.0,    1.1,  999.0,  999.0,  999.0,  999.0,  999.0,  999.0,  999.0,  999.0,  999.0,  999.0,  999.0,  999.0,  999.0,  999.0,  999.0,  999.0,  999.0,  999.0,  999.0,   -0.5,   -0.9,   -1.6,   -1.7,   -1.2,    1.4,  999.0,    4.8,  999.0,  999.0,  999.0,  999.0,  999.0,  999.0,  999.0,  999.0,  999.0,  999.0,  999.0,  999.0,  999.0,  999.0
2005/12/12 06:30,    2.7,    3.3,    2.6,    2.5,    2.0,    2.1,    2.8,    2.1,    1.9,    2.2,    1.8,    0.1,   -0.5,    0.2,    0.9,    1.0,    1.5,    1.3,    1.5,    2.9,    3.8,    6.2,    7.0,    6.3,    5.9,    3.8,    2.9,    2.1,    2.8,    3.2,    4.2,    4.1,    4.5,    4.4,    4.1,    4.3,    4.5,    4.7,    5.3,    5.3,    5.5,    2.9,    2.8,    2.9,    2.1,    1.2,    1.4,    2.6,    3.6,    4.9,    5.6,    6.0,    6.2,    6.7,    7.1,    7.7,    7.5,    7.7,    7.8,    7.9,    7.9,    7.7,    4.0,    1.8,    2.6,    1.1,    1.3,    1.5,    1.8,    1.7,    1.0,    1.4,  999.0,  999.0,  999.0,   -0.4,   -0.9,  999.0,  999.0,  999.0,  999.0,  999.0,  999.0,  999.0,  999.0,  999.0,  999.0,  999.0,  999.0,  999.0,  999.0,  999.0,  999.0,  999.0,  999.0,  999.0,  999.0,  999.0,   -0.0,   -0.4,   -1.0,   -2.3,   -0.1,    1.7,    4.0,    4.5,  999.0,  999.0,  999.0,  999.0,  999.0,  999.0,  999.0,  999.0,  999.0,  999.0,  999.0,  999.0,  999.0,  999.0
2005/12/12 06:40,    2.4,    2.6,    2.8,    2.2,    2.2,    2.5,    3.2,    2.3,    1.0,    1.8,    1.4,    0.1,   -0.6,   -0.1,    0.7,    0.8,    0.9,    0.2,   -0.0,    1.8,    2.3,    4.3,    5.2,    5.7,    5.5,    4.0,    3.3,    1.4,    2.5,    3.3,    4.3,    4.5,    5.3,    5.1,    5.2,    5.3,    5.5,    5.4,    5.4,    5.6,    5.5,    2.9,    2.8,    2.6,    1.7,    1.2,    1.4,    3.1,    5.2,    6.1,    6.4,    6.7,    7.1,    8.0,    8.1,    8.2,    8.0,    8.3,    8.1,    8.0,    8.4,    8.2,    4.0,    2.8,    2.3,    1.4,    1.4,    2.1,    2.4,  999.0,    1.0,  999.0,  999.0,  999.0,   -0.5,  999.0,  999.0,    0.0,  999.0,  999.0,  999.0,  999.0,  999.0,  999.0,  999.0,  999.0,  999.0,  999.0,  999.0,  999.0,  999.0,  999.0,  999.0,  999.0,  999.0,  999.0,  999.0,  999.0,  999.0,    0.1,   -0.9,   -1.7,    0.5,    1.3,    5.2,    4.4,  999.0,  999.0,  999.0,  999.0,  999.0,  999.0,  999.0,  999.0,  999.0,  999.0,  999.0,  999.0,  999.0,  999.0
2005/12/12 06:50,    2.2,    2.7,    3.2,    2.6,    2.3,    2.6,    3.3,    2.6,    1.0,    1.8,    1.1,    0.3,   -0.2,   -0.1,    0.4,    0.4,    0.1,   -0.4,   -0.5,   -0.1,    1.5,    2.3,    3.6,    4.6,    5.2,    4.0,    3.1,    1.9,    2.3,    3.6,    4.3,    4.8,    5.8,    5.4,    5.8,    5.8,    6.0,    5.8,    5.4,    5.7,    4.8,    3.0,    2.9,    2.6,    1.5,    1.2,    1.8,    3.8,    6.0,    6.1,    6.5,    6.8,    7.7,    8.6,    8.3,    8.2,    8.1,    8.2,    8.1,    7.7,    8.1,    8.0,    4.5,    3.4,    2.1,    2.0,    1.4,    1.9,    2.6,    1.7,    0.4,  999.0,  999.0,  999.0,   -0.4,   -1.4,  999.0,    0.1,  999.0,  999.0,  999.0,  999.0,  999.0,  999.0,  999.0,  999.0,  999.0,  999.0,  999.0,  999.0,  999.0,  999.0,  999.0,  999.0,  999.0,  999.0,  999.0,  999.0,  999.0,    0.3,   -0.6,   -2.1,    0.5,    1.2,  999.0,    4.2,  999.0,  999.0,  999.0,  999.0,  999.0,  999.0,  999.0,  999.0,  999.0,  999.0,  999.0,  999.0,  999.0,  999.0
2005/12/12 07:00,    2.8,    3.4,    3.1,    2.6,    2.4,    2.5,    3.5,    2.4,    1.1,    1.9,    1.3,    1.1,    0.5,   -0.6,    0.2,    0.4,   -0.1,   -1.0,   -1.2,   -1.1,    0.4,    1.2,    2.6,    4.0,    4.5,    4.4,    3.6,    3.1,    2.8,    3.7,    4.5,    5.3,    6.2,    5.6,    6.2,    6.1,    6.1,    5.7,    5.1,    5.2,    4.1,    2.8,    2.6,    2.0,    1.5,    1.6,    2.1,    4.0,    5.7,    5.7,    6.2,    6.7,    7.7,    8.6,    7.9,    7.8,    7.7,    7.9,    7.5,    7.1,    6.9,    6.8,    3.6,    3.2,    2.2,    2.2,    1.3,    2.1,    2.8,    2.0,    0.9,  999.0,   -0.1,  999.0,   -0.6,   -1.5,   -1.9,  999.0,  999.0,  999.0,  999.0,  999.0,  999.0,  999.0,  999.0,  999.0,  999.0,  999.0,  999.0,  999.0,  999.0,  999.0,  999.0,  999.0,  999.0,  999.0,  999.0,  999.0,  999.0,    0.6,   -0.6,   -1.7,    0.3,    1.3,  999.0,    4.1,  999.0,  999.0,  999.0,  999.0,  999.0,  999.0,  999.0,  999.0,  999.0,  999.0,  999.0,  999.0,  999.0,  999.0
2005/12/12 07:10,    3.1,    3.5,    3.1,    2.6,    2.2,    2.3,    2.9,    1.4,    0.8,    1.9,    2.0,    2.1,    1.3,    0.2,    0.6,    0.7,    0.1,   -0.8,   -1.7,   -1.8,   -0.8,    0.2,    1.3,    3.1,    3.9,    4.4,    4.3,    3.7,    3.6,    4.5,    5.2,    5.9,    6.3,    5.7,    5.9,    6.1,    5.8,    5.4,    4.5,    4.5,    3.9,    2.6,    2.4,    2.1,    1.7,    2.0,    2.5,    4.5,    5.5,    5.6,    6.2,    6.8,    7.8,    8.4,    7.9,    7.2,    7.2,    7.5,    6.8,    6.9,    6.5,    6.3,    2.5,    2.6,    2.2,    2.2,    1.7,    0.8,  999.0,    2.8,    0.3,  999.0,  999.0,  999.0,  999.0,  999.0,   -1.6,   -1.5,    0.0,  999.0,  999.0,  999.0,  999.0,  999.0,  999.0,  999.0,  999.0,  999.0,  999.0,  999.0,  999.0,  999.0,  999.0,  999.0,  999.0,  999.0,  999.0,  999.0,  999.0,    0.4,   -0.8,   -2.4,    0.3,    1.3,    4.2,    3.9,  999.0,  999.0,  999.0,  999.0,  999.0,  999.0,  999.0,  999.0,  999.0,  999.0,  999.0,  999.0,  999.0,  999.0
2005/12/12 07:20,    2.1,    3.1,    2.7,    2.9,    2.0,    1.9,    2.3,    0.9,    0.3,    1.4,    2.4,    2.6,    1.6,    0.7,    0.9,    0.8,    0.0,   -1.4,   -1.9,   -1.9,   -1.1,   -0.6,    1.0,    2.2,    3.1,    3.9,    4.6,    3.4,    3.6,    5.0,    5.6,    6.0,    6.2,    5.4,    4.9,    5.3,    5.2,    4.4,    3.8,    3.9,    3.6,    2.4,    2.4,    2.4,    2.4,    2.8,    3.9,    5.8,    6.0,    6.2,    7.0,    7.5,    8.1,    8.6,    8.0,    7.3,    7.3,    7.6,    7.5,    7.1,    6.3,    6.1,    2.0,    1.9,    2.4,    2.2,    1.9,    1.0,  999.0,  999.0,    0.3,  999.0,  999.0,  999.0,  999.0,   -1.8,   -1.2,  999.0,   -0.6,  999.0,  999.0,  999.0,  999.0,  999.0,  999.0,  999.0,  999.0,  999.0,  999.0,  999.0,  999.0,  999.0,  999.0,  999.0,  999.0,  999.0,  999.0,  999.0,  999.0,    0.1,   -0.7,   -1.6,    0.3,    1.4,    3.9,    4.4,  999.0,  999.0,  999.0,  999.0,  999.0,  999.0,  999.0,  999.0,  999.0,  999.0,  999.0,  999.0,  999.0,  999.0
2005/12/12 07:30,    1.9,    2.6,    2.1,    2.7,    1.6,    1.8,    2.1,    1.0,    0.7,    1.1,    2.9,  999.0,    1.8,    1.0,    0.4,    0.4,   -0.6,   -1.6,   -2.0,   -1.6,   -1.1,   -0.5,    1.3,    1.8,    2.7,    3.2,    4.0,    3.6,    2.9,    4.6,    5.1,    5.7,    5.9,    5.2,    4.1,    4.0,    4.1,    4.2,    3.4,    3.7,    3.4,    2.5,    2.5,    2.8,    2.8,    3.6,    4.9,    6.2,    6.6,    6.9,    7.5,    8.6,    9.0,    8.9,    8.4,    8.4,    7.2,    7.7,    5.9,    7.1,    5.7,    2.9,    0.7,    1.4,    2.3,    2.4,    2.1,    0.4,  999.0,    1.2,  999.0,  999.0,  999.0,   -0.4,  999.0,  999.0,   -0.8,  999.0,   -2.2,  999.0,  999.0,  999.0,  999.0,  999.0,  999.0,  999.0,  999.0,  999.0,  999.0,  999.0,  999.0,  999.0,  999.0,  999.0,  999.0,  999.0,  999.0,  999.0,  999.0,   -0.8,   -1.0,   -1.3,    0.2,    2.4,    4.2,    4.4,  999.0,  999.0,  999.0,  999.0,  999.0,  999.0,  999.0,  999.0,  999.0,  999.0,  999.0,  999.0,  999.0,  999.0
2005/12/12 07:40,    2.0,    2.2,    1.9,    2.8,    3.1,    2.5,    2.3,    1.6,    1.3,    1.0,    2.4,    2.7,    1.4,    0.7,    0.4,    0.1,   -1.2,   -1.8,   -2.0,   -1.1,   -0.3,    0.3,    1.5,    2.2,    2.7,    3.3,    4.3,    3.5,    2.7,    4.1,    4.8,    5.4,    5.5,    4.7,    3.6,    3.0,    3.2,    3.8,    3.4,    3.5,    3.3,    2.5,    2.8,    3.2,    3.0,    3.7,    4.9,    6.3,    6.6,    6.9,    7.5,    9.0,    9.3,    9.1,    9.5,    9.2,    7.8,    7.0,    5.8,    6.5,    4.9,    3.4,    1.9,    2.2,    2.7,    1.0,  999.0,  999.0,  999.0,  999.0,  999.0,   -1.1,  999.0,  999.0,   -0.5,  999.0,   -0.7,  999.0,  999.0,  999.0,  999.0,  999.0,  999.0,  999.0,  999.0,  999.0,  999.0,  999.0,  999.0,  999.0,  999.0,  999.0,  999.0,  999.0,  999.0,  999.0,  999.0,  999.0,   -1.4,   -0.7,   -0.8,   -0.7,    0.7,    2.4,    4.7,    4.5,  999.0,  999.0,  999.0,   -1.5,  999.0,  999.0,   -1.4,  999.0,  999.0,  999.0,  999.0,  999.0,  999.0,  999.0
2005/12/12 07:50,    3.3,    2.1,  999.0,    3.0,    3.4,    3.1,    3.0,    3.0,    1.8,    0.8,    0.8,    1.2,    0.5,    0.1,    0.2,   -0.3,   -1.6,   -1.9,   -1.6,   -0.8,    0.6,    1.3,    2.0,    2.7,    2.9,    3.8,    4.6,    4.0,    3.4,    3.4,    4.4,    5.0,    4.8,    4.3,    3.6,    2.9,    2.7,    4.0,    3.6,    4.0,    4.0,    3.2,    3.1,    3.0,    3.2,    4.1,    4.9,    5.9,    6.5,    6.9,    7.3,    8.9,    9.0,    8.8,    9.5,    9.2,    7.9,    6.6,    6.0,    5.9,    5.4,    3.7,    2.4,    2.2,    2.5,    0.4,    0.0,  999.0,    0.4,    0.3,    0.3,  999.0,   -1.7,   -0.5,    0.0,   -1.2,   -0.9,  999.0,   -2.3,  999.0,  999.0,  999.0,  999.0,  999.0,  999.0,  999.0,  999.0,  999.0,  999.0,  999.0,    0.8,  999.0,  999.0,  999.0,  999.0,  999.0,  999.0,  999.0,   -1.6,   -0.4,   -0.3,   -0.3,    1.0,    3.1,    4.9,    4.2,  999.0,  999.0,  999.0,  999.0,   -1.5,  999.0,  999.0,  999.0,  999.0,  999.0,  999.0,  999.0,  999.0,  999.0
2005/12/12 08:00,    4.9,    2.1,    1.7,    2.7,    2.8,    3.1,    3.3,    3.1,    2.0,    0.7,    0.6,    0.3,    0.1,   -0.0,    0.1,   -0.3,   -1.4,  999.0,   -1.1,   -0.5,    1.6,    2.2,    2.2,    3.0,    3.3,    4.0,    4.8,    4.3,    4.0,    3.9,    4.6,    4.9,    4.5,    4.6,    3.8,    3.0,    2.7,    3.7,    3.4,    3.8,    3.8,    3.2,    3.2,    2.9,    3.4,    4.4,    4.9,    5.9,    6.5,    6.8,    7.3,    8.8,    8.9,    8.7,    9.4,    9.3,    8.0,    6.4,    5.9,    5.2,    5.2,    4.1,    2.0,    2.3,    2.8,    0.5,    0.2,    0.2,    0.2,   -0.2,   -0.5,  999.0,   -1.6,   -0.4,  999.0,   -1.7,   -1.4,   -2.9,   -2.6,  999.0,  999.0,  999.0,  999.0,  999.0,  999.0,  999.0,  999.0,  999.0,  999.0,  999.0,  999.0,  999.0,  999.0,  999.0,  999.0,  999.0,  999.0,  999.0,   -1.4,   -0.2,    0.1,    0.1,    1.1,    3.6,    5.0,    4.5,  999.0,  999.0,  999.0,  999.0,  999.0,  999.0,  999.0,  999.0,  999.0,  999.0,  999.0,  999.0,  999.0,  999.0
2005/12/12 08:10,    4.4,    2.0,    1.6,    2.4,    2.9,    3.1,    3.2,    3.3,    2.6,    1.3,    0.2,    0.0,    0.3,    0.2,   -0.1,   -0.5,   -1.1,   -1.3,   -1.2,    0.7,    2.1,    2.5,    2.5,    2.4,    3.2,    4.0,    5.1,    4.8,    4.8,    4.6,    4.7,    5.2,    4.8,    4.6,    4.0,    3.0,    2.7,    3.2,    3.1,    3.4,    2.4,    2.6,    2.5,    2.4,    3.3,    4.6,    5.2,    6.4,    7.0,    7.3,    7.8,    8.9,    9.3,    9.0,    9.7,    9.0,    8.4,    6.7,    6.4,    4.8,    4.9,    4.7,    1.9,    2.2,    2.7,    0.9,    0.4,    0.4,    0.1,    0.2,    0.5,  999.0,   -0.6,  999.0,   -0.7,   -1.2,   -2.0,   -1.0,   -1.4,    0.4,  999.0,  999.0,  999.0,  999.0,  999.0,  999.0,  999.0,  999.0,  999.0,  999.0,  999.0,  999.0,  999.0,  999.0,  999.0,  999.0,  999.0,  999.0,   -1.5,   -0.4,    0.1,   -0.0,    1.1,    4.4,    5.2,    5.0,  999.0,  999.0,  999.0,  999.0,  999.0,  999.0,  999.0,  999.0,  999.0,  999.0,  999.0,  999.0,  999.0,  999.0
2005/12/12 08:20,    3.9,    2.2,    1.8,    2.4,    2.9,    3.1,    3.5,    3.2,    4.1,    2.5,    0.9,    0.1,    0.5,    0.4,    0.2,   -0.5,   -2.3,   -1.8,   -1.0,    0.8,    2.4,    2.6,    2.4,    2.8,    3.3,    4.1,    5.2,    4.9,    5.2,    5.3,    4.8,    5.0,    4.9,    4.1,    3.9,    3.0,    2.8,    3.0,    2.8,    3.2,    2.4,    2.1,    2.0,    2.2,    3.3,    4.9,    5.4,    7.0,    7.6,    8.0,    8.5,    9.3,    9.9,    9.7,    9.6,    8.8,    8.7,    6.8,    6.5,    4.7,    4.8,    4.7,    2.4,    2.4,    2.5,    1.1,    1.1,    0.4,    0.2,  999.0,  999.0,  999.0,  999.0,   -0.9,   -0.4,   -0.3,   -1.0,  999.0,  999.0,  999.0,  999.0,  999.0,  999.0,  999.0,  999.0,  999.0,  999.0,  999.0,  999.0,  999.0,  999.0,  999.0,  999.0,  999.0,  999.0,  999.0,  999.0,  999.0,  999.0,   -0.9,   -0.2,   -0.5,    1.0,    3.7,    5.0,    5.2,  999.0,  999.0,  999.0,  999.0,  999.0,  999.0,  999.0,  999.0,  999.0,  999.0,  999.0,  999.0,  999.0,  999.0
2005/12/12 08:30,    3.9,    2.2,    2.3,    2.4,  999.0,    2.7,    3.3,    3.4,    4.0,    3.3,    2.4,    0.8,    0.6,    0.5,    0.1,   -0.8,   -2.4,   -2.0,   -1.1,    1.3,    2.5,    2.9,    2.2,    2.8,    3.3,    4.1,    4.8,    4.7,    5.1,    5.1,    4.5,    4.6,    4.1,    3.5,    3.5,    2.8,    2.8,    3.2,    2.9,    3.4,    2.7,    2.3,    2.0,    2.1,    3.4,    4.9,    5.6,    7.1,    7.8,    8.1,    8.7,    9.4,    9.9,    9.7,    9.3,    8.4,    8.3,    7.0,    6.7,    5.0,    4.8,    4.4,    2.5,    3.0,    2.0,    1.4,    1.2,    0.3,  999.0,  999.0,  999.0,  999.0,   -0.8,   -1.3,  999.0,  999.0,  999.0,  999.0,   -0.0,  999.0,  999.0,  999.0,  999.0,  999.0,  999.0,  999.0,  999.0,  999.0,  999.0,  999.0,  999.0,  999.0,  999.0,  999.0,  999.0,  999.0,  999.0,  999.0,  999.0,   -1.3,   -0.4,   -0.6,    0.6,    2.6,    4.4,    5.2,  999.0,  999.0,  999.0,  999.0,  999.0,  999.0,  999.0,  999.0,  999.0,  999.0,  999.0,  999.0,  999.0,  999.0
2005/12/12 08:40,  999.0,  999.0,  999.0,  999.0,  999.0,  999.0,  999.0,  999.0,  999.0,  999.0,  999.0,  999.0,  999.0,  999.0,  999.0,  999.0,  999.0,  999.0,  999.0,  999.0,  999.0,  999.0,  999.0,  999.0,  999.0,  999.0,  999.0,  999.0,  999.0,  999.0,  999.0,  999.0,  999.0,  999.0,  999.0,  999.0,  999.0,  999.0,  999.0,  999.0,  999.0,  999.0,  999.0,  999.0,  999.0,  999.0,  999.0,  999.0,  999.0,  999.0,  999.0,  999.0,  999.0,  999.0,  999.0,  999.0,  999.0,  999.0,  999.0,  999.0,  999.0,  999.0,  999.0,  999.0,  999.0,  999.0,  999.0,  999.0,  999.0,  999.0,  999.0,  999.0,  999.0,  999.0,  999.0,  999.0,  999.0,  999.0,  999.0,  999.0,  999.0,  999.0,  999.0,  999.0,  999.0,  999.0,  999.0,  999.0,  999.0,  999.0,  999.0,  999.0,  999.0,  999.0,  999.0,  999.0,  999.0,  999.0,  999.0,  999.0,  999.0,  999.0,  999.0,  999.0,  999.0,  999.0,  999.0,  999.0,  999.0,  999.0,  999.0,  999.0,  999.0,  999.0,  999.0,  999.0,  999.0,  999.0,  999.0,  999.0
2005/12/12 08:50,  999.0,  999.0,  999.0,  999.0,  999.0,  999.0,  999.0,  999.0,  999.0,  999.0,  999.0,  999.0,  999.0,  999.0,  999.0,  999.0,  999.0,  999.0,  999.0,  999.0,  999.0,  999.0,  999.0,  999.0,  999.0,  999.0,  999.0,  999.0,  999.0,  999.0,  999.0,  999.0,  999.0,  999.0,  999.0,  999.0,  999.0,  999.0,  999.0,  999.0,  999.0,  999.0,  999.0,  999.0,  999.0,  999.0,  999.0,  999.0,  999.0,  999.0,  999.0,  999.0,  999.0,  999.0,  999.0,  999.0,  999.0,  999.0,  999.0,  999.0,  999.0,  999.0,  999.0,  999.0,  999.0,  999.0,  999.0,  999.0,  999.0,  999.0,  999.0,  999.0,  999.0,  999.0,  999.0,  999.0,  999.0,  999.0,  999.0,  999.0,  999.0,  999.0,  999.0,  999.0,  999.0,  999.0,  999.0,  999.0,  999.0,  999.0,  999.0,  999.0,  999.0,  999.0,  999.0,  999.0,  999.0,  999.0,  999.0,  999.0,  999.0,  999.0,  999.0,  999.0,  999.0,  999.0,  999.0,  999.0,  999.0,  999.0,  999.0,  999.0,  999.0,  999.0,  999.0,  999.0,  999.0,  999.0,  999.0,  999.0
2005/12/12 09:00,    2.2,    2.3,    2.8,    2.7,    2.1,    2.2,    3.2,    3.6,    2.7,    3.4,    3.1,    2.4,    1.9,    1.2,    0.2,   -1.2,   -0.9,   -2.0,   -2.1,   -0.7,    2.6,    3.9,    3.5,    3.3,    4.1,    4.2,    4.4,    3.7,    3.9,    3.5,    2.6,    2.0,    2.6,    2.8,    3.0,    3.4,    3.4,    3.0,    2.9,    3.1,    2.7,    1.6,    1.9,    2.2,    3.1,    5.0,    6.9,    7.7,    7.9,    8.4,    8.6,    8.2,    8.5,    7.8,    7.4,    7.2,    7.3,    6.8,    6.0,    4.4,    4.0,    3.7,    2.3,    1.8,    2.2,    1.8,    0.9,    0.1,   -0.9,  999.0,   -2.3,  999.0,  999.0,  999.0,  999.0,  999.0,  999.0,  999.0,  999.0,  999.0,  999.0,  999.0,  999.0,  999.0,  999.0,  999.0,  999.0,  999.0,  999.0,  999.0,  999.0,  999.0,  999.0,  999.0,  999.0,  999.0,  999.0,  999.0,  999.0,   -3.0,   -1.8,  999.0,    1.7,    2.1,  999.0,    6.1,  999.0,  999.0,  999.0,  999.0,  999.0,  999.0,  999.0,  999.0,  999.0,  999.0,  999.0,  999.0,  999.0,  999.0
2005/12/12 09:10,    2.1,  999.0,  999.0,    2.9,    2.3,    2.2,    3.6,    3.6,    2.6,    3.0,    3.0,    2.8,    1.9,    1.1,    0.2,   -1.0,   -0.8,   -2.0,   -1.5,   -0.0,    3.0,    3.9,    3.9,    4.1,    5.5,    4.6,    4.6,    4.0,    4.2,    3.6,    2.7,    1.8,    2.3,    3.0,    3.1,    3.2,    3.2,    2.9,    2.8,    3.0,    2.8,    1.7,    1.7,    1.9,    2.9,    4.4,    6.5,    7.0,    7.6,    8.1,    8.1,    7.9,    8.3,    7.7,    7.5,    7.1,    6.9,    6.6,    5.9,    4.3,    3.9,    3.8,    2.3,    1.6,    2.0,    1.6,    0.4,   -0.2,   -0.8,  999.0,  999.0,  999.0,  999.0,  999.0,  999.0,  999.0,  999.0,  999.0,  999.0,  999.0,  999.0,  999.0,  999.0,  999.0,  999.0,  999.0,  999.0,  999.0,  999.0,  999.0,  999.0,  999.0,  999.0,  999.0,  999.0,  999.0,  999.0,  999.0,  999.0,   -3.3,   -1.7,  999.0,    1.9,    2.6,  999.0,    6.6,  999.0,  999.0,  999.0,  999.0,  999.0,  999.0,  999.0,  999.0,  999.0,  999.0,  999.0,  999.0,  999.0,  999.0
2005/12/12 09:20,    1.8,    2.4,    3.5,    3.1,    1.8,    2.4,    3.2,    3.3,    2.8,    3.1,    3.3,    3.2,    2.1,    1.2,    0.0,   -1.0,   -0.8,   -2.0,   -1.1,    0.7,    2.8,    3.6,    3.8,    4.4,    5.5,    4.6,    4.8,    4.3,    4.5,    3.8,    2.6,    1.7,    2.0,    3.1,    3.1,    3.3,    3.2,    3.0,    2.8,    3.0,    2.8,    2.0,    1.6,    1.8,    2.3,    4.0,    5.7,    6.8,    7.3,    7.5,    7.5,    7.8,    8.4,    8.1,    7.6,    7.1,    6.8,    6.2,    5.8,    4.2,    3.8,    3.5,    2.6,    0.9,    1.3,    1.4,    0.2,    0.1,   -0.5,  999.0,  999.0,  999.0,  999.0,  999.0,  999.0,  999.0,  999.0,  999.0,  999.0,  999.0,  999.0,  999.0,  999.0,  999.0,  999.0,  999.0,  999.0,  999.0,  999.0,  999.0,  999.0,  999.0,  999.0,  999.0,  999.0,  999.0,  999.0,  999.0,  999.0,   -3.3,   -1.7,    0.6,    1.3,    2.8,    5.0,    6.1,  999.0,  999.0,  999.0,  999.0,  999.0,  999.0,  999.0,  999.0,  999.0,  999.0,  999.0,  999.0,  999.0,  999.0
2005/12/12 09:30,    2.0,    2.6,    3.7,    3.1,    1.7,    2.4,    2.6,    2.6,    3.0,    2.9,    3.7,    4.1,    2.8,    1.5,    0.0,   -0.8,   -0.9,   -1.7,   -0.6,    1.2,    2.5,    3.4,    3.6,    4.3,    4.9,    4.5,    5.0,    4.5,    3.8,    3.9,    2.2,    1.1,    1.6,    3.4,    3.4,    3.2,    2.8,    2.7,    2.1,    2.0,    2.0,    1.6,    1.5,    2.1,    2.6,    3.9,    5.9,    6.9,    6.9,    7.3,    7.4,    8.0,    8.7,    8.4,    7.4,    6.9,    6.6,    5.9,    5.2,    4.1,    3.9,    3.5,    2.8,    1.5,    1.3,    0.9,    0.1,    0.2,   -0.5,  999.0,  999.0,  999.0,  999.0,  999.0,  999.0,  999.0,  999.0,  999.0,  999.0,  999.0,  999.0,  999.0,  999.0,  999.0,  999.0,  999.0,  999.0,  999.0,  999.0,  999.0,  999.0,  999.0,  999.0,  999.0,  999.0,  999.0,  999.0,  999.0,  999.0,   -2.8,   -1.5,    1.1,    0.8,    2.9,    4.7,    5.8,  999.0,  999.0,  999.0,  999.0,  999.0,  999.0,  999.0,  999.0,  999.0,  999.0,  999.0,  999.0,  999.0,  999.0
2005/12/12 09:40,    2.0,    2.3,    3.2,    2.5,    1.8,    3.0,    3.0,    2.2,    3.1,    2.7,    4.1,    4.5,    3.3,    1.6,    0.3,   -0.6,   -1.0,   -1.7,   -0.5,    1.3,    2.0,    3.2,    3.5,    4.5,    5.0,    5.4,    4.9,    5.0,    4.0,    3.5,    2.0,    1.2,    1.7,    3.9,    3.6,    3.0,    1.9,    2.2,    1.7,    1.6,    1.7,    1.4,    1.2,    1.6,    2.9,    4.3,    6.0,    6.9,    6.8,    7.3,    7.4,    8.1,    8.5,    8.2,    7.3,    6.9,    6.4,    5.9,    5.1,    3.8,    3.8,    3.4,    2.2,    2.9,    2.0,    0.6,    0.2,    0.3,    0.0,  999.0,  999.0,  999.0,  999.0,  999.0,  999.0,   -1.1,  999.0,   -0.6,  999.0,  999.0,  999.0,    0.3,  999.0,  999.0,  999.0,  999.0,  999.0,  999.0,  999.0,  999.0,  999.0,  999.0,  999.0,  999.0,  999.0,  999.0,  999.0,  999.0,  999.0,   -2.6,   -1.3,    1.5,  999.0,    2.9,    4.6,    5.8,  999.0,  999.0,  999.0,  999.0,  999.0,  999.0,  999.0,  999.0,  999.0,  999.0,  999.0,  999.0,  999.0,  999.0
2005/12/12 09:50,    1.4,    2.1,    2.2,    2.0,    3.2,    4.5,    3.1,    2.1,    3.4,    3.3,    4.5,    4.7,    3.9,    2.0,    0.9,    0.2,   -0.5,   -0.5,    0.1,    1.9,    2.5,    3.7,    4.3,    5.0,    5.5,    5.4,    4.9,    4.9,    4.0,    3.1,    1.8,    1.3,    1.4,    3.7,    3.5,    3.0,    2.4,    2.1,    1.8,    1.6,    1.6,    1.2,    1.3,    1.7,    3.1,    4.6,    6.4,    6.8,    6.3,    6.6,    7.0,    7.6,    7.7,    7.7,    7.3,    6.7,    6.6,    5.7,    5.0,    4.4,    4.0,    3.6,    2.4,    2.6,    2.6,    0.5,    0.1,    0.1,    0.3,   -0.3,   -1.9,   -0.8,  999.0,  999.0,  999.0,   -0.5,   -0.8,  999.0,  999.0,  999.0,  999.0,  999.0,  999.0,  999.0,  999.0,  999.0,  999.0,  999.0,  999.0,  999.0,   -0.3,  999.0,   -0.9,  999.0,  999.0,  999.0,  999.0,  999.0,  999.0,   -1.9,   -1.2,    1.5,    2.5,    2.9,    4.6,    5.7,  999.0,  999.0,  999.0,  999.0,  999.0,  999.0,   -0.2,  999.0,  999.0,  999.0,  999.0,  999.0,  999.0,  999.0
2005/12/12 10:00,    0.6,    2.3,    2.1,    2.4,    3.9,    4.3,    1.8,    2.1,  999.0,    3.3,    4.3,    4.6,    4.6,    3.7,    2.4,    1.0,   -0.1,    0.1,    0.8,    1.9,    2.9,  999.0,    4.8,    5.6,    6.2,    5.4,    4.7,    5.0,    4.2,    2.8,    1.9,    1.2,    1.3,  999.0,    3.5,    2.9,    2.5,    2.1,    2.1,    1.4,    1.6,    1.2,    1.2,    1.9,    3.2,    4.9,    6.5,    6.9,    6.2,    6.7,    7.0,    7.4,    7.4,    7.5,    7.4,    7.2,    6.7,    5.7,    5.2,    4.5,    4.2,    3.5,    2.1,    2.4,    2.5,    0.8,    0.3,    0.3,    0.3,   -0.4,   -1.2,  999.0,  999.0,  999.0,  999.0,  999.0,   -0.6,  999.0,  999.0,  999.0,  999.0,  999.0,   -1.7,  999.0,  999.0,  999.0,  999.0,  999.0,  999.0,  999.0,   -0.6,  999.0,  999.0,  999.0,  999.0,  999.0,  999.0,  999.0,  999.0,   -1.1,   -1.4,    1.0,    2.4,    3.1,  999.0,  999.0,  999.0,  999.0,  999.0,  999.0,  999.0,  999.0,  999.0,  999.0,  999.0,  999.0,  999.0,  999.0,  999.0,  999.0
2005/12/12 10:10,    3.1,    2.3,    2.2,    2.8,    3.2,    2.9,    1.3,    2.6,    3.1,    3.4,    4.3,    4.5,    5.4,    5.0,    3.4,    1.5,    0.5,    0.4,    0.9,    2.1,    3.5,    5.0,    4.7,    5.6,    6.4,    5.1,    4.5,    4.7,    4.4,    2.7,    1.7,    1.2,    1.3,    2.8,    3.7,    3.2,    3.1,    2.1,    1.7,    1.5,    1.1,    0.8,    0.9,    2.2,    3.6,    5.2,    6.6,    6.9,    6.4,    6.8,    7.2,    7.6,    7.5,    7.6,    7.4,    7.2,    6.6,    5.7,    5.0,    4.5,    4.1,    3.7,    2.0,    1.9,    1.5,    0.6,    0.3,    0.1,   -1.0,   -0.5,   -1.3,  999.0,  999.0,    0.2,  999.0,  999.0,   -0.6,  999.0,  999.0,  999.0,  999.0,  999.0,  999.0,  999.0,  999.0,  999.0,  999.0,  999.0,  999.0,  999.0,   -0.4,  999.0,  999.0,  999.0,  999.0,  999.0,  999.0,  999.0,  999.0,   -0.5,   -1.4,    0.7,    1.8,    3.4,  999.0,  999.0,  999.0,  999.0,  999.0,  999.0,  999.0,  999.0,  999.0,  999.0,  999.0,  999.0,  999.0,  999.0,  999.0,  999.0
2005/12/12 10:20,    6.4,    2.7,    3.1,    3.1,    1.7,    1.4,    1.6,    2.1,    3.0,    3.5,    3.8,    4.6,    5.7,    5.6,    4.1,    2.4,    1.2,    1.2,    1.6,    2.3,    3.9,    5.0,    4.2,    5.7,    6.2,    4.8,    4.5,    4.6,    4.1,    3.0,    1.7,    1.2,    1.6,    2.6,    3.7,    3.4,    3.2,    2.0,    1.5,    1.1,    0.8,    0.5,  999.0,    2.3,    3.8,    5.3,    6.1,    6.9,    6.4,    6.7,    7.3,    7.3,    7.6,    7.4,    7.0,    6.9,    6.1,    5.8,    5.1,    4.3,    4.0,    3.3,    1.9,    1.5,    1.1,    0.5,    0.2,   -0.3,   -1.1,  999.0,   -1.5,   -1.9,  999.0,   -0.3,   -0.4,  999.0,  999.0,  999.0,  999.0,  999.0,  999.0,  999.0,  999.0,  999.0,  999.0,  999.0,  999.0,  999.0,  999.0,  999.0,  999.0,  999.0,  999.0,  999.0,  999.0,  999.0,  999.0,  999.0,  999.0,   -0.5,   -1.1,    0.7,    2.8,    3.9,  999.0,  999.0,  999.0,  999.0,  999.0,  999.0,  999.0,  999.0,  999.0,  999.0,  999.0,  999.0,  999.0,   -0.7,  999.0,  999.0
2005/12/12 10:30,    5.5,    3.4,    3.7,    2.9,    1.2,    1.1,    1.6,    2.1,    2.8,    3.1,    3.5,    4.7,    5.6,    5.6,    4.3,    2.9,    2.1,    1.6,    1.9,    2.3,    4.0,  999.0,    4.4,    5.6,    6.3,    4.9,    4.5,    4.4,    3.7,    3.2,    1.9,    1.3,    1.3,    2.2,    3.4,    3.3,    2.9,    1.7,    0.7,    0.8,    0.6,    0.3,    1.1,    2.4,    4.0,    5.3,    6.3,    6.8,    6.3,    6.7,    7.4,    7.3,    7.4,    7.1,    6.7,    6.5,    5.7,    5.7,    4.8,    4.1,    4.0,    3.2,    1.9,    1.2,    1.1,    0.2,   -0.1,   -1.0,   -1.0,  999.0,   -1.4,  999.0,    0.6,   -0.0,   -0.3,  999.0,  999.0,  999.0,  999.0,  999.0,  999.0,  999.0,  999.0,  999.0,  999.0,  999.0,  999.0,  999.0,  999.0,  999.0,  999.0,  999.0,  999.0,  999.0,  999.0,  999.0,  999.0,  999.0,  999.0,   -1.1,   -0.7,    0.8,    2.9,    4.8,  999.0,  999.0,  999.0,  999.0,  999.0,  999.0,  999.0,  999.0,  999.0,  999.0,  999.0,  999.0,  999.0,  999.0,  999.0,  999.0
2005/12/12 10:40,    5.1,    3.6,    3.2,    2.2,    0.9,    0.7,    1.1,    2.0,    2.8,    2.5,    2.9,    4.8,    5.4,    5.5,    4.2,    4.1,    2.9,    2.2,    2.0,    2.3,    3.8,    5.3,    5.3,    6.4,    6.7,    5.3,    4.5,    3.8,    3.6,    3.3,    2.6,    0.9,    1.0,    2.1,    3.1,    2.9,    2.3,    1.1,    0.1,    0.4,    0.5,    0.5,    1.2,    3.1,    4.3,    5.7,    6.6,    6.5,    6.7,    7.2,    7.3,    7.3,    7.1,    6.6,    6.6,    6.4,    5.1,    5.2,    4.8,    4.3,    3.9,    3.4,    2.2,    0.7,    0.7,    0.1,   -0.2,   -1.2,   -1.3,   -1.3,  999.0,  999.0,    0.2,  999.0,  999.0,  999.0,  999.0,  999.0,  999.0,  999.0,  999.0,  999.0,   -0.9,  999.0,  999.0,  999.0,  999.0,  999.0,  999.0,  999.0,  999.0,  999.0,  999.0,  999.0,  999.0,  999.0,  999.0,  999.0,  999.0,   -1.4,   -0.2,    0.8,    3.8,    5.3,  999.0,  999.0,    5.9,  999.0,  999.0,  999.0,  999.0,  999.0,  999.0,  999.0,  999.0,  999.0,  999.0,  999.0,  999.0,  999.0
2005/12/12 10:50,    4.9,    4.0,    2.8,    1.8,    1.1,    1.2,    1.9,    2.3,    3.4,    2.6,    2.6,    4.8,    5.6,    5.7,    4.6,    4.6,    3.7,    2.8,    1.6,    1.5,    3.3,    4.1,    4.8,    5.6,    5.2,    4.7,    3.8,    3.2,    3.7,    3.3,    2.0,    1.0,    1.0,    2.3,    2.8,    3.0,    1.7,    0.3,   -0.3,    0.0,    0.1,    0.6,    1.5,    3.4,    4.8,    6.0,    6.5,    6.5,    6.8,    7.4,    7.6,    7.2,    7.0,    7.0,    7.2,    7.1,    5.0,    4.5,    4.6,    4.6,    3.8,    4.3,    2.4,    0.1,    0.4,   -0.0,    0.1,   -0.8,  999.0,  999.0,  999.0,  999.0,  999.0,  999.0,  999.0,  999.0,  999.0,  999.0,  999.0,  999.0,  999.0,  999.0,  999.0,  999.0,  999.0,  999.0,  999.0,  999.0,  999.0,  999.0,  999.0,  999.0,  999.0,  999.0,  999.0,  999.0,  999.0,  999.0,  999.0,   -1.4,   -0.2,    1.5,    4.0,    5.7,  999.0,  999.0,    6.0,  999.0,  999.0,  999.0,  999.0,  999.0,  999.0,  999.0,  999.0,  999.0,  999.0,  999.0,  999.0,  999.0
2005/12/12 11:00,    2.9,    3.2,    3.0,    2.1,    1.5,    0.9,    1.5,    1.6,    2.4,    2.3,    2.0,    3.4,    4.9,    5.1,    4.3,    3.6,    2.8,    1.8,    0.8,    0.9,    2.1,    3.1,    3.7,    3.8,    4.2,    4.0,    3.5,    3.4,    3.9,    3.4,    2.1,    0.9,    0.9,    2.6,    2.9,    3.3,    1.8,    0.3,   -0.1,    0.0,    0.2,    0.7,    1.2,    3.4,    5.0,    6.0,    5.9,    6.2,    6.5,    7.3,    7.4,    7.0,    7.2,    7.4,    7.4,    7.3,    5.8,    4.5,    4.9,    4.9,    4.1,    4.7,    2.1,    0.3,    1.0,    0.2,   -0.2,   -0.8,  999.0,  999.0,    0.4,  999.0,    0.3,  999.0,  999.0,  999.0,  999.0,  999.0,  999.0,  999.0,  999.0,  999.0,  999.0,  999.0,  999.0,  999.0,  999.0,  999.0,  999.0,  999.0,  999.0,  999.0,  999.0,  999.0,  999.0,  999.0,  999.0,  999.0,  999.0,   -1.0,   -0.2,    1.5,    4.2,    6.3,  999.0,    7.0,    6.3,  999.0,  999.0,  999.0,  999.0,  999.0,  999.0,  999.0,  999.0,  999.0,  999.0,  999.0,  999.0,  999.0
2005/12/12 11:10,    2.8,    2.2,    3.4,    3.3,    2.4,    1.4,    1.1,    1.2,    1.7,    1.9,    1.8,    1.9,    3.0,    5.0,    3.9,    3.4,    2.7,    2.1,    1.5,    1.3,    2.4,    3.5,    3.3,    3.7,    4.2,    4.3,    3.9,    3.7,    4.0,    3.5,    2.3,    1.0,    1.1,    2.6,    3.1,    3.5,    2.0,    0.5,    0.1,    0.4,    0.8,    1.1,    1.7,    3.7,    5.1,    5.8,    5.5,    5.4,    6.0,    6.9,    7.0,    6.7,    7.1,    7.4,    7.5,    6.8,    5.4,    4.6,    4.8,    4.9,    5.0,    4.7,    1.5,    0.8,    1.0,    0.1,   -0.8,  999.0,  999.0,  999.0,    0.8,  999.0,  999.0,  999.0,  999.0,   -2.9,  999.0,  999.0,   -0.6,  999.0,  999.0,  999.0,  999.0,  999.0,  999.0,  999.0,  999.0,  999.0,  999.0,  999.0,  999.0,  999.0,  999.0,  999.0,  999.0,  999.0,  999.0,  999.0,  999.0,   -0.8,   -0.4,    1.8,    4.7,    7.8,  999.0,    6.6,  999.0,  999.0,  999.0,  999.0,  999.0,  999.0,  999.0,  999.0,  999.0,  999.0,  999.0,  999.0,  999.0,  999.0
2005/12/12 11:20,    2.6,    0.9,    1.8,    3.6,    3.2,    1.4,    0.8,    1.1,    1.8,    1.8,    2.0,    1.5,    1.8,    4.4,    3.6,    3.3,    2.6,    2.4,    2.0,    2.2,    3.0,    3.7,    3.5,    4.0,    4.4,    4.7,    4.4,    3.8,    3.9,    3.7,    2.0,    1.3,    1.5,    2.5,    3.2,    3.5,    2.3,    0.7,    0.3,    0.6,    1.2,    1.4,    2.2,    4.0,    5.1,    5.5,    5.3,    5.0,    5.9,    6.8,    6.7,    6.6,    7.2,    7.1,    7.3,    6.3,    4.7,    4.6,    4.7,    4.9,    5.1,    3.2,    0.9,    0.7,    0.5,   -0.1,   -0.8,    0.3,  999.0,  999.0,    3.7,  999.0,  999.0,   -0.1,  999.0,   -2.2,  999.0,  999.0,   -0.5,  999.0,  999.0,  999.0,  999.0,  999.0,  999.0,  999.0,  999.0,  999.0,  999.0,  999.0,  999.0,  999.0,  999.0,  999.0,  999.0,  999.0,  999.0,  999.0,  999.0,   -0.9,   -0.9,    1.3,    5.1,    8.1,  999.0,    6.6,  999.0,  999.0,  999.0,  999.0,  999.0,  999.0,  999.0,  999.0,  999.0,  999.0,  999.0,  999.0,  999.0,  999.0
2005/12/12 11:30,    2.3,    0.8,    3.1,    3.3,    3.2,    1.5,    1.1,    1.0,    1.6,    1.7,    1.2,    0.8,    0.8,    2.6,    3.0,    2.6,    2.5,    2.1,    1.8,    2.3,    3.5,    3.8,    3.4,    3.8,    4.3,    4.6,    4.9,    4.3,    4.1,    3.1,    1.8,    1.5,    1.9,    2.8,    3.3,    3.6,    2.2,    0.7,    0.4,    0.7,    1.4,    1.4,    2.8,    3.9,    5.0,    5.3,    5.1,    5.0,    5.9,    6.4,    6.6,    6.7,    7.1,    7.0,    6.9,    6.2,    4.5,    4.5,    4.9,    4.7,    4.7,    2.7,    0.7,    0.7,    0.0,   -0.3,   -0.8,    0.1,   -0.4,    0.3,   -0.2,  999.0,  999.0,   -0.2,  999.0,  999.0,  999.0,  999.0,   -0.1,  999.0,  999.0,  999.0,  999.0,  999.0,  999.0,  999.0,  999.0,  999.0,  999.0,  999.0,  999.0,  999.0,  999.0,  999.0,  999.0,  999.0,  999.0,  999.0,  999.0,   -1.1,   -0.5,    1.0,    4.7,  999.0,  999.0,    6.6,  999.0,  999.0,  999.0,  999.0,  999.0,  999.0,  999.0,  999.0,  999.0,  999.0,  999.0,  999.0,  999.0,  999.0
2005/12/12 11:40,    4.4,    3.8,    3.5,    3.5,    3.0,    2.0,    1.9,    1.4,    1.3,   -0.1,    0.1,   -0.0,   -0.1,    0.7,    1.9,    2.2,    2.6,    1.5,    0.9,    1.9,    2.7,    2.9,    2.8,    3.1,    3.4,    4.0,    4.6,    4.0,    3.6,    2.5,    1.6,    1.5,    2.3,    3.1,    3.5,    3.7,    2.7,    1.1,    0.9,    1.6,    1.4,    1.1,    3.1,    3.6,    4.6,    4.9,    5.1,    5.1,    5.9,    6.2,    6.4,    6.6,    6.9,    7.0,    6.6,    6.1,    5.2,    4.7,    5.0,    4.5,    4.1,    2.6,    0.5,    0.6,    0.3,   -0.1,   -0.6,   -0.3,   -0.3,   -0.8,  999.0,  999.0,  999.0,  999.0,  999.0,  999.0,  999.0,  999.0,  999.0,  999.0,  999.0,  999.0,  999.0,  999.0,  999.0,  999.0,  999.0,  999.0,  999.0,  999.0,  999.0,  999.0,  999.0,  999.0,    2.3,  999.0,  999.0,  999.0,  999.0,   -1.0,   -0.8,    0.4,    3.6,  999.0,  999.0,  999.0,  999.0,  999.0,  999.0,  999.0,  999.0,  999.0,  999.0,  999.0,  999.0,  999.0,  999.0,  999.0,  999.0,  999.0
2005/12/12 11:50,    4.2,    4.3,    3.1,    3.4,    2.9,    2.6,    2.1,    1.6,    0.5,   -0.8,   -0.7,   -0.8,   -0.1,    0.2,    1.5,    2.2,    1.9,    1.7,    1.2,    2.3,    2.5,    2.5,    2.7,    2.2,    2.9,    3.5,    4.1,    3.4,    3.6,    3.5,    2.5,    2.0,    2.4,    2.9,    3.3,    2.9,    2.3,    1.7,    1.3,    1.6,    1.6,    1.1,    2.2,    3.0,    4.2,    4.3,    4.6,    5.2,    6.1,    6.2,    6.2,    6.3,    6.5,    7.1,    6.6,    6.1,    6.1,    5.6,    5.1,    4.6,    4.4,    1.8,    0.7,    0.4,    0.1,    0.1,   -0.2,   -0.6,   -0.0,   -0.3,  999.0,    0.3,  999.0,    0.7,  999.0,  999.0,  999.0,  999.0,  999.0,  999.0,  999.0,  999.0,    3.2,  999.0,  999.0,  999.0,  999.0,   -1.8,  999.0,  999.0,   -1.0,  999.0,  999.0,    1.4,  999.0,  999.0,  999.0,  999.0,  999.0,   -1.1,   -0.6,    0.7,  999.0,  999.0,  999.0,  999.0,  999.0,  999.0,  999.0,  999.0,  999.0,  999.0,  999.0,  999.0,  999.0,  999.0,  999.0,  999.0,  999.0,  999.0
2005/12/12 12:00,    4.5,    4.3,    3.3,    3.7,    3.2,    3.0,    1.9,    1.7,  999.0,   -0.6,   -1.0,   -1.0,   -0.7,   -0.6,    0.9,    2.4,    2.1,    3.3,    2.9,    3.3,    2.6,    2.2,  999.0,    2.0,    2.7,    2.9,    2.9,    3.5,    3.9,    4.2,    3.9,    2.4,    2.4,    2.4,    3.2,    2.4,    1.9,  999.0,  999.0,  999.0,    1.6,  999.0,    2.2,  999.0,    3.7,    3.9,    4.2,    5.0,    5.9,    6.0,    5.8,    6.1,    6.1,    6.7,    6.2,    5.9,    6.0,    6.0,    5.2,    4.9,    4.6,    3.3,    1.3,   -0.1,  999.0,  999.0,   -0.5,  999.0,   -1.4,  999.0,  999.0,  999.0,  999.0,  999.0,  999.0,  999.0,  999.0,  999.0,  999.0,  999.0,  999.0,  999.0,  999.0,  999.0,  999.0,  999.0,  999.0,  999.0,  999.0,  999.0,  999.0,  999.0,  999.0,  999.0,  999.0,  999.0,  999.0,  999.0,  999.0,   -1.1,   -1.1,    1.5,    5.2,    8.3,  999.0,  999.0,  999.0,  999.0,  999.0,  999.0,  999.0,  999.0,  999.0,  999.0,  999.0,  999.0,  999.0,  999.0,  999.0,  999.0
2005/12/12 12:10,    4.0,    3.6,    2.7,    3.1,    3.0,    2.7,    2.2,    1.6,    2.3,   -0.3,   -0.9,   -0.9,   -0.6,   -1.1,    0.9,    2.4,    3.0,    3.6,    3.9,    3.3,    2.1,    2.2,    2.4,    1.7,    2.2,    1.8,    2.2,    2.4,    3.6,    4.2,    3.5,    2.8,    2.9,    2.0,    2.2,    1.7,    1.6,    1.9,    1.4,    1.7,    1.7,    1.3,    2.0,    3.0,    3.6,    3.9,    4.2,    5.1,    5.5,    6.1,    5.7,    6.0,    6.2,    6.4,    6.1,    5.3,    5.9,    5.9,    5.3,    4.9,    4.4,    2.8,    1.3,    0.5,    1.6,    0.8,   -0.5,  999.0,   -0.2,   -1.7,    1.3,    1.6,  999.0,    2.9,  999.0,  999.0,    0.5,   -0.1,   -1.1,  999.0,    2.0,  999.0,  999.0,  999.0,  999.0,  999.0,  999.0,  999.0,  999.0,  999.0,  999.0,  999.0,  999.0,  999.0,  999.0,  999.0,  999.0,  999.0,  999.0,   -0.5,   -0.9,    1.5,    4.1,    7.2,    6.7,    7.0,  999.0,  999.0,    1.2,  999.0,  999.0,  999.0,  999.0,  999.0,  999.0,  999.0,  999.0,  999.0,  999.0,  999.0
2005/12/12 12:20,    3.3,    3.0,    2.6,    2.8,    3.2,    2.7,    2.5,    2.1,    2.4,    1.5,    0.8,    0.2,   -0.5,   -0.9,   -0.5,    0.4,    2.3,    3.6,    3.5,    3.1,    2.8,    3.0,    3.2,    2.1,    2.4,    2.1,    1.8,    2.4,    2.5,    3.1,    2.2,    2.2,    2.2,    2.3,    2.3,    2.3,    1.9,    1.6,    1.0,    1.2,    1.0,    1.2,    1.6,    2.7,    3.4,    3.8,    3.9,    4.9,    5.6,    6.1,    5.8,    5.8,    5.9,    5.9,    5.7,    5.0,    5.6,    5.8,    5.1,    4.8,    4.1,    2.2,    0.4,    0.1,    0.3,    0.0,   -0.4,   -0.9,    0.0,   -0.7,   -1.4,    0.6,    1.3,  999.0,  999.0,  999.0,   -2.2,   -1.4,   -0.4,    4.4,    0.6,    4.2,  999.0,    1.1,  999.0,  999.0,  999.0,  999.0,  999.0,  999.0,  999.0,  999.0,  999.0,  999.0,  999.0,  999.0,  999.0,  999.0,  999.0,   -0.4,   -1.2,   -0.0,    4.6,    7.6,    7.4,    7.5,  999.0,    5.2,  999.0,  999.0,  999.0,  999.0,  999.0,  999.0,  999.0,  999.0,  999.0,  999.0,  999.0,  999.0
2005/12/12 12:30,    1.6,    2.5,    2.7,    2.6,    3.7,    2.6,    2.4,    2.3,    2.2,    1.8,    1.1,    0.5,   -0.4,   -0.6,   -1.2,   -0.9,   -0.0,    0.8,    1.3,    2.4,    2.5,    3.0,    3.2,    2.3,    2.3,    2.8,    3.0,    2.8,    2.3,    2.5,    2.0,    2.1,    2.2,    1.6,    1.3,    1.7,    2.0,    1.1,    0.6,    0.9,    0.7,    1.2,    1.2,    2.3,    2.3,    3.2,    3.4,    3.6,    4.6,    5.1,    5.1,    4.2,    4.4,    4.5,    4.2,    4.5,    5.1,    5.3,    4.9,    4.1,    3.1,    1.8,    0.1,    0.1,   -0.0,   -0.3,   -0.1,   -0.2,    0.1,   -0.8,   -0.6,  999.0,   -0.1,  999.0,  999.0,   -0.6,   -1.0,   -0.8,  999.0,  999.0,    1.6,    2.7,  999.0,  999.0,  999.0,  999.0,  999.0,  999.0,  999.0,  999.0,  999.0,  999.0,  999.0,  999.0,  999.0,  999.0,  999.0,  999.0,  999.0,   -0.6,   -0.8,    0.3,    3.8,  999.0,  999.0,  999.0,  999.0,  999.0,  999.0,  999.0,  999.0,  999.0,  999.0,  999.0,  999.0,  999.0,  999.0,  999.0,  999.0,  999.0
2005/12/12 12:40,    1.5,    2.8,    2.2,    2.2,    3.1,    3.2,    2.8,    2.7,    2.2,    1.4,    0.3,    0.7,   -0.0,   -0.6,   -1.6,   -1.6,   -1.0,   -0.9,   -0.7,    0.1,    0.8,    1.8,    2.1,    2.0,    2.8,    3.1,    3.5,    3.1,    2.3,    2.3,    1.5,    1.8,    1.7,    1.3,    1.2,    1.4,    1.7,    1.1,    0.9,    0.7,    0.6,    1.1,    1.0,    1.8,    1.9,    2.8,    2.9,    3.9,    4.6,    5.2,    4.8,    4.4,    4.7,    4.5,    4.1,    4.6,    5.4,    5.3,    4.9,    3.8,    2.1,    1.3,    0.0,   -0.0,    0.0,   -0.1,    0.1,   -0.2,   -0.2,   -0.9,   -0.7,   -1.0,   -0.0,  999.0,    0.6,   -0.4,   -0.1,   -1.5,  999.0,  999.0,  999.0,    3.0,  999.0,  999.0,  999.0,    0.1,  999.0,  999.0,  999.0,  999.0,  999.0,  999.0,  999.0,  999.0,  999.0,  999.0,  999.0,  999.0,  999.0,   -0.8,   -1.1,    0.0,    3.8,  999.0,  999.0,  999.0,  999.0,  999.0,    1.1,  999.0,  999.0,  999.0,  999.0,  999.0,  999.0,  999.0,  999.0,  999.0,  999.0,  999.0
2005/12/12 12:50,    1.5,    2.3,    1.8,    2.3,    2.6,    3.7,    3.4,    3.3,    2.3,    1.3,    0.5,    0.8,   -0.1,   -0.2,   -1.9,   -2.2,   -1.3,   -1.7,   -2.6,   -1.2,   -0.5,    0.1,    0.7,    1.8,    2.2,    2.7,    3.0,    3.0,    2.2,    2.0,    1.6,    1.1,    1.6,    1.5,    1.8,    1.6,    1.6,    1.5,    1.3,    1.1,    1.1,    1.3,    1.7,    3.1,    3.8,    3.0,    3.7,    4.9,    5.9,    5.8,    5.3,    4.5,    5.3,    5.2,    4.5,    5.1,    5.6,    5.2,    4.6,    3.4,    1.7,    2.0,   -0.3,   -0.3,    0.0,    0.1,    0.1,   -0.6,   -0.3,   -1.0,   -0.6,  999.0,  999.0,    0.2,    0.8,   -0.2,   -0.4,  999.0,  999.0,  999.0,  999.0,  999.0,  999.0,  999.0,  999.0,  999.0,  999.0,  999.0,  999.0,  999.0,  999.0,  999.0,  999.0,  999.0,  999.0,  999.0,  999.0,  999.0,  999.0,   -0.4,   -1.1,   -0.1,    4.0,  999.0,  999.0,  999.0,  999.0,  999.0,  999.0,  999.0,  999.0,  999.0,  999.0,  999.0,  999.0,  999.0,  999.0,  999.0,  999.0,  999.0
2005/12/12 13:00,    1.7,    1.2,    1.5,    1.9,    2.5,    3.5,    3.7,    3.8,    3.5,    2.4,    1.9,    1.1,    0.8,   -0.1,   -1.3,   -2.3,   -2.1,   -2.0,   -2.7,   -2.4,   -1.1,   -0.3,    0.1,    1.2,    2.0,    1.9,    2.3,    2.6,    2.3,    1.9,    1.4,    0.8,    1.4,    1.2,    1.8,    1.6,    1.2,    1.4,    1.4,    1.6,    1.3,    1.7,    2.2,    3.2,    3.3,    3.4,    4.4,    5.2,    5.9,    6.0,    5.6,    4.6,    5.5,    5.6,    4.4,    5.3,    5.7,    4.7,    4.6,    3.3,    1.4,    2.0,    0.1,    0.0,   -0.1,    0.3,    0.3,   -0.6,   -0.1,  999.0,   -0.3,  999.0,  999.0,  999.0,  999.0,   -0.1,    0.2,  999.0,  999.0,  999.0,  999.0,  999.0,  999.0,  999.0,  999.0,  999.0,  999.0,  999.0,  999.0,  999.0,  999.0,  999.0,  999.0,  999.0,  999.0,  999.0,  999.0,  999.0,  999.0,   -0.5,   -1.2,    0.3,    3.8,  999.0,  999.0,  999.0,  999.0,  999.0,  999.0,  999.0,  999.0,  999.0,  999.0,  999.0,  999.0,  999.0,  999.0,  999.0,  999.0,  999.0
2005/12/12 13:10,    1.8,    1.5,    2.2,    2.4,    2.5,    3.0,    3.2,    4.2,    4.7,    4.3,    2.8,    2.4,    1.9,    1.1,    0.4,   -0.9,   -1.8,   -2.1,   -2.7,   -3.2,   -3.0,   -2.3,   -1.1,    0.8,    1.8,    2.0,    1.6,    2.0,    2.0,    1.7,    1.2,    1.2,    1.3,    0.9,    1.2,    1.4,    1.1,    1.5,    1.3,    1.7,    1.6,    1.9,    2.3,    3.1,    2.9,    3.2,    4.5,    5.5,    5.7,    5.2,    4.3,    4.2,    4.7,    4.9,    4.0,    4.8,    4.9,    4.1,    3.6,    2.9,    1.3,    1.4,    0.3,    0.1,   -0.2,   -0.1,   -0.0,   -0.4,   -0.2,   -0.9,   -0.3,  999.0,  999.0,  999.0,   -0.1,   -0.0,    1.2,  999.0,  999.0,  999.0,  999.0,  999.0,  999.0,  999.0,  999.0,  999.0,  999.0,  999.0,  999.0,  999.0,  999.0,  999.0,  999.0,  999.0,  999.0,  999.0,  999.0,  999.0,  999.0,    0.0,   -0.7,    0.7,    3.5,  999.0,  999.0,  999.0,  999.0,  999.0,    1.6,  999.0,  999.0,  999.0,  999.0,  999.0,  999.0,  999.0,  999.0,  999.0,  999.0,  999.0
2005/12/12 13:20,    1.1,    1.8,    3.3,    2.5,    2.7,    2.9,    2.8,    4.1,    5.0,    5.9,    6.1,    4.0,    3.0,    1.5,   -0.2,   -0.5,   -1.6,   -2.2,   -3.1,   -3.4,   -3.7,   -3.1,   -1.8,    0.6,    2.3,    2.3,    2.1,    1.7,    2.0,    1.7,    1.1,    1.2,    1.3,    1.1,    1.2,    1.3,    1.2,    0.9,    1.0,    1.5,    1.1,    1.6,    1.9,    3.0,    2.9,    3.3,    4.5,    5.6,    5.7,    5.1,    3.9,    4.1,    4.6,    4.6,    4.0,    4.2,    4.4,    4.0,    2.4,    2.6,    1.5,    1.4,    0.7,    0.2,    0.0,   -0.3,   -0.1,   -0.5,   -0.8,   -0.8,   -0.5,  999.0,  999.0,  999.0,   -0.1,  999.0,    2.0,  999.0,  999.0,  999.0,  999.0,  999.0,  999.0,  999.0,  999.0,  999.0,  999.0,  999.0,  999.0,  999.0,  999.0,  999.0,  999.0,  999.0,  999.0,  999.0,  999.0,  999.0,  999.0,    0.4,   -0.1,    1.3,    3.2,  999.0,  999.0,  999.0,  999.0,  999.0,    2.0,  999.0,  999.0,  999.0,  999.0,  999.0,  999.0,  999.0,  999.0,  999.0,  999.0,  999.0
2005/12/12 13:30,    2.0,    3.4,    4.3,    2.8,    2.6,    2.7,    2.5,    3.6,    4.8,    6.2,    6.8,    5.5,    4.0,    2.6,    0.5,    0.1,   -0.9,   -2.0,   -3.2,   -3.5,   -3.8,   -3.3,   -2.1,   -0.4,    1.4,    2.3,    2.6,    2.1,    2.2,    2.0,    1.4,    1.2,    1.2,    1.0,    1.2,    1.0,    1.2,    0.8,    0.5,    0.8,    0.7,    0.7,    1.4,    2.6,    3.3,    3.9,    5.0,    5.5,    5.6,    4.6,    4.4,    4.5,    4.8,    4.6,    4.8,    4.4,    4.4,    3.9,    3.1,    2.0,    1.7,    1.3,    0.9,    0.2,   -0.1,   -0.3,   -0.1,   -0.5,   -1.7,   -0.7,   -0.2,  999.0,   -0.8,   -0.5,   -0.7,   -1.8,    2.0,  999.0,  999.0,  999.0,  999.0,  999.0,  999.0,  999.0,  999.0,  999.0,  999.0,  999.0,  999.0,  999.0,  999.0,  999.0,  999.0,  999.0,  999.0,  999.0,  999.0,  999.0,  999.0,    0.7,    0.2,    1.2,  999.0,  999.0,  999.0,  999.0,  999.0,  999.0,    2.5,  999.0,  999.0,  999.0,  999.0,  999.0,  999.0,  999.0,  999.0,  999.0,  999.0,  999.0
2005/12/12 13:40,    3.0,    5.7,    5.0,    2.9,    2.5,    2.3,    2.2,    3.0,    4.3,    6.4,    7.0,    6.4,    5.3,    3.6,    1.3,    0.6,   -0.6,   -1.9,   -3.1,   -3.5,   -3.4,   -3.1,   -2.4,   -1.4,    0.1,    2.1,    2.6,    2.5,    2.5,    2.2,    1.8,    1.1,    1.3,    1.0,    1.2,    0.9,    1.3,    0.9,    0.5,    0.5,  999.0,  999.0,    1.4,  999.0,    3.5,    4.3,    5.2,    5.6,    5.0,    4.5,    4.4,    4.7,    4.8,    4.7,    5.0,    5.1,    4.5,    3.9,    3.3,    2.7,    1.8,    1.7,    1.0,    0.2,   -0.1,   -0.3,   -0.1,   -0.9,   -2.6,   -0.4,   -0.7,  999.0,  999.0,   -0.2,  999.0,   -1.3,  999.0,  999.0,  999.0,  999.0,  999.0,  999.0,  999.0,  999.0,  999.0,  999.0,  999.0,  999.0,  999.0,  999.0,  999.0,  999.0,  999.0,  999.0,  999.0,  999.0,  999.0,  999.0,  999.0,    0.8,    0.4,    0.9,  999.0,  999.0,  999.0,  999.0,  999.0,  999.0,    2.7,  999.0,  999.0,  999.0,  999.0,  999.0,  999.0,  999.0,  999.0,  999.0,  999.0,  999.0
2005/12/12 13:50,    4.0,    6.1,    5.0,    3.3,    2.7,    2.7,    2.1,    2.6,    4.2,    6.5,    7.0,    6.2,    5.8,    4.4,    1.6,    1.0,   -0.4,   -2.0,   -2.8,   -2.8,   -2.8,  999.0,   -2.8,   -1.7,   -0.7,    1.2,    2.6,    2.4,    2.5,    2.0,    1.5,    0.8,    1.0,    1.3,    1.0,    0.8,    1.3,    1.0,    0.5,    0.6,  999.0,  999.0,    1.4,  999.0,    3.6,    4.7,    5.3,    5.5,    4.6,    4.7,    4.5,    4.8,    5.0,    4.8,    5.1,    5.2,    4.7,    4.0,    3.4,    2.8,    1.8,    2.0,    1.1,    0.3,    0.0,   -0.4,   -0.1,   -0.3,   -2.3,   -0.2,   -0.1,  999.0,    0.6,    0.0,  999.0,  999.0,  999.0,  999.0,  999.0,  999.0,  999.0,  999.0,  999.0,  999.0,  999.0,  999.0,  999.0,  999.0,  999.0,  999.0,  999.0,  999.0,  999.0,  999.0,  999.0,  999.0,  999.0,  999.0,  999.0,    1.4,    0.4,    1.2,  999.0,  999.0,  999.0,  999.0,  999.0,  999.0,    2.7,  999.0,  999.0,  999.0,  999.0,  999.0,  999.0,  999.0,  999.0,  999.0,  999.0,  999.0
2005/12/12 14:00,    4.3,    4.6,    2.9,  999.0,    1.1,    2.3,    2.3,    1.3,    3.3,    5.3,    7.1,    6.6,    6.0,    5.5,    3.4,    2.4,    0.2,   -0.9,   -2.0,   -2.0,   -1.7,   -1.9,   -2.6,   -1.6,   -0.9,    1.1,    2.3,    2.8,    2.8,    2.0,    1.5,    0.7,    0.7,    0.9,    1.0,    0.7,    0.9,    0.8,    0.4,    0.7,    0.4,    0.6,    1.6,    2.1,    3.7,    4.8,    5.2,    5.3,    4.7,    4.5,    4.3,    5.0,    5.4,    5.5,    5.0,    5.2,    4.9,    4.0,    3.5,    2.5,    1.7,    1.7,    1.0,    0.4,   -0.4,   -0.6,   -0.3,   -0.0,  999.0,   -0.3,   -0.1,  999.0,    0.2,   -0.1,  999.0,    0.1,  999.0,    1.1,  999.0,  999.0,  999.0,  999.0,    3.2,  999.0,  999.0,  999.0,  999.0,  999.0,  999.0,  999.0,  999.0,  999.0,  999.0,  999.0,  999.0,  999.0,  999.0,  999.0,    0.8,    1.2,    0.9,    1.5,  999.0,  999.0,  999.0,  999.0,  999.0,  999.0,  999.0,  999.0,    1.4,  999.0,  999.0,  999.0,  999.0,  999.0,  999.0,  999.0,  999.0,  999.0
2005/12/12 14:10,    3.1,    3.5,    2.9,    1.3,    1.2,    1.4,    1.9,    0.8,    2.0,    4.0,    6.2,    6.9,    6.4,    5.7,    4.7,    3.4,    1.1,    0.1,   -0.9,   -0.9,   -0.5,   -0.8,   -1.9,   -1.2,   -0.9,    0.9,    2.5,    2.6,    2.5,    2.5,    1.7,    0.8,    0.7,    0.9,    1.0,    0.7,    0.9,    0.6,  999.0,    0.4,    0.6,    0.7,    1.7,    2.5,    3.8,    4.6,    4.9,    4.8,    4.2,    4.6,    4.2,    4.7,    5.2,    5.7,    4.7,    5.0,    4.6,    3.8,    3.3,    2.2,    1.5,    1.4,    0.7,    0.1,   -0.5,   -0.7,   -0.4,    0.1,    0.4,   -0.2,    0.0,  999.0,    0.1,   -0.6,    0.0,    0.8,    0.2,    0.9,  999.0,  999.0,  999.0,  999.0,    3.1,  999.0,  999.0,  999.0,  999.0,  999.0,  999.0,  999.0,  999.0,  999.0,  999.0,  999.0,  999.0,  999.0,   -1.8,  999.0,   -0.2,    0.6,    1.5,    1.7,  999.0,  999.0,  999.0,  999.0,  999.0,  999.0,  999.0,  999.0,  999.0,  999.0,  999.0,  999.0,  999.0,  999.0,  999.0,  999.0,  999.0,  999.0
2005/12/12 14:20,    4.5,    4.2,    3.2,    2.2,    2.5,    2.7,    2.2,    1.1,    0.4,    2.0,    4.7,    6.4,    7.0,    5.7,    4.7,    3.9,    2.7,    0.7,    0.0,    0.2,    0.9,    1.2,    0.2,   -0.8,   -0.9,    0.3,    2.0,    2.4,    2.1,    2.3,    1.8,    1.2,    1.1,    0.9,    0.8,    0.7,    1.0,    0.7,    0.0,    0.1,    0.2,    0.6,    1.5,    2.4,    3.6,    4.4,    4.5,    4.0,    3.4,    3.8,    3.5,    4.0,    5.1,    5.4,    4.2,    4.2,    3.8,    2.8,    2.6,    1.7,    1.9,    0.9,    0.2,   -0.5,   -1.0,   -0.5,   -0.5,    0.1,   -0.2,   -0.2,   -0.2,  999.0,    0.0,   -0.5,  999.0,    1.6,    0.5,  999.0,    1.2,  999.0,  999.0,  999.0,  999.0,  999.0,    0.5,  999.0,  999.0,  999.0,  999.0,  999.0,  999.0,  999.0,  999.0,  999.0,  999.0,  999.0,  999.0,  999.0,   -0.3,    0.5,    1.5,    2.1,    4.5,  999.0,  999.0,    5.3,  999.0,  999.0,  999.0,  999.0,    1.7,  999.0,  999.0,  999.0,  999.0,  999.0,  999.0,  999.0,  999.0,  999.0
2005/12/12 14:30,    4.7,    3.8,    3.6,    3.8,    3.2,    3.6,    2.9,    1.5,   -0.0,    1.1,    3.4,    6.3,    7.1,  999.0,    5.1,    4.4,    3.4,    1.7,    0.3,    0.6,    1.0,    1.3,    0.6,   -1.6,   -1.8,   -0.8,    2.0,    2.1,    2.3,    2.1,    1.8,    1.7,    1.3,    0.8,    0.6,    0.7,  999.0,    0.2,   -0.6,   -0.4,   -0.1,    0.8,    1.6,    2.2,    3.5,    4.0,    4.0,    3.1,    3.2,    3.4,    3.7,    4.1,    5.0,    4.8,    3.9,    3.8,    3.7,    2.8,    2.6,    2.1,    1.8,    0.9,   -0.3,   -0.7,   -0.9,   -0.3,   -0.5,   -0.3,   -0.5,  999.0,   -0.6,  999.0,   -0.4,  999.0,  999.0,  999.0,  999.0,  999.0,  999.0,  999.0,  999.0,  999.0,  999.0,  999.0,  999.0,  999.0,  999.0,  999.0,  999.0,  999.0,  999.0,  999.0,  999.0,  999.0,  999.0,  999.0,  999.0,  999.0,    0.0,    1.6,    1.8,    2.4,    3.9,  999.0,    5.8,    4.9,  999.0,  999.0,  999.0,  999.0,  999.0,  999.0,  999.0,  999.0,  999.0,  999.0,  999.0,  999.0,  999.0,  999.0
2005/12/12 14:40,    5.0,    4.3,    3.3,    3.8,    3.4,    4.0,    3.5,    2.2,    0.7,    1.4,    3.4,    6.6,    7.4,    6.8,    6.3,    5.4,    4.1,    2.1,    0.5,    1.0,    0.6,    0.7,    0.3,   -0.9,   -1.4,   -1.1,    1.7,    2.2,    2.5,    2.2,    1.7,    1.5,    1.1,    0.6,    0.4,    0.7,  999.0,   -0.1,   -0.5,   -0.4,   -0.2,    0.6,    1.5,    2.2,    3.3,    3.8,    3.5,    3.0,    2.9,    3.4,    4.4,    4.6,    4.8,    4.5,    3.8,    3.5,    3.2,    3.1,    3.7,    3.3,    1.5,    1.0,   -0.2,   -0.6,   -0.9,   -0.3,   -0.5,   -0.1,   -0.4,  999.0,   -0.4,  999.0,    0.2,  999.0,  999.0,    0.3,    1.3,  999.0,  999.0,  999.0,  999.0,  999.0,  999.0,  999.0,   -0.3,  999.0,  999.0,  999.0,  999.0,  999.0,  999.0,  999.0,  999.0,  999.0,  999.0,  999.0,  999.0,  999.0,    0.2,    2.3,    2.1,    1.8,    3.4,  999.0,    6.0,    4.4,  999.0,  999.0,  999.0,  999.0,  999.0,  999.0,  999.0,  999.0,  999.0,  999.0,  999.0,  999.0,  999.0,  999.0
2005/12/12 14:50,    4.3,    4.3,    4.2,    3.5,    2.7,    3.8,    4.6,    3.1,    0.6,    1.3,    4.3,    6.9,    6.8,    7.3,    7.1,    6.1,    4.6,    2.4,    0.4,   -0.2,   -0.6,   -0.3,   -0.0,   -0.7,   -1.4,   -1.1,    0.8,    2.1,    2.5,    2.6,    1.5,    1.8,    0.9,    0.5,    0.1,  999.0,  999.0,    0.1,   -0.5,   -0.4,    0.0,    0.7,    1.8,    2.4,    3.2,    3.7,    3.3,    3.0,    2.8,    3.5,    4.7,    4.6,    4.5,    4.2,    3.8,    3.5,    3.2,    3.4,    4.2,    3.5,    1.4,    1.4,   -0.1,   -0.5,   -0.8,   -0.3,   -0.4,   -0.1,   -0.3,  999.0,  999.0,  999.0,  999.0,  999.0,  999.0,    0.0,  999.0,  999.0,  999.0,  999.0,  999.0,  999.0,  999.0,  999.0,  999.0,  999.0,  999.0,  999.0,  999.0,  999.0,  999.0,  999.0,  999.0,  999.0,  999.0,  999.0,  999.0,  999.0,  999.0,    2.4,    2.4,    1.6,    2.8,  999.0,  999.0,    3.9,  999.0,  999.0,  999.0,  999.0,  999.0,    5.4,  999.0,  999.0,  999.0,  999.0,  999.0,  999.0,  999.0,  999.0
2005/12/12 15:00,    4.1,    4.3,    3.9,    3.3,    3.2,    4.2,    4.5,    2.8,    1.3,    1.7,    4.7,    6.8,    7.1,    7.8,    7.9,    7.4,    5.1,    2.3,    0.1,   -1.9,   -2.0,   -1.5,   -0.4,   -0.8,   -2.0,   -1.3,    0.3,    1.9,    2.3,    2.8,    1.8,    1.7,    0.8,  999.0,    0.0,  999.0,    0.5,    0.2,   -0.3,   -0.2,    0.3,    0.8,    1.8,    2.2,    2.9,    3.3,    3.3,    2.9,    3.0,    3.6,    4.7,    4.8,    4.5,    4.0,    3.6,    3.4,    3.3,    3.5,    4.0,    3.6,    1.9,    1.5,    0.1,   -0.3,   -0.6,   -0.4,    0.0,   -0.0,   -0.3,  999.0,   -0.2,   -0.2,  999.0,  999.0,  999.0,    0.2,    1.0,  999.0,  999.0,  999.0,  999.0,  999.0,   -1.2,    0.6,  999.0,  999.0,  999.0,  999.0,  999.0,  999.0,  999.0,  999.0,  999.0,  999.0,  999.0,  999.0,  999.0,  999.0,  999.0,    2.0,    2.6,    1.4,    2.5,  999.0,  999.0,    3.4,  999.0,  999.0,  999.0,  999.0,  999.0,  999.0,  999.0,  999.0,  999.0,  999.0,  999.0,  999.0,  999.0,  999.0
2005/12/12 15:10,    4.3,    4.4,    3.9,    3.5,    3.5,    4.4,    4.0,    3.1,    1.8,    2.3,    5.4,    6.6,    6.8,    8.1,    8.4,    8.3,    6.4,    2.5,    0.6,   -1.9,   -2.5,   -2.0,   -1.1,   -0.7,   -2.0,   -1.8,   -0.4,    1.2,    2.3,    2.8,    1.8,    1.3,    0.7,    0.4,    0.3,  999.0,  999.0,    0.4,    0.2,    0.2,    0.8,    0.7,    1.5,    1.7,    2.5,    3.0,    3.0,    2.2,    2.7,    3.5,    4.3,    4.3,    4.1,    3.7,    3.1,    3.0,    3.5,    3.5,    2.9,    2.5,    1.5,    1.7,    0.0,   -0.7,   -0.3,   -0.3,   -0.1,    0.0,   -0.4,    0.3,   -0.3,   -0.0,  999.0,  999.0,    0.1,    1.1,  999.0,  999.0,  999.0,  999.0,  999.0,  999.0,  999.0,  999.0,  999.0,  999.0,  999.0,  999.0,  999.0,  999.0,  999.0,  999.0,  999.0,  999.0,  999.0,  999.0,  999.0,  999.0,  999.0,    1.2,    2.1,    1.4,    1.5,  999.0,  999.0,    2.9,    3.9,  999.0,  999.0,  999.0,  999.0,  999.0,  999.0,  999.0,  999.0,  999.0,  999.0,  999.0,  999.0,  999.0
2005/12/12 15:20,  999.0,  999.0,  999.0,    3.0,    3.7,    4.8,    4.0,    3.5,    2.0,    2.7,    5.7,    6.4,    7.3,    8.0,    8.2,    8.7,    7.0,    3.0,    0.5,   -1.7,   -2.1,   -2.1,   -1.6,   -1.2,   -1.9,   -2.5,   -0.8,    0.5,    2.1,    2.6,    1.4,    0.7,    0.4,    0.7,    0.6,  999.0,    1.2,    0.6,    0.4,    0.1,    0.5,    0.5,    1.2,    1.6,    2.1,    2.8,    2.6,    2.0,    2.7,    3.5,    3.4,    3.5,    2.6,    2.0,    1.9,    2.2,    3.1,    2.9,    2.4,    1.4,    1.1,    0.9,   -0.2,   -0.8,   -0.2,   -0.2,   -0.3,    0.1,   -0.4,  999.0,    0.1,  999.0,  999.0,  999.0,  999.0,  999.0,  999.0,  999.0,  999.0,  999.0,  999.0,  999.0,  999.0,    1.7,  999.0,  999.0,  999.0,  999.0,  999.0,  999.0,  999.0,  999.0,  999.0,  999.0,  999.0,  999.0,  999.0,  999.0,  999.0,  999.0,    1.6,    1.1,    1.0,  999.0,  999.0,    2.7,  999.0,  999.0,  999.0,  999.0,  999.0,  999.0,  999.0,  999.0,  999.0,  999.0,  999.0,  999.0,  999.0,  999.0
2005/12/12 15:30,    5.3,    5.8,    5.3,    4.3,    4.6,    5.1,    4.5,    3.9,    2.3,    2.7,    4.6,    6.2,    6.8,    7.3,    7.5,    8.6,    7.4,    4.4,    0.7,   -0.2,   -1.5,   -1.4,   -1.4,   -0.6,   -1.3,   -1.4,   -0.5,    0.5,    1.6,    1.7,    1.3,    0.4,    0.3,    0.6,    1.4,    1.3,    1.1,    0.8,    0.7,    0.4,    0.1,    0.8,    1.4,    1.7,    2.4,    2.7,    2.3,    2.8,    3.3,    3.7,    4.4,    3.6,    2.8,    1.6,    1.4,    2.0,    2.8,    3.1,    2.2,    1.4,    0.9,    0.1,   -0.4,   -0.3,    0.1,    0.1,   -0.3,   -0.1,    0.3,    0.1,    0.1,  999.0,  999.0,  999.0,   -0.1,  999.0,   -0.5,  999.0,  999.0,  999.0,  999.0,  999.0,    1.1,  999.0,  999.0,  999.0,  999.0,  999.0,  999.0,  999.0,  999.0,  999.0,  999.0,  999.0,  999.0,  999.0,  999.0,  999.0,  999.0,  999.0,    1.0,    0.9,    0.8,  999.0,  999.0,    2.7,  999.0,  999.0,  999.0,  999.0,  999.0,  999.0,  999.0,  999.0,  999.0,  999.0,  999.0,  999.0,  999.0,  999.0
2005/12/12 15:40,  999.0,  999.0,  999.0,    5.6,    5.5,    6.7,    6.2,    4.8,    3.4,    2.1,    3.7,    5.7,    6.5,    6.8,    7.1,    8.6,    8.1,    6.5,    1.9,    1.1,   -0.3,   -0.7,   -1.3,   -0.6,   -1.5,   -1.5,   -0.6,    0.4,    1.5,    1.3,    1.0,  999.0,    0.0,    0.6,    1.2,    1.0,    1.0,    0.8,    0.5,  999.0,  999.0,    0.6,    1.5,    1.8,    2.7,    2.9,    2.0,    3.2,    4.0,    4.1,    4.7,    4.3,    3.2,    2.0,    1.7,    2.0,    3.0,    3.4,    2.5,    1.5,    1.1,    0.2,   -0.1,   -0.1,   -0.1,    0.1,   -0.2,   -0.1,    0.5,  999.0,  999.0,  999.0,  999.0,  999.0,    0.3,  999.0,  999.0,  999.0,  999.0,  999.0,  999.0,   -0.1,    0.8,  999.0,  999.0,  999.0,  999.0,  999.0,  999.0,  999.0,  999.0,  999.0,  999.0,  999.0,  999.0,  999.0,  999.0,  999.0,  999.0,  999.0,    0.6,    1.0,    0.3,  999.0,  999.0,  999.0,  999.0,  999.0,  999.0,  999.0,  999.0,  999.0,  999.0,  999.0,  999.0,  999.0,  999.0,  999.0,  999.0,  999.0
2005/12/12 15:50,  999.0,  999.0,  999.0,    6.2,    6.0,    7.0,    6.3,    4.9,    4.0,    3.1,    3.5,    4.7,    6.2,    6.6,    6.9,  999.0,    8.6,    7.4,    3.3,    1.6,   -0.2,   -0.4,   -0.2,   -0.5,   -1.5,   -1.3,   -0.3,    0.4,    1.5,    1.2,    0.3,   -0.6,  999.0,    0.5,    1.1,    0.9,    0.9,    0.5,    0.1,  999.0,  999.0,    0.3,    1.3,    1.7,    2.6,    2.7,    1.9,    3.5,    4.1,    4.1,    4.2,    4.1,    3.4,    2.1,    1.9,  999.0,    2.9,    3.5,    2.8,    1.6,    1.6,    0.4,    0.0,   -0.1,   -0.0,    0.1,   -0.1,   -0.0,    0.6,  999.0,  999.0,  999.0,    0.5,   -0.2,    0.5,    1.9,  999.0,  999.0,  999.0,  999.0,  999.0,  999.0,  999.0,  999.0,  999.0,  999.0,  999.0,  999.0,  999.0,  999.0,  999.0,  999.0,  999.0,  999.0,  999.0,  999.0,  999.0,  999.0,  999.0,  999.0,    0.6,    1.0,    0.4,  999.0,  999.0,  999.0,  999.0,  999.0,  999.0,  999.0,  999.0,  999.0,  999.0,  999.0,  999.0,  999.0,  999.0,  999.0,  999.0,  999.0
2005/12/12 16:00,    5.1,    5.6,    5.1,    5.4,    5.1,    5.8,    6.0,    5.0,    4.9,    5.0,    4.0,    4.0,    5.7,    6.5,    6.9,  999.0,    8.5,    7.7,    3.8,    1.7,    0.5,    0.8,    0.5,   -0.9,   -1.9,   -1.2,    0.1,    0.9,    1.6,    1.5,    0.4,   -0.6,  999.0,  999.0,    0.8,    0.6,    0.6,   -0.0,   -0.4,   -0.6,   -0.7,  999.0,    1.0,    1.4,    2.0,    2.0,    2.0,    3.7,    3.7,    3.7,    3.6,    3.9,    3.5,    1.6,    1.7,    1.9,    2.8,    3.2,    2.9,    1.4,    1.4,    0.7,   -0.0,    0.1,   -0.1,   -0.1,    0.0,    0.1,    0.5,    0.2,  999.0,  999.0,    0.8,    0.6,    1.4,  999.0,  999.0,    4.3,  999.0,  999.0,  999.0,  999.0,  999.0,  999.0,  999.0,  999.0,  999.0,  999.0,  999.0,  999.0,  999.0,  999.0,  999.0,  999.0,  999.0,  999.0,  999.0,  999.0,  999.0,  999.0,    0.6,    0.8,    0.3,  999.0,  999.0,  999.0,  999.0,  999.0,  999.0,  999.0,  999.0,  999.0,  999.0,  999.0,  999.0,  999.0,  999.0,  999.0,  999.0,  999.0
2005/12/12 16:10,  999.0,  999.0,  999.0,  999.0,  999.0,  999.0,  999.0,  999.0,  999.0,  999.0,  999.0,  999.0,  999.0,  999.0,  999.0,  999.0,  999.0,  999.0,  999.0,  999.0,  999.0,  999.0,  999.0,  999.0,  999.0,  999.0,  999.0,  999.0,  999.0,  999.0,  999.0,  999.0,  999.0,  999.0,  999.0,  999.0,  999.0,  999.0,  999.0,  999.0,  999.0,  999.0,  999.0,  999.0,  999.0,  999.0,  999.0,  999.0,  999.0,  999.0,  999.0,  999.0,  999.0,  999.0,  999.0,  999.0,  999.0,  999.0,  999.0,  999.0,  999.0,  999.0,  999.0,  999.0,  999.0,  999.0,  999.0,  999.0,  999.0,  999.0,  999.0,  999.0,  999.0,  999.0,  999.0,  999.0,  999.0,  999.0,  999.0,  999.0,  999.0,  999.0,  999.0,  999.0,  999.0,  999.0,  999.0,  999.0,  999.0,  999.0,  999.0,  999.0,  999.0,  999.0,  999.0,  999.0,  999.0,  999.0,  999.0,  999.0,  999.0,  999.0,  999.0,  999.0,  999.0,  999.0,  999.0,  999.0,  999.0,  999.0,  999.0,  999.0,  999.0,  999.0,  999.0,  999.0,  999.0,  999.0,  999.0,  999.0
2005/12/12 16:20,  999.0,  999.0,  999.0,  999.0,  999.0,  999.0,  999.0,  999.0,  999.0,  999.0,  999.0,  999.0,  999.0,  999.0,  999.0,  999.0,  999.0,  999.0,  999.0,  999.0,  999.0,  999.0,  999.0,  999.0,  999.0,  999.0,  999.0,  999.0,  999.0,  999.0,  999.0,  999.0,  999.0,  999.0,  999.0,  999.0,  999.0,  999.0,  999.0,  999.0,  999.0,  999.0,  999.0,  999.0,  999.0,  999.0,  999.0,  999.0,  999.0,  999.0,  999.0,  999.0,  999.0,  999.0,  999.0,  999.0,  999.0,  999.0,  999.0,  999.0,  999.0,  999.0,  999.0,  999.0,  999.0,  999.0,  999.0,  999.0,  999.0,  999.0,  999.0,  999.0,  999.0,  999.0,  999.0,  999.0,  999.0,  999.0,  999.0,  999.0,  999.0,  999.0,  999.0,  999.0,  999.0,  999.0,  999.0,  999.0,  999.0,  999.0,  999.0,  999.0,  999.0,  999.0,  999.0,  999.0,  999.0,  999.0,  999.0,  999.0,  999.0,  999.0,  999.0,  999.0,  999.0,  999.0,  999.0,  999.0,  999.0,  999.0,  999.0,  999.0,  999.0,  999.0,  999.0,  999.0,  999.0,  999.0,  999.0,  999.0
2005/12/12 16:30,  999.0,  999.0,  999.0,  999.0,  999.0,  999.0,  999.0,  999.0,  999.0,  999.0,  999.0,  999.0,  999.0,  999.0,  999.0,  999.0,  999.0,  999.0,  999.0,  999.0,  999.0,  999.0,  999.0,  999.0,  999.0,  999.0,  999.0,  999.0,  999.0,  999.0,  999.0,  999.0,  999.0,  999.0,  999.0,  999.0,  999.0,  999.0,  999.0,  999.0,  999.0,  999.0,  999.0,  999.0,  999.0,  999.0,  999.0,  999.0,  999.0,  999.0,  999.0,  999.0,  999.0,  999.0,  999.0,  999.0,  999.0,  999.0,  999.0,  999.0,  999.0,  999.0,  999.0,  999.0,  999.0,  999.0,  999.0,  999.0,  999.0,  999.0,  999.0,  999.0,  999.0,  999.0,  999.0,  999.0,  999.0,  999.0,  999.0,  999.0,  999.0,  999.0,  999.0,  999.0,  999.0,  999.0,  999.0,  999.0,  999.0,  999.0,  999.0,  999.0,  999.0,  999.0,  999.0,  999.0,  999.0,  999.0,  999.0,  999.0,  999.0,  999.0,  999.0,  999.0,  999.0,  999.0,  999.0,  999.0,  999.0,  999.0,  999.0,  999.0,  999.0,  999.0,  999.0,  999.0,  999.0,  999.0,  999.0,  999.0
2005/12/12 16:40,  999.0,  999.0,  999.0,  999.0,  999.0,  999.0,  999.0,  999.0,  999.0,  999.0,  999.0,  999.0,  999.0,  999.0,  999.0,  999.0,  999.0,  999.0,  999.0,  999.0,  999.0,  999.0,  999.0,  999.0,  999.0,  999.0,  999.0,  999.0,  999.0,  999.0,  999.0,  999.0,  999.0,  999.0,  999.0,  999.0,  999.0,  999.0,  999.0,  999.0,  999.0,  999.0,  999.0,  999.0,  999.0,  999.0,  999.0,  999.0,  999.0,  999.0,  999.0,  999.0,  999.0,  999.0,  999.0,  999.0,  999.0,  999.0,  999.0,  999.0,  999.0,  999.0,  999.0,  999.0,  999.0,  999.0,  999.0,  999.0,  999.0,  999.0,  999.0,  999.0,  999.0,  999.0,  999.0,  999.0,  999.0,  999.0,  999.0,  999.0,  999.0,  999.0,  999.0,  999.0,  999.0,  999.0,  999.0,  999.0,  999.0,  999.0,  999.0,  999.0,  999.0,  999.0,  999.0,  999.0,  999.0,  999.0,  999.0,  999.0,  999.0,  999.0,  999.0,  999.0,  999.0,  999.0,  999.0,  999.0,  999.0,  999.0,  999.0,  999.0,  999.0,  999.0,  999.0,  999.0,  999.0,  999.0,  999.0,  999.0
2005/12/12 16:50,  999.0,  999.0,  999.0,  999.0,  999.0,  999.0,  999.0,  999.0,  999.0,  999.0,  999.0,  999.0,  999.0,  999.0,  999.0,  999.0,  999.0,  999.0,  999.0,  999.0,  999.0,  999.0,  999.0,  999.0,  999.0,  999.0,  999.0,  999.0,  999.0,  999.0,  999.0,  999.0,  999.0,  999.0,  999.0,  999.0,  999.0,  999.0,  999.0,  999.0,  999.0,  999.0,  999.0,  999.0,  999.0,  999.0,  999.0,  999.0,  999.0,  999.0,  999.0,  999.0,  999.0,  999.0,  999.0,  999.0,  999.0,  999.0,  999.0,  999.0,  999.0,  999.0,  999.0,  999.0,  999.0,  999.0,  999.0,  999.0,  999.0,  999.0,  999.0,  999.0,  999.0,  999.0,  999.0,  999.0,  999.0,  999.0,  999.0,  999.0,  999.0,  999.0,  999.0,  999.0,  999.0,  999.0,  999.0,  999.0,  999.0,  999.0,  999.0,  999.0,  999.0,  999.0,  999.0,  999.0,  999.0,  999.0,  999.0,  999.0,  999.0,  999.0,  999.0,  999.0,  999.0,  999.0,  999.0,  999.0,  999.0,  999.0,  999.0,  999.0,  999.0,  999.0,  999.0,  999.0,  999.0,  999.0,  999.0,  999.0
2005/12/12 17:00,  999.0,  999.0,  999.0,  999.0,  999.0,  999.0,  999.0,  999.0,  999.0,  999.0,  999.0,  999.0,  999.0,  999.0,  999.0,  999.0,  999.0,  999.0,  999.0,  999.0,  999.0,  999.0,  999.0,  999.0,  999.0,  999.0,  999.0,  999.0,  999.0,  999.0,  999.0,  999.0,  999.0,  999.0,  999.0,  999.0,  999.0,  999.0,  999.0,  999.0,  999.0,  999.0,  999.0,  999.0,  999.0,  999.0,  999.0,  999.0,  999.0,  999.0,  999.0,  999.0,  999.0,  999.0,  999.0,  999.0,  999.0,  999.0,  999.0,  999.0,  999.0,  999.0,  999.0,  999.0,  999.0,  999.0,  999.0,  999.0,  999.0,  999.0,  999.0,  999.0,  999.0,  999.0,  999.0,  999.0,  999.0,  999.0,  999.0,  999.0,  999.0,  999.0,  999.0,  999.0,  999.0,  999.0,  999.0,  999.0,  999.0,  999.0,  999.0,  999.0,  999.0,  999.0,  999.0,  999.0,  999.0,  999.0,  999.0,  999.0,  999.0,  999.0,  999.0,  999.0,  999.0,  999.0,  999.0,  999.0,  999.0,  999.0,  999.0,  999.0,  999.0,  999.0,  999.0,  999.0,  999.0,  999.0,  999.0,  999.0
2005/12/12 17:10,  999.0,  999.0,  999.0,  999.0,  999.0,  999.0,  999.0,  999.0,  999.0,  999.0,  999.0,  999.0,  999.0,  999.0,  999.0,  999.0,  999.0,  999.0,  999.0,  999.0,  999.0,  999.0,  999.0,  999.0,  999.0,  999.0,  999.0,  999.0,  999.0,  999.0,  999.0,  999.0,  999.0,  999.0,  999.0,  999.0,  999.0,  999.0,  999.0,  999.0,  999.0,  999.0,  999.0,  999.0,  999.0,  999.0,  999.0,  999.0,  999.0,  999.0,  999.0,  999.0,  999.0,  999.0,  999.0,  999.0,  999.0,  999.0,  999.0,  999.0,  999.0,  999.0,  999.0,  999.0,  999.0,  999.0,  999.0,  999.0,  999.0,  999.0,  999.0,  999.0,  999.0,  999.0,  999.0,  999.0,  999.0,  999.0,  999.0,  999.0,  999.0,  999.0,  999.0,  999.0,  999.0,  999.0,  999.0,  999.0,  999.0,  999.0,  999.0,  999.0,  999.0,  999.0,  999.0,  999.0,  999.0,  999.0,  999.0,  999.0,  999.0,  999.0,  999.0,  999.0,  999.0,  999.0,  999.0,  999.0,  999.0,  999.0,  999.0,  999.0,  999.0,  999.0,  999.0,  999.0,  999.0,  999.0,  999.0,  999.0
2005/12/12 17:20,    4.8,    6.2,    5.4,    4.9,    3.1,    4.2,    5.6,    5.6,    4.9,    5.2,    5.4,    4.5,    2.3,    2.3,    3.4,    4.5,    4.3,    5.3,    5.5,    4.6,    3.1,    1.0,   -1.7,   -2.3,   -2.3,   -2.2,    1.4,    1.4,    1.7,  999.0,   -0.4,   -0.4,    0.5,    0.7,    0.4,  999.0,   -0.5,   -0.7,   -0.6,    0.0,    0.7,    0.7,    1.1,    1.5,    1.6,    0.9,    0.8,    2.0,    1.6,    2.2,    2.8,    2.2,    1.0,    0.9,    0.9,    1.5,    1.2,    0.4,  999.0,   -0.6,   -0.8,   -1.0,    0.2,    0.1,    0.1,    0.0,    0.2,    0.5,   -0.0,    0.7,  999.0,  999.0,  999.0,   -0.4,   -0.1,    2.7,    4.8,  999.0,  999.0,  999.0,  999.0,    3.2,    2.7,  999.0,    1.5,  999.0,  999.0,  999.0,  999.0,  999.0,  999.0,  999.0,  999.0,  999.0,  999.0,  999.0,  999.0,  999.0,  999.0,    0.3,    0.5,    1.7,    0.9,  999.0,  999.0,  999.0,    1.0,  999.0,  999.0,  999.0,  999.0,  999.0,  999.0,  999.0,  999.0,  999.0,  999.0,  999.0,  999.0,  999.0
2005/12/12 17:30,    6.4,    6.8,    6.3,    5.9,    4.3,    4.5,    6.1,    5.3,    5.4,    4.7,    4.9,    4.3,    2.4,    2.6,    3.8,    4.2,    3.9,  999.0,    5.2,    4.9,    3.0,    1.1,   -0.7,   -2.1,   -2.0,   -2.1,    1.7,    1.5,    1.4,    0.8,   -0.9,   -0.7,    0.4,    0.5,   -0.0,  999.0,   -0.5,   -0.7,   -0.8,    0.3,    0.8,    0.6,    0.7,    1.1,    1.2,    0.7,    0.3,    2.0,    1.7,    2.4,    2.5,    2.5,    1.1,    0.7,    1.3,    1.5,    0.8,    0.5,  999.0,   -0.4,   -0.9,   -0.9,    0.1,    0.1,    0.1,    0.0,    0.1,    0.3,    0.0,  999.0,    1.6,  999.0,  999.0,  999.0,   -0.5,  999.0,  999.0,  999.0,    2.4,    3.9,    1.4,  999.0,  999.0,  999.0,  999.0,  999.0,  999.0,  999.0,  999.0,  999.0,  999.0,  999.0,  999.0,  999.0,  999.0,  999.0,  999.0,  999.0,  999.0,    1.0,    0.8,    1.8,    0.7,  999.0,  999.0,  999.0,  999.0,  999.0,  999.0,  999.0,  999.0,  999.0,  999.0,  999.0,  999.0,  999.0,  999.0,  999.0,  999.0,  999.0
2005/12/12 17:40,    6.3,    7.2,    6.9,    6.4,    4.2,    5.1,    6.5,    5.7,    5.7,    5.7,    5.4,    4.0,    3.0,    3.5,    4.4,    4.1,    3.7,    3.1,    5.1,    4.2,    2.8,    1.3,   -0.4,   -1.5,   -2.0,   -1.1,    1.2,    1.3,    1.0,    0.8,   -1.1,   -1.0,    0.5,    0.7,    0.4,   -0.1,   -0.2,   -0.5,   -0.1,    1.3,    1.3,    0.8,    0.7,    1.0,    0.9,    0.6,    0.1,    1.3,    1.8,    2.5,    2.7,    2.9,    1.5,    1.1,    1.2,    1.1,    0.7,    0.3,   -0.5,   -0.6,   -0.9,   -1.0,   -0.0,    0.2,    0.3,    0.1,   -0.0,   -0.1,   -0.0,  999.0,    0.8,  999.0,  999.0,    0.2,   -0.8,   -0.0,  999.0,    3.4,    2.9,    2.5,    1.4,  999.0,  999.0,  999.0,  999.0,  999.0,  999.0,  999.0,  999.0,  999.0,  999.0,  999.0,  999.0,  999.0,  999.0,  999.0,  999.0,  999.0,  999.0,    1.8,    1.3,    1.7,    0.6,  999.0,  999.0,  999.0,  999.0,  999.0,  999.0,  999.0,  999.0,  999.0,  999.0,  999.0,  999.0,  999.0,  999.0,  999.0,  999.0,  999.0
2005/12/12 17:50,    6.9,    7.6,    6.8,    6.1,    4.3,    4.9,    5.2,    5.8,    6.1,    7.0,    6.9,  999.0,    3.7,    4.4,    5.2,    3.8,    3.2,    3.4,    2.0,    2.9,    2.5,    0.8,   -0.7,   -1.9,   -2.1,   -0.6,    0.8,    1.1,    0.8,    0.5,   -1.3,  999.0,   -0.2,  999.0,    0.1,   -0.1,    0.0,  999.0,    0.2,    1.8,    1.4,    0.8,    0.7,    0.8,    0.8,    0.5,    0.3,    1.6,    1.9,    2.5,    2.6,    2.7,    1.5,    1.0,    1.1,    0.7,    0.7,   -0.4,   -1.0,   -1.0,   -0.8,   -0.9,   -0.3,    0.0,    0.2,   -0.3,   -0.0,  999.0,  999.0,  999.0,  999.0,  999.0,  999.0,    0.0,  999.0,   -0.1,  999.0,  999.0,    3.5,    1.9,    2.1,  999.0,  999.0,  999.0,  999.0,  999.0,  999.0,  999.0,  999.0,  999.0,  999.0,  999.0,  999.0,  999.0,  999.0,  999.0,  999.0,  999.0,  999.0,    2.3,    1.9,    1.6,    1.0,  999.0,  999.0,  999.0,    1.1,  999.0,  999.0,  999.0,  999.0,  999.0,  999.0,  999.0,  999.0,  999.0,  999.0,  999.0,  999.0,  999.0
2005/12/12 18:00,    7.0,    7.2,    6.2,    5.8,    4.5,    4.2,    4.8,    5.4,    5.5,    5.6,    5.7,    6.2,    4.9,    5.9,    6.5,    4.0,    3.9,    4.4,    1.2,    1.8,    1.6,    0.7,   -0.5,   -1.1,   -1.8,   -1.4,    0.3,    0.9,    0.6,    1.0,   -0.9,   -0.9,    0.9,    1.1,    0.6,    1.1,    0.2,   -0.0,    0.6,    2.2,    1.5,    0.5,    0.7,    0.8,    0.8,   -0.0,    0.8,    1.5,    1.4,    2.0,    2.0,    2.2,    0.8,    0.7,    0.3,    0.3,    0.7,   -0.5,   -1.0,   -0.8,   -0.6,   -0.7,   -0.3,    0.1,    0.3,   -0.0,    0.0,  999.0,  999.0,  999.0,    0.1,    0.9,  999.0,  999.0,  999.0,    1.3,    1.2,    3.9,    3.0,    0.8,    2.5,  999.0,    0.4,   -0.3,  999.0,  999.0,  999.0,  999.0,  999.0,  999.0,  999.0,  999.0,  999.0,  999.0,  999.0,  999.0,  999.0,  999.0,  999.0,    2.1,    2.5,    2.1,    0.6,  999.0,  999.0,  999.0,    1.0,  999.0,  999.0,  999.0,  999.0,  999.0,  999.0,  999.0,  999.0,  999.0,    0.8,  999.0,  999.0,  999.0
2005/12/12 18:10,    6.5,    6.7,    5.7,    5.4,    4.1,    3.9,    4.0,    4.2,    4.1,    4.6,    4.6,    5.5,    5.7,    6.7,    7.7,    3.9,    5.9,    6.0,    3.4,    2.5,    2.1,    1.5,    0.5,    0.2,   -0.6,   -2.3,    0.1,    1.4,    1.2,    1.3,   -0.1,    0.1,    1.1,    1.4,    0.9,    1.4,    1.0,    0.6,    1.7,    2.1,    1.5,    0.7,    0.6,    0.8,    0.6,   -0.0,    0.7,    1.3,    1.2,    1.1,    1.4,    1.4,    0.7,    0.3,    0.0,    0.4,    0.4,   -0.3,   -0.8,   -0.6,   -1.4,   -0.6,   -0.1,    0.2,    0.2,    0.5,    0.1,  999.0,  999.0,  999.0,  999.0,    1.0,  999.0,  999.0,    2.4,  999.0,  999.0,    2.8,    1.4,    0.7,  999.0,  999.0,  999.0,   -0.6,  999.0,  999.0,  999.0,  999.0,  999.0,  999.0,  999.0,  999.0,  999.0,  999.0,  999.0,  999.0,  999.0,  999.0,  999.0,    1.7,    2.2,    2.5,    1.4,  999.0,  999.0,  999.0,    1.1,    0.3,  999.0,  999.0,  999.0,  999.0,  999.0,  999.0,  999.0,  999.0,  999.0,  999.0,  999.0,  999.0
2005/12/12 18:20,    6.4,    6.7,    5.3,    5.0,    3.8,    3.7,    3.4,    3.3,    3.3,    3.7,    3.8,    6.1,    6.3,    7.6,    8.4,    6.8,    7.6,    8.2,    5.3,    3.2,    1.6,    1.1,    1.1,    0.8,   -0.7,   -1.5,   -0.1,    1.2,    1.7,    1.4,    0.2,    0.5,    1.3,    1.6,    1.1,    1.4,    1.4,    0.9,    1.8,    2.1,    1.6,    0.5,    0.4,    0.7,    0.2,    0.1,    0.5,    0.8,    0.9,    0.7,    1.0,    0.9,   -0.2,    0.3,    0.0,    0.3,   -0.5,  999.0,   -0.9,   -0.8,   -0.9,   -1.2,   -0.6,   -0.2,   -0.3,    0.4,   -0.3,  999.0,  999.0,    2.9,  999.0,    2.7,  999.0,  999.0,  999.0,  999.0,  999.0,    2.7,    1.1,   -0.2,  999.0,  999.0,  999.0,   -0.8,  999.0,  999.0,  999.0,  999.0,  999.0,  999.0,  999.0,  999.0,  999.0,  999.0,  999.0,  999.0,  999.0,  999.0,  999.0,    1.7,    2.3,    2.8,    1.8,  999.0,  999.0,  999.0,    0.7,    0.1,  999.0,  999.0,  999.0,  999.0,  999.0,  999.0,  999.0,  999.0,  999.0,  999.0,  999.0,  999.0
2005/12/12 18:30,    5.8,    6.4,    5.3,    4.0,    3.7,    3.8,    3.6,    3.3,    2.8,    4.1,    4.8,    6.8,    7.3,    7.6,    7.9,    6.2,    6.5,    6.6,    5.7,    4.7,    1.7,    0.4,    0.9,    0.1,   -0.8,   -1.0,   -0.1,    1.5,    1.8,    1.4,    0.4,    0.7,    1.5,    1.7,    1.2,    1.6,    1.2,    0.9,    1.8,    2.1,    1.7,    0.7,    0.7,    0.8,    0.5,    0.2,    0.6,    0.6,    0.6,    0.9,    1.0,    0.9,    0.7,    0.4,    0.8,    0.7,   -0.1,   -0.6,   -1.1,   -0.4,   -0.9,   -0.8,   -0.3,    0.2,    0.0,    0.4,    0.1,    0.4,  999.0,  999.0,  999.0,    1.7,  999.0,  999.0,  999.0,  999.0,    2.5,    2.3,    1.7,    0.8,  999.0,  999.0,  999.0,  999.0,  999.0,  999.0,  999.0,  999.0,  999.0,  999.0,  999.0,  999.0,  999.0,  999.0,  999.0,  999.0,  999.0,  999.0,  999.0,    2.6,    2.7,    2.8,    2.5,  999.0,  999.0,  999.0,    1.1,    0.2,  999.0,  999.0,  999.0,  999.0,  999.0,  999.0,  999.0,  999.0,  999.0,  999.0,  999.0,  999.0
2005/12/12 18:40,    6.2,    6.6,    6.4,    4.2,    4.4,    3.7,    4.0,  999.0,    4.1,    5.0,    6.0,    6.0,    6.2,    6.5,  999.0,    5.5,    5.1,    4.7,    5.6,    6.0,    3.1,   -0.2,    0.8,   -0.4,   -1.5,   -2.3,   -1.0,    0.6,    1.0,    1.0,    0.3,    0.6,    1.3,    1.6,    1.0,    1.0,    0.9,    1.2,    1.8,    2.0,    1.8,    0.9,    1.3,    1.1,    0.9,    1.1,    0.9,    0.8,    1.5,    1.2,    0.8,    0.9,    1.0,    1.2,    0.9,    0.6,   -0.0,   -0.5,  999.0,   -0.3,   -0.4,  999.0,    0.1,    0.2,    0.4,    0.4,    0.2,    0.3,  999.0,  999.0,  999.0,  999.0,  999.0,  999.0,  999.0,    3.0,    2.1,    2.0,    1.3,    1.0,  999.0,  999.0,  999.0,  999.0,  999.0,  999.0,  999.0,  999.0,  999.0,  999.0,  999.0,  999.0,  999.0,  999.0,  999.0,  999.0,  999.0,  999.0,  999.0,    2.7,    2.8,    2.8,    2.8,  999.0,  999.0,  999.0,  999.0,    0.9,  999.0,  999.0,  999.0,  999.0,  999.0,  999.0,  999.0,  999.0,  999.0,  999.0,  999.0,  999.0
2005/12/12 18:50,    7.4,    6.7,    6.8,    5.8,    5.6,    5.0,    4.8,    4.3,    4.3,    4.2,    4.9,    4.3,    4.5,    5.3,    6.2,    5.6,    6.0,    6.0,    5.7,    5.3,    4.0,    1.9,    1.6,   -0.6,   -1.8,   -2.2,   -0.1,    0.6,    0.8,    0.8,    0.0,    0.6,    1.5,    1.9,    1.2,    1.0,    1.1,    1.4,    1.9,    1.9,    1.9,    1.1,    1.3,    1.5,    1.4,    1.2,    1.3,    1.4,    1.6,    1.1,  999.0,    0.8,    0.9,    1.3,    0.9,    0.4,    0.2,   -0.3,    0.2,   -0.1,    0.2,    0.5,    0.4,    0.1,    0.2,    0.2,    0.6,    0.9,    1.7,    3.3,  999.0,    0.2,  999.0,  999.0,    1.2,    3.0,    1.8,    1.4,    0.9,    2.1,   -0.0,  999.0,  999.0,  999.0,  999.0,  999.0,  999.0,  999.0,  999.0,  999.0,  999.0,  999.0,  999.0,  999.0,  999.0,  999.0,  999.0,  999.0,  999.0,    2.7,    2.6,    2.8,    3.0,  999.0,  999.0,  999.0,    1.4,    0.4,    2.2,  999.0,  999.0,  999.0,  999.0,    1.0,  999.0,  999.0,  999.0,  999.0,  999.0,  999.0
2005/12/12 19:00,    9.2,    6.7,    7.5,    7.3,    6.6,    5.5,    5.2,  999.0,    4.8,    5.1,    5.6,    4.3,    4.6,    5.7,    6.4,    5.9,    6.8,    7.2,    6.9,    5.9,    3.9,    2.8,    2.2,   -0.4,   -1.4,   -0.8,  999.0,    1.0,    0.7,    0.6,    0.0,    0.2,    1.6,    2.2,    2.0,    0.9,    1.4,    1.7,    2.2,    1.5,    1.2,    0.8,    0.9,    1.3,    1.0,    1.0,    1.2,    1.5,    1.3,    0.9,  999.0,    0.9,    0.7,    0.9,    0.4,    0.0,   -0.0,   -0.2,   -0.1,   -0.1,   -0.3,    0.3,   -0.2,    0.1,   -0.2,   -0.1,    0.7,    1.0,    1.8,  999.0,  999.0,  999.0,  999.0,    1.1,    1.5,    2.5,    1.7,    1.4,    0.2,  999.0,  999.0,  999.0,  999.0,  999.0,  999.0,  999.0,  999.0,  999.0,  999.0,  999.0,  999.0,  999.0,  999.0,  999.0,  999.0,  999.0,  999.0,  999.0,  999.0,    3.7,    2.9,    2.8,    3.0,  999.0,  999.0,  999.0,  999.0,  999.0,    1.6,  999.0,  999.0,  999.0,  999.0,  999.0,  999.0,  999.0,  999.0,  999.0,  999.0,  999.0
2005/12/12 19:10,    9.0,    6.6,    7.0,    6.9,    6.8,    5.7,    5.6,    4.9,    4.7,    5.1,    5.1,    4.5,    4.4,    6.2,    6.5,    6.2,    7.4,    7.0,    7.0,  999.0,    4.2,    2.9,    2.2,   -0.2,   -0.6,   -0.5,    0.7,    1.1,    0.8,    0.8,    0.0,    0.4,    1.5,    2.4,    2.2,    1.3,    1.8,    1.8,    2.0,    1.3,    1.3,    0.7,    0.6,    1.0,    0.9,    1.1,    1.2,    1.3,    0.5,    0.3,  999.0,    1.0,    0.6,    0.6,   -0.0,  999.0,    0.0,    0.1,   -0.8,   -1.1,   -0.3,   -0.2,   -0.7,    0.1,    0.0,   -0.0,    0.7,    0.4,    1.9,  999.0,  999.0,  999.0,  999.0,    1.1,    1.9,    2.5,    1.7,    1.4,  999.0,  999.0,  999.0,  999.0,  999.0,  999.0,  999.0,  999.0,  999.0,    1.6,  999.0,  999.0,  999.0,  999.0,  999.0,  999.0,  999.0,  999.0,  999.0,  999.0,  999.0,    3.9,    3.1,    2.9,    3.2,    3.4,  999.0,  999.0,  999.0,  999.0,  999.0,  999.0,  999.0,  999.0,  999.0,  999.0,  999.0,  999.0,  999.0,  999.0,  999.0,  999.0
2005/12/12 19:20,    9.0,    6.4,    7.2,    7.2,    6.2,    5.4,    4.5,    4.5,    4.7,    5.4,    5.8,    5.5,    5.6,    6.6,    6.7,    6.2,    7.3,    6.6,    6.7,    5.7,    4.6,    3.0,    1.3,    0.6,    0.2,   -0.8,   -0.1,    1.1,    1.2,    0.9,    0.2,  999.0,    1.4,    2.1,    2.0,    1.4,    1.4,    1.2,    1.6,    0.5,    0.5,    0.4,    0.7,    1.0,    0.6,    0.5,    0.6,    0.6,   -0.2,    0.0,    0.8,    0.7,    0.1,    0.1,   -0.5,  999.0,   -0.3,   -0.4,   -0.5,   -1.4,   -1.2,   -1.1,   -0.6,   -0.3,    0.2,    0.1,    0.7,    0.3,    1.9,    0.3,    1.1,  999.0,    1.7,    1.2,    1.1,    1.1,    1.1,    1.1,  999.0,    1.8,  999.0,  999.0,  999.0,  999.0,  999.0,  999.0,  999.0,    1.8,  999.0,  999.0,  999.0,  999.0,  999.0,    1.9,  999.0,  999.0,  999.0,  999.0,  999.0,    3.8,    3.3,    3.0,    3.0,    2.8,  999.0,  999.0,    0.0,  999.0,  999.0,  999.0,  999.0,  999.0,  999.0,  999.0,  999.0,  999.0,  999.0,  999.0,  999.0,  999.0
2005/12/12 19:30,    8.2,  999.0,    6.4,    6.8,    6.1,    4.8,    4.0,    4.2,    3.5,    4.8,    5.6,    6.4,    6.6,    7.3,    6.8,    6.3,    6.9,    6.3,    5.9,    5.5,    3.9,    2.6,    0.8,   -0.0,   -0.3,   -0.5,    0.0,    1.5,    1.5,    0.9,    0.3,  999.0,    1.0,    2.0,    1.1,    1.4,    1.0,    0.8,    1.0,    0.3,    0.2,    0.2,    0.7,    0.7,    0.6,    0.3,    0.4,    0.6,   -0.0,   -0.3,   -0.1,   -0.1,   -0.5,   -0.3,   -0.4,   -0.4,    0.0,   -0.7,   -1.7,   -1.4,   -1.5,   -1.0,   -0.1,   -0.2,    0.3,    0.4,    0.7,    0.9,    1.6,  999.0,    0.9,    2.8,  999.0,  999.0,    0.4,    1.0,    1.4,    1.6,   -0.2,    1.8,  999.0,  999.0,  999.0,  999.0,  999.0,  999.0,  999.0,  999.0,  999.0,  999.0,  999.0,  999.0,  999.0,  999.0,  999.0,  999.0,  999.0,  999.0,  999.0,  999.0,    3.2,    2.8,    2.8,    3.2,  999.0,  999.0,  999.0,  999.0,  999.0,  999.0,  999.0,  999.0,  999.0,  999.0,  999.0,  999.0,  999.0,  999.0,  999.0,  999.0
2005/12/12 19:40,    7.7,    6.1,    6.1,    6.3,    5.3,    3.9,    2.8,    3.1,    3.3,    4.8,    5.6,    6.4,    7.3,    7.3,    6.6,    6.2,    6.9,    6.4,    5.3,    5.1,    3.5,    3.0,    0.7,   -0.0,   -0.4,   -0.1,    1.1,    1.6,    1.6,    0.7,    0.4,    0.2,    0.7,    1.6,    0.9,    0.6,    0.6,    0.5,    0.8,    0.5,    0.4,    0.5,    0.7,    0.8,    0.5,    0.0,    0.3,    0.6,    0.3,   -0.5,    0.3,    0.3,   -0.3,   -0.2,  999.0,    0.3,    0.6,   -0.4,   -0.9,   -1.1,   -0.7,   -0.7,    0.0,    0.2,    0.4,    0.4,    0.5,    0.9,    1.4,  999.0,  999.0,  999.0,  999.0,  999.0,    0.4,    0.2,    0.7,    0.9,    0.1,  999.0,  999.0,  999.0,  999.0,  999.0,  999.0,  999.0,  999.0,  999.0,  999.0,  999.0,  999.0,  999.0,  999.0,  999.0,  999.0,  999.0,    3.3,  999.0,  999.0,  999.0,    3.1,    2.4,    1.8,    2.6,    1.9,  999.0,  999.0,  999.0,  999.0,  999.0,  999.0,  999.0,  999.0,  999.0,  999.0,  999.0,  999.0,  999.0,  999.0,  999.0
2005/12/12 19:50,    6.3,    5.9,    5.8,    5.3,    3.7,    3.4,  999.0,    2.0,    3.8,    4.0,    6.2,    8.0,    8.6,    7.9,    9.3,    8.4,    8.0,    7.3,    5.1,    4.6,    4.0,    3.1,    1.1,    0.2,   -0.4,    0.4,    1.0,    1.7,    1.2,    0.7,    0.5,   -0.1,    0.6,    1.1,    0.8,    0.9,    0.5,    1.0,    1.3,    0.8,    0.6,    1.0,    1.2,    0.8,    0.4,   -0.3,    0.5,    0.9,    0.3,   -0.4,    0.7,    0.2,    0.0,    0.0,  999.0,    0.6,    0.5,   -0.1,  999.0,   -1.2,   -0.5,  999.0,   -0.1,    0.8,    0.4,    0.2,    0.3,    0.9,  999.0,  999.0,  999.0,  999.0,  999.0,  999.0,    0.5,   -0.1,  999.0,    0.6,  999.0,  999.0,  999.0,  999.0,  999.0,  999.0,  999.0,  999.0,  999.0,   -2.4,  999.0,  999.0,  999.0,  999.0,   -2.3,  999.0,  999.0,  999.0,  999.0,  999.0,  999.0,  999.0,    3.7,    2.6,    1.8,    2.0,    0.9,  999.0,   -1.0,  999.0,  999.0,  999.0,  999.0,  999.0,  999.0,  999.0,  999.0,  999.0,  999.0,   -2.4,  999.0,  999.0
2005/12/12 20:00,    6.7,    5.9,    5.2,    4.6,    2.8,    3.2,    2.9,    2.0,    2.6,    3.5,    5.1,    7.6,    8.2,    7.9,    9.5,    9.1,    8.2,    8.4,    6.8,    4.2,    4.0,    2.6,    1.5,    0.6,   -0.2,    0.2,    0.7,    1.4,    1.1,    0.8,    0.3,    0.1,    0.3,    1.0,    1.3,    1.5,    0.8,    1.2,    1.4,    0.6,    0.6,    1.2,    1.1,    0.6,    0.2,   -0.4,    0.1,    0.5,   -0.2,   -0.6,   -0.1,   -0.2,   -0.5,   -0.5,    1.0,   -0.2,    0.2,   -0.6,   -0.5,   -1.1,    0.1,    0.3,    0.2,    1.0,    0.6,    0.3,    0.6,    1.1,  999.0,  999.0,  999.0,    1.5,  999.0,    1.4,    0.6,   -0.4,  999.0,  999.0,  999.0,  999.0,  999.0,  999.0,  999.0,  999.0,  999.0,  999.0,  999.0,  999.0,  999.0,  999.0,  999.0,  999.0,  999.0,  999.0,  999.0,  999.0,  999.0,  999.0,  999.0,  999.0,    3.4,    2.3,    2.0,    1.7,    0.8,  999.0,   -1.6,  999.0,  999.0,  999.0,  999.0,  999.0,  999.0,  999.0,  999.0,  999.0,  999.0,  999.0,  999.0,  999.0
2005/12/12 20:10,    5.4,    4.8,    3.9,    3.9,    2.8,    2.7,    2.7,    2.0,    1.8,    2.0,    2.2,    4.4,    5.8,    6.5,    7.0,    7.3,    6.7,    6.6,    5.9,    5.0,    3.8,    2.8,    1.3,    0.3,   -0.8,   -0.8,   -0.1,    1.4,    1.1,    0.7,    0.1,   -0.2,    0.4,    1.4,    1.9,    2.0,    1.5,    1.5,    1.7,    1.0,    0.9,    2.0,    1.7,    1.0,    0.5,    0.3,    0.7,    0.8,   -0.1,   -0.5,    0.0,   -0.1,    0.5,   -0.1,    0.6,   -0.1,    0.2,   -0.2,   -0.4,   -0.4,    0.6,    1.1,    0.6,    1.1,    0.9,    0.0,    0.1,    0.8,    0.1,  999.0,   -0.9,    0.6,    1.1,    0.7,    0.9,    0.7,  999.0,    0.7,  999.0,  999.0,  999.0,   -2.1,  999.0,  999.0,  999.0,  999.0,  999.0,  999.0,  999.0,  999.0,  999.0,  999.0,  999.0,  999.0,  999.0,  999.0,  999.0,  999.0,  999.0,  999.0,    3.5,    3.2,    1.6,    1.7,  999.0,  999.0,   -1.9,  999.0,  999.0,  999.0,  999.0,  999.0,  999.0,  999.0,  999.0,  999.0,  999.0,  999.0,  999.0,  999.0
2005/12/12 20:20,    5.0,    4.0,    3.5,    4.4,    4.0,    2.6,    2.7,    2.1,    0.8,    0.3,    0.5,    3.1,    4.5,    6.1,    6.3,    6.0,    5.3,    4.2,    4.8,  999.0,    2.9,    2.8,    1.7,    0.2,   -0.7,   -0.8,    0.3,    1.1,    1.1,    0.7,    0.2,   -0.1,    0.4,    1.3,    1.6,    1.6,    1.6,    0.6,    1.1,    1.0,    0.7,    1.7,    1.8,    1.0,    0.7,    0.4,    0.6,    0.4,    0.1,   -0.6,   -0.1,   -0.8,   -0.2,    0.3,    0.4,    0.6,    0.7,    0.3,    0.3,    0.5,    0.8,    1.8,    0.8,    1.1,    1.3,   -0.3,    0.1,    1.1,    0.1,  999.0,   -2.3,    0.8,    1.2,    1.7,    0.8,    1.1,    0.0,  999.0,  999.0,  999.0,  999.0,  999.0,  999.0,  999.0,  999.0,  999.0,  999.0,  999.0,  999.0,  999.0,  999.0,  999.0,  999.0,  999.0,  999.0,  999.0,  999.0,  999.0,  999.0,  999.0,    3.7,    3.9,    1.7,    1.3,  999.0,   -2.3,   -2.3,  999.0,  999.0,  999.0,  999.0,  999.0,  999.0,  999.0,  999.0,  999.0,  999.0,  999.0,  999.0,  999.0
2005/12/12 20:30,    3.9,    3.7,    3.4,    4.2,    4.6,    4.2,    3.7,    2.3,    0.5,    0.0,    0.2,    0.8,    3.6,    4.8,    4.9,    5.3,    4.6,    4.8,    5.1,    4.6,    3.2,    3.1,    2.1,    0.6,   -0.6,   -0.5,    0.6,    1.5,    1.4,    0.5,    0.3,    0.1,    0.3,    0.9,    1.4,    1.9,    1.7,    1.0,    1.3,    1.4,    1.6,    2.1,    2.3,    1.6,    1.3,    0.8,    0.8,    0.6,    0.2,   -0.1,    0.1,   -0.3,   -0.4,   -0.1,    0.7,    1.1,    0.6,    0.7,    0.3,    0.5,    1.0,    1.6,    0.7,    1.0,    1.5,    0.1,    0.2,    3.4,    0.4,  999.0,    0.2,    0.1,   -0.1,    0.8,    0.4,    1.2,    1.2,  999.0,    1.5,    0.2,  999.0,  999.0,  999.0,  999.0,  999.0,  999.0,  999.0,  999.0,  999.0,  999.0,    2.9,  999.0,  999.0,  999.0,  999.0,  999.0,  999.0,  999.0,  999.0,  999.0,    3.4,    3.9,    1.7,    0.6,   -0.2,   -2.8,   -2.5,  999.0,  999.0,  999.0,  999.0,  999.0,  999.0,  999.0,  999.0,  999.0,  999.0,  999.0,  999.0,  999.0
2005/12/12 20:40,    3.8,    3.4,    3.6,    2.5,    3.7,    5.2,    4.6,    3.3,    1.0,    0.1,   -0.5,   -0.8,    2.4,    3.8,    4.1,    4.0,    4.3,    4.4,    5.2,    4.6,    4.1,    3.6,  999.0,    0.9,   -0.3,   -0.4,    1.0,    1.7,    0.8,   -0.1,    0.2,   -1.0,   -0.2,    0.6,    1.5,    2.0,    1.5,    0.9,    0.8,    0.8,    1.3,    1.7,    2.1,    1.6,    1.2,    0.9,    0.8,    0.6,    0.5,    0.2,    0.2,   -0.0,   -0.2,   -0.0,    0.7,    1.3,    0.6,    0.6,    0.7,    0.7,    1.0,    1.3,    0.5,    1.0,    1.6,    0.4,    0.6,  999.0,  999.0,  999.0,    1.3,    1.3,    0.6,    0.9,    0.8,    1.7,    1.3,    2.6,  999.0,   -0.1,  999.0,  999.0,  999.0,  999.0,  999.0,  999.0,  999.0,  999.0,  999.0,  999.0,  999.0,  999.0,  999.0,  999.0,  999.0,  999.0,  999.0,  999.0,  999.0,  999.0,    2.9,    3.6,    1.8,   -0.0,   -1.7,   -3.0,   -2.2,  999.0,  999.0,  999.0,  999.0,  999.0,  999.0,  999.0,  999.0,  999.0,  999.0,  999.0,  999.0,  999.0
2005/12/12 20:50,    3.6,    3.4,    3.1,    2.0,    2.7,    4.8,    5.2,    4.2,    2.1,    0.8,   -0.2,   -1.0,    2.0,    3.2,    3.4,    3.6,    4.0,    4.3,    5.3,    4.9,    4.5,    4.2,    2.8,    0.9,   -0.0,   -0.4,    1.1,    1.3,   -0.0,   -0.1,    0.1,   -0.1,  999.0,    0.3,    1.4,    2.1,    1.4,    0.9,    0.8,    0.9,    1.1,    1.6,    2.3,    2.2,    1.3,    1.3,    1.3,    0.9,    0.9,    0.6,    0.6,    0.5,    0.1,  999.0,    1.4,    1.5,    1.0,    0.5,    1.4,    0.6,    1.0,    1.1,    0.3,    0.7,    1.0,    0.4,    0.6,    1.3,  999.0,   -0.1,    1.1,    1.4,    0.2,    0.5,    0.7,    2.0,    0.3,    0.6,  999.0,  999.0,  999.0,  999.0,  999.0,  999.0,  999.0,  999.0,  999.0,  999.0,  999.0,  999.0,  999.0,  999.0,  999.0,  999.0,  999.0,  999.0,  999.0,  999.0,  999.0,  999.0,    2.9,    3.6,    1.7,   -0.2,   -1.8,   -3.0,   -1.8,   -1.2,  999.0,  999.0,  999.0,    1.6,  999.0,  999.0,  999.0,  999.0,  999.0,  999.0,  999.0,  999.0
2005/12/12 21:00,    3.8,    3.5,    3.3,    1.8,    2.6,    4.8,    5.3,    4.8,    2.5,    1.3,   -0.0,   -1.3,    0.7,    2.0,    2.4,    3.1,    3.7,    3.9,    4.9,    5.1,    4.9,    4.4,    3.4,    1.7,   -0.2,   -0.9,    1.1,    0.8,   -1.2,   -0.6,   -0.5,    1.1,    0.3,    0.3,    1.4,    2.1,    1.4,    1.6,    1.1,    0.9,    1.1,    2.0,    2.5,    2.6,    2.3,    2.0,    2.4,    1.4,    1.5,    1.7,    2.0,    1.8,    1.3,    1.4,    1.7,    1.6,    0.9,    0.7,    0.7,    0.7,    1.0,    1.5,    0.5,    0.6,    0.6,    0.6,    1.0,    1.1,  999.0,  999.0,    1.5,    1.6,    1.2,    1.3,    1.2,    2.3,    0.2,  999.0,  999.0,  999.0,  999.0,  999.0,  999.0,    0.4,   -0.4,  999.0,  999.0,  999.0,  999.0,  999.0,  999.0,  999.0,  999.0,  999.0,  999.0,  999.0,  999.0,  999.0,  999.0,  999.0,    3.2,    3.5,    1.5,   -0.3,   -2.3,   -2.6,   -2.0,   -1.1,  999.0,  999.0,  999.0,  999.0,  999.0,  999.0,  999.0,  999.0,  999.0,  999.0,  999.0,  999.0
2005/12/12 21:10,    3.6,    3.6,    3.3,    2.8,    2.8,    4.7,    5.4,    4.7,    2.9,    1.7,   -0.2,   -1.4,   -0.8,    0.8,    1.4,    2.1,    3.5,    3.1,    3.9,    4.9,    4.8,    4.2,    3.8,    2.3,    0.3,   -0.6,    0.6,    0.3,   -1.0,   -0.6,    0.1,    0.5,    0.7,    1.0,    1.3,    1.9,    1.9,    1.7,    1.7,    1.7,    1.5,    2.4,    2.6,    2.6,    2.0,    2.2,    2.0,    1.5,    1.4,    1.3,    1.4,    1.6,    1.7,    0.9,    1.2,    1.1,    0.7,    0.6,    0.6,    0.5,    0.6,    1.7,    0.9,    0.5,    0.3,    0.4,    0.3,    0.7,    0.3,  999.0,    2.0,    1.7,    1.8,    2.0,    1.4,    1.4,   -0.6,  999.0,  999.0,  999.0,  999.0,  999.0,  999.0,    0.2,    0.7,  999.0,  999.0,  999.0,  999.0,  999.0,  999.0,  999.0,  999.0,  999.0,  999.0,  999.0,  999.0,  999.0,  999.0,  999.0,    2.7,    2.4,    1.1,   -0.4,   -2.1,   -2.3,   -2.1,  999.0,  999.0,  999.0,  999.0,  999.0,  999.0,  999.0,  999.0,  999.0,  999.0,  999.0,  999.0,  999.0
2005/12/12 21:20,    3.7,    3.7,    3.7,    3.2,  999.0,    4.7,    5.8,    4.9,    4.0,    1.2,   -0.7,   -1.5,   -1.1,    0.6,    1.2,    2.3,    3.1,    2.9,    3.4,    4.4,    4.5,    4.4,    4.0,    3.3,    1.4,   -1.2,    0.0,    0.5,  999.0,  999.0,    0.2,    1.7,    0.9,    0.8,    1.7,    2.4,    2.0,    2.1,    1.9,    2.2,    2.4,    2.7,    2.7,    2.5,    2.6,    2.5,    1.9,    2.2,    2.3,    1.6,    2.0,    1.8,    1.3,    1.2,    0.5,    1.7,    0.7,    1.3,    0.6,    0.9,    0.8,    1.4,    1.3,    0.4,    0.3,    0.4,   -0.5,    1.0,  999.0,  999.0,    3.5,    1.3,    2.8,    3.0,    2.2,  999.0,    0.2,   -0.1,   -0.7,   -0.1,  999.0,   -0.1,   -1.9,  999.0,    0.6,    0.6,   -0.2,  999.0,  999.0,  999.0,  999.0,  999.0,  999.0,  999.0,  999.0,  999.0,  999.0,  999.0,  999.0,    0.5,    2.9,    2.4,    1.5,   -0.8,   -2.6,   -2.7,   -1.9,  999.0,  999.0,  999.0,  999.0,  999.0,  999.0,  999.0,  999.0,  999.0,  999.0,  999.0,  999.0,  999.0
2005/12/12 21:30,    3.0,    3.2,    3.9,    3.5,  999.0,    4.5,    5.7,    4.5,    4.4,    2.2,    0.2,   -0.9,   -1.3,   -1.2,   -0.1,    1.6,    2.8,    3.3,    3.6,    4.4,    4.6,    4.5,    3.9,    2.7,    1.8,    0.3,    1.1,    0.5,   -0.6,   -0.4,  999.0,  999.0,    1.3,    1.3,    1.5,    2.5,    2.1,    2.3,    2.3,    2.7,    2.9,    3.0,    3.1,    2.9,    3.3,    3.0,    2.3,    1.6,    2.4,    1.6,    1.2,    1.5,    0.8,   -0.4,    0.6,    1.2,    0.8,    0.4,    0.2,   -0.0,   -0.5,    0.7,    0.3,    0.3,    0.0,   -0.1,   -0.1,  999.0,  999.0,    1.5,    1.3,    1.1,    1.8,    2.0,    0.9,    0.4,  999.0,    0.2,   -0.2,   -0.4,  999.0,   -0.4,  999.0,  999.0,    0.3,    0.5,   -0.1,  999.0,  999.0,  999.0,  999.0,  999.0,  999.0,  999.0,  999.0,  999.0,  999.0,  999.0,  999.0,  999.0,    2.4,    0.9,    0.1,   -0.9,   -2.6,   -2.2,   -1.6,  999.0,  999.0,  999.0,  999.0,  999.0,  999.0,  999.0,  999.0,  999.0,  999.0,  999.0,  999.0,   -3.7
2005/12/12 21:40,    3.5,    3.3,    4.1,  999.0,    3.3,    4.1,    6.1,    5.0,    4.3,    3.4,    1.0,   -1.1,   -1.7,   -1.5,   -0.7,    1.7,    2.2,    2.9,    3.6,    4.8,    4.7,    4.6,    3.9,    2.7,    1.5,    0.6,    1.6,    0.7,   -0.4,   -0.4,    0.2,    1.8,    1.3,    1.3,    1.5,    2.0,    1.9,    2.2,    2.2,    3.2,    3.2,    3.5,    3.2,    2.8,    3.3,    3.1,    2.0,    1.4,    2.0,    1.0,    1.3,    1.0,    0.5,   -0.1,   -0.3,    1.2,    0.7,    0.9,   -0.0,   -0.1,   -0.7,   -0.1,    0.2,    0.0,    0.0,   -0.2,    0.1,  999.0,    0.6,    1.8,    1.3,    0.8,    1.5,    0.7,    0.9,    0.2,    0.1,    0.2,  999.0,  999.0,    0.5,   -0.6,  999.0,  999.0,  999.0,  999.0,   -0.3,  999.0,  999.0,  999.0,  999.0,  999.0,  999.0,  999.0,  999.0,  999.0,  999.0,  999.0,  999.0,  999.0,    1.9,    0.4,   -0.3,   -0.9,   -2.7,   -2.6,   -1.6,  999.0,  999.0,  999.0,  999.0,  999.0,  999.0,  999.0,  999.0,  999.0,  999.0,  999.0,  999.0,  999.0
2005/12/12 21:50,    4.0,    4.0,    4.8,    4.1,    3.8,    4.3,    6.6,    6.4,    4.8,    4.5,    2.5,    0.1,   -1.5,   -1.7,   -1.1,    0.5,    1.7,    3.0,    4.0,    4.7,    4.8,    4.7,    3.4,    2.4,    1.8,    1.4,    2.5,    1.1,   -0.4,    0.3,    0.5,    1.7,    1.6,    1.4,    1.8,    2.0,    1.8,    1.8,    2.1,    3.2,    3.5,    4.0,    3.8,    3.1,    3.2,    2.3,    1.5,    1.2,    0.7,   -0.1,   -0.1,   -0.1,   -0.9,   -1.1,   -0.6,    0.5,    0.1,   -0.1,   -0.8,   -0.6,   -0.8,   -0.2,    0.1,    0.3,    0.2,   -0.1,    0.5,    2.5,    1.3,    1.7,    1.1,    0.9,    1.0,    1.0,    0.8,  999.0,    0.4,    1.1,    1.1,    0.1,  999.0,  999.0,  999.0,    1.5,  999.0,  999.0,   -0.2,  999.0,  999.0,  999.0,  999.0,  999.0,  999.0,  999.0,  999.0,  999.0,  999.0,  999.0,  999.0,    1.7,    1.4,    0.6,   -0.1,   -0.5,   -2.6,   -2.3,  999.0,  999.0,  999.0,  999.0,  999.0,  999.0,  999.0,  999.0,  999.0,  999.0,  999.0,  999.0,  999.0,  999.0
2005/12/12 22:00,    5.4,    5.0,    5.2,    4.2,    4.4,    4.6,    6.7,    7.5,    5.2,    4.8,    3.5,    1.0,   -0.4,   -1.3,   -0.9,    0.1,    2.0,    3.2,    4.8,    4.7,    4.7,    4.8,    3.9,    2.2,    2.3,    2.0,    3.0,    2.2,    0.3,    0.8,    0.9,    2.2,    1.8,    1.6,    1.7,    2.1,    1.8,    1.6,    1.8,    3.0,    3.3,    4.0,    3.6,    3.3,    3.2,    2.0,    1.7,    1.3,    1.1,    0.1,   -0.3,   -0.2,   -0.9,   -1.1,   -0.5,    0.0,   -0.0,    0.1,   -0.6,   -0.4,    0.2,    0.1,    0.4,    0.3,    0.3,    0.2,    0.5,  999.0,    1.2,  999.0,    0.8,    0.3,    1.1,    0.9,    0.4,  999.0,    0.6,    0.8,  999.0,   -1.5,  999.0,  999.0,  999.0,  999.0,  999.0,  999.0,  999.0,  999.0,  999.0,  999.0,  999.0,  999.0,  999.0,  999.0,  999.0,  999.0,  999.0,  999.0,  999.0,  999.0,    1.3,    1.1,    0.6,   -0.4,   -1.8,  999.0,  999.0,  999.0,  999.0,  999.0,  999.0,  999.0,  999.0,  999.0,  999.0,  999.0,  999.0,  999.0,  999.0,  999.0
2005/12/12 22:10,    6.0,    5.7,    5.2,    4.5,    4.9,    4.8,    6.3,    7.4,    5.5,    5.0,    4.3,    1.9,    0.4,   -0.3,   -0.3,    0.2,    2.1,    3.6,    4.9,    4.7,    4.7,    4.9,    4.3,    3.0,    2.6,    2.1,    3.0,    2.4,    0.6,    0.6,    1.0,    2.1,    1.8,    2.0,    2.6,    3.0,    2.2,    2.0,    2.6,    3.4,    3.5,    4.3,    3.4,    2.9,    2.5,    1.7,    1.1,    1.1,    0.8,   -0.1,   -0.4,   -0.2,   -0.7,   -1.0,   -0.8,   -0.4,   -0.3,   -0.2,   -0.9,   -0.6,   -0.2,    0.5,    0.3,    0.4,    0.3,    0.4,    0.6,    1.5,    1.0,    0.5,    0.6,    0.6,    1.5,    0.8,    0.3,  999.0,  999.0,  999.0,  999.0,  999.0,  999.0,  999.0,   -0.4,  999.0,  999.0,  999.0,  999.0,  999.0,  999.0,  999.0,  999.0,  999.0,  999.0,  999.0,  999.0,  999.0,  999.0,  999.0,  999.0,  999.0,    0.7,    0.8,    0.6,    0.1,   -1.6,  999.0,  999.0,  999.0,  999.0,  999.0,  999.0,  999.0,  999.0,  999.0,  999.0,  999.0,  999.0,  999.0,  999.0,  999.0
2005/12/12 22:20,  999.0,  999.0,    4.4,    5.8,    5.0,    3.6,    6.2,  999.0,  999.0,  999.0,  999.0,    4.0,    2.1,    0.4,    0.2,    0.6,    2.0,    4.1,    4.8,    4.8,    5.1,    5.3,    4.9,    4.1,    3.7,    3.3,    3.1,    2.0,    0.5,    0.5,    1.1,    2.6,    2.4,    2.6,    3.4,    3.5,    2.7,    2.4,    2.9,    3.8,    3.9,    4.4,    3.3,    2.5,    1.7,    1.8,    1.0,    1.0,    0.2,   -0.2,   -0.5,    0.1,   -0.4,   -1.0,   -0.6,   -0.6,   -0.3,   -0.8,   -1.0,   -0.3,    0.4,    1.1,    0.7,    0.8,    0.4,    0.5,    0.6,    1.8,    1.6,    0.6,    1.0,    0.8,    1.0,   -0.3,   -0.6,    0.1,  999.0,  999.0,  999.0,  999.0,  999.0,  999.0,  999.0,  999.0,  999.0,  999.0,  999.0,  999.0,  999.0,  999.0,  999.0,  999.0,  999.0,  999.0,  999.0,  999.0,  999.0,  999.0,  999.0,  999.0,    0.1,    0.3,    0.8,    0.1,  999.0,  999.0,  999.0,  999.0,  999.0,  999.0,  999.0,  999.0,  999.0,  999.0,  999.0,  999.0,  999.0,  999.0,  999.0,  999.0
2005/12/12 22:30,  999.0,  999.0,    4.9,    5.9,    5.9,    6.0,  999.0,  999.0,  999.0,  999.0,  999.0,  999.0,    2.6,    0.4,    0.1,    0.7,    2.0,    4.3,    5.0,    5.0,    5.4,    5.4,    4.9,    4.1,    3.5,    2.9,    2.8,    1.6,    0.5,    0.5,    1.3,    3.2,    3.2,    3.2,    4.0,    4.2,    3.3,    2.5,    2.9,    4.0,    3.9,    4.2,    3.3,    2.5,    2.1,    1.4,    1.0,    0.9,    0.1,   -0.2,   -0.4,    0.2,   -0.4,   -1.0,   -0.8,   -0.4,   -0.3,  999.0,   -0.4,    0.0,    0.3,    0.9,    0.6,    0.8,    0.8,    0.7,    0.8,    1.6,    1.9,    1.1,    1.0,  999.0,  999.0,  999.0,  999.0,    1.0,  999.0,  999.0,  999.0,  999.0,  999.0,  999.0,  999.0,  999.0,  999.0,  999.0,  999.0,  999.0,  999.0,  999.0,  999.0,  999.0,  999.0,  999.0,  999.0,  999.0,  999.0,  999.0,  999.0,  999.0,   -0.7,    0.1,    0.5,    0.5,  999.0,  999.0,  999.0,  999.0,  999.0,  999.0,  999.0,  999.0,  999.0,  999.0,  999.0,  999.0,  999.0,  999.0,  999.0,  999.0
2005/12/12 22:40,  999.0,    5.3,    4.8,    5.4,    6.1,    5.9,    5.7,    7.4,  999.0,    5.1,    3.3,    2.7,    1.9,    0.3,    0.1,    0.4,    0.9,    2.9,    4.6,    5.1,    5.6,    5.7,    5.1,    3.9,    3.1,    3.3,    2.7,    1.4,    0.6,    0.8,    2.1,    3.4,    3.7,    3.8,    4.2,    4.4,    3.2,    3.1,    3.4,    4.4,    3.9,    4.1,    3.3,    2.4,    1.9,    1.3,    0.7,    0.2,   -0.0,   -0.4,   -0.7,   -0.4,   -0.9,   -0.9,   -0.3,   -0.1,   -0.2,   -0.4,  999.0,    0.8,    0.5,    1.4,    0.6,    0.8,    1.0,    0.7,    1.2,    1.5,    1.3,    1.5,    1.3,  999.0,  999.0,  999.0,   -0.1,    0.4,  999.0,  999.0,   -0.6,  999.0,  999.0,  999.0,  999.0,  999.0,  999.0,  999.0,  999.0,  999.0,  999.0,  999.0,  999.0,  999.0,  999.0,  999.0,  999.0,  999.0,  999.0,  999.0,  999.0,  999.0,   -0.8,   -0.0,   -0.2,    0.3,  999.0,  999.0,  999.0,  999.0,  999.0,  999.0,  999.0,  999.0,  999.0,  999.0,  999.0,  999.0,  999.0,  999.0,  999.0,  999.0
2005/12/12 22:50,    4.7,    4.9,    4.9,    5.1,    6.2,    6.3,    5.9,  999.0,  999.0,  999.0,    3.0,    1.6,    0.8,    0.2,    0.1,   -0.1,    0.5,    2.4,    3.9,    4.9,    5.4,    5.5,    5.3,    3.8,    2.9,    3.1,    1.9,    1.2,    0.3,    0.9,    2.1,    3.2,    3.5,    3.6,    3.8,    4.0,    3.3,    3.4,    3.5,    4.7,    3.9,    4.3,    3.3,    2.6,    2.0,    0.8,    1.0,   -0.0,   -0.5,   -0.9,   -0.9,   -1.0,   -1.7,   -1.3,   -0.2,    0.4,   -0.1,  999.0,    0.7,    0.9,    0.6,    1.6,    0.4,    0.7,    0.9,    0.7,    1.1,    1.6,    1.5,    1.4,    1.1,    0.1,    1.2,    0.4,    0.5,    0.0,   -0.7,    0.4,   -0.7,  999.0,  999.0,  999.0,  999.0,  999.0,  999.0,  999.0,  999.0,  999.0,  999.0,  999.0,  999.0,  999.0,  999.0,  999.0,  999.0,  999.0,  999.0,  999.0,  999.0,  999.0,   -0.6,   -0.3,   -0.1,   -0.2,  999.0,  999.0,  999.0,  999.0,  999.0,  999.0,  999.0,  999.0,  999.0,  999.0,  999.0,  999.0,  999.0,  999.0,  999.0,  999.0
2005/12/12 23:00,    4.2,    5.2,    4.8,    4.9,    5.6,    6.1,    6.0,    7.3,    6.2,    5.3,    2.8,    1.1,    0.0,   -0.1,    0.3,   -0.2,    0.2,    2.0,    3.7,    4.7,    5.5,    5.4,    5.1,    3.8,    2.8,    3.1,    1.6,    1.2,    0.4,    0.8,    2.1,    3.1,    3.4,    3.3,    3.8,    3.8,    3.5,    3.6,    3.5,    4.4,    4.0,    4.4,    3.4,    2.7,    2.0,    1.0,    0.9,    0.1,   -0.2,   -1.2,   -1.2,   -1.1,   -1.7,   -0.7,   -0.3,    0.3,   -0.4,   -0.4,   -0.0,    0.5,    0.9,    1.2,    0.4,    0.7,    0.8,    0.5,    0.7,    1.4,    1.3,    0.6,    0.3,   -0.3,    0.4,   -0.2,    0.2,   -0.2,   -0.9,    0.0,  999.0,   -1.6,  999.0,  999.0,  999.0,  999.0,    0.0,  999.0,  999.0,  999.0,  999.0,  999.0,  999.0,  999.0,  999.0,  999.0,  999.0,  999.0,  999.0,  999.0,   -0.2,  999.0,    0.1,   -0.2,   -0.1,   -0.1,  999.0,  999.0,  999.0,  999.0,  999.0,  999.0,  999.0,  999.0,  999.0,  999.0,  999.0,  999.0,  999.0,  999.0,  999.0,  999.0
2005/12/12 23:10,    3.2,    5.0,    4.7,    4.3,    5.2,    5.3,    5.3,    7.2,    6.2,    5.0,    3.4,   -0.0,    0.1,    0.0,   -0.1,   -0.1,    0.1,    1.9,    3.7,    4.9,    5.2,    5.1,    4.7,    4.0,  999.0,    2.8,    2.3,    0.9,    0.4,    0.7,    2.0,    2.9,    3.5,    3.4,    4.0,    4.1,    3.6,    3.8,    3.2,    4.3,    4.0,    4.6,    3.9,    3.1,    2.3,    1.3,    0.9,    0.4,    0.3,   -1.0,   -1.2,   -0.9,   -1.3,   -0.1,    0.0,    0.7,   -0.2,   -0.5,   -0.4,    0.3,    0.9,    1.2,    0.2,    0.3,    0.6,    0.4,    0.7,    0.7,    0.3,    0.7,    0.0,    0.1,   -0.3,   -0.4,   -0.3,   -0.5,  999.0,  999.0,  999.0,    1.7,  999.0,  999.0,  999.0,  999.0,    0.9,  999.0,  999.0,  999.0,  999.0,  999.0,  999.0,  999.0,  999.0,  999.0,  999.0,  999.0,  999.0,  999.0,  999.0,  999.0,    0.5,   -0.3,   -0.1,    0.1,  999.0,  999.0,  999.0,   -2.2,  999.0,  999.0,  999.0,  999.0,  999.0,  999.0,  999.0,  999.0,  999.0,  999.0,  999.0,  999.0
2005/12/12 23:20,    3.9,    4.7,    4.5,    4.3,    5.1,    5.2,    4.7,    7.0,    5.9,    4.4,    3.5,    0.6,    0.6,   -0.1,   -0.2,    0.0,    0.3,    1.8,    3.7,    4.4,    5.0,    4.7,    4.3,    3.9,    2.8,    2.8,    2.8,    0.7,    0.5,    0.8,    2.5,    3.5,    4.0,    4.0,    4.5,    4.7,    3.9,    4.0,    3.4,    4.0,    4.2,    4.6,    4.0,    3.3,    2.5,    1.4,    1.0,    0.4,   -0.1,   -0.8,   -1.0,   -0.8,   -0.5,   -0.0,    0.4,    0.5,   -1.1,   -0.3,  999.0,    0.3,    0.9,    1.0,    0.2,    0.3,    0.7,    0.6,    0.8,    0.4,    0.1,    0.6,   -0.1,    0.4,   -0.4,   -0.2,   -0.3,   -0.7,  999.0,    0.1,  999.0,  999.0,  999.0,  999.0,  999.0,  999.0,    0.3,    0.5,  999.0,  999.0,  999.0,  999.0,  999.0,  999.0,  999.0,  999.0,  999.0,  999.0,  999.0,  999.0,  999.0,  999.0,    0.6,   -0.3,   -0.4,   -0.2,  999.0,   -1.6,  999.0,  999.0,  999.0,  999.0,  999.0,  999.0,  999.0,  999.0,  999.0,  999.0,  999.0,  999.0,  999.0,  999.0
2005/12/12 23:30,    4.9,    4.9,    3.5,    3.0,    4.1,    4.1,    3.4,    5.4,    5.3,    3.4,    3.1,    1.1,    0.5,   -0.4,   -0.3,   -0.7,   -0.3,    1.0,    3.7,    4.6,    5.1,    4.8,    4.2,    3.9,    2.8,    2.9,    2.2,    1.0,    0.5,    1.0,    2.8,    3.9,    4.2,    4.5,    4.8,    4.8,    4.1,    3.7,    3.3,    3.7,    4.1,    4.5,    4.1,    3.5,    2.8,    1.6,    1.1,  999.0,   -0.3,   -0.8,   -0.8,   -0.5,   -0.1,   -0.2,    0.2,   -0.2,   -0.7,   -0.5,   -0.3,    0.3,    0.9,    0.6,    0.2,    0.5,    0.9,    1.0,    0.5,    0.2,    0.7,    0.8,    0.5,  999.0,    0.1,   -0.5,  999.0,   -1.0,  999.0,    0.5,    1.5,  999.0,  999.0,  999.0,  999.0,   -0.1,  999.0,  999.0,  999.0,  999.0,  999.0,  999.0,  999.0,  999.0,  999.0,  999.0,    2.8,  999.0,  999.0,  999.0,  999.0,  999.0,    0.5,   -0.3,   -0.7,   -0.4,   -0.5,   -1.4,  999.0,  999.0,  999.0,  999.0,  999.0,  999.0,  999.0,  999.0,  999.0,  999.0,  999.0,  999.0,  999.0,  999.0
